<?xml version="1.0" encoding="UTF-8" standalone="no" ?><gpx xmlns="http://www.topografix.com/GPX/1/1" xmlns:gpxx="http://www.garmin.com/xmlschemas/GpxExtensions/v3" xmlns:wptx1="http://www.garmin.com/xmlschemas/WaypointExtension/v1" xmlns:gpxtpx="http://www.garmin.com/xmlschemas/TrackPointExtension/v1" creator="Astro 320" version="1.1" xmlns:xsi="http://www.w3.org/2001/XMLSchema-instance" xsi:schemaLocation="http://www.topografix.com/GPX/1/1 http://www.topografix.com/GPX/1/1/gpx.xsd http://www.garmin.com/xmlschemas/GpxExtensions/v3 http://www8.garmin.com/xmlschemas/GpxExtensionsv3.xsd http://www.garmin.com/xmlschemas/WaypointExtension/v1 http://www8.garmin.com/xmlschemas/WaypointExtensionv1.xsd http://www.garmin.com/xmlschemas/TrackPointExtension/v1 http://www.garmin.com/xmlschemas/TrackPointExtensionv1.xsd"><metadata><link href="http://www.garmin.com"><text>Garmin International</text></link><time>2026-04-25T12:50:06Z</time></metadata><trk><name>Я026-04-25 15:49:58</name><extensions><gpxx:TrackExtension><gpxx:DisplayColor>Black</gpxx:DisplayColor></gpxx:TrackExtension></extensions><trkseg><trkpt lat="60.2161905169" lon="29.3959965091"><ele>-82.54</ele><time>2026-04-19T07:20:20Z</time></trkpt><trkpt lat="60.2161909360" lon="29.3960772268"><ele>-82.54</ele><time>2026-04-19T07:20:21Z</time></trkpt><trkpt lat="60.2162465081" lon="29.3961746246"><ele>-79.17</ele><time>2026-04-19T07:20:35Z</time></trkpt><trkpt lat="60.2162477653" lon="29.3961723614"><ele>-75.33</ele><time>2026-04-19T07:20:36Z</time></trkpt><trkpt lat="60.2162497770" lon="29.3961679190"><ele>-71.48</ele><time>2026-04-19T07:20:37Z</time></trkpt><trkpt lat="60.2162541356" lon="29.3961703498"><ele>-68.12</ele><time>2026-04-19T07:20:38Z</time></trkpt><trkpt lat="60.2162578236" lon="29.3961705174"><ele>-64.75</ele><time>2026-04-19T07:20:39Z</time></trkpt><trkpt lat="60.2162575722" lon="29.3961702660"><ele>-61.39</ele><time>2026-04-19T07:20:40Z</time></trkpt><trkpt lat="60.2162567340" lon="29.3961657397"><ele>-58.02</ele><time>2026-04-19T07:20:41Z</time></trkpt><trkpt lat="60.2162513696" lon="29.3961586989"><ele>-54.66</ele><time>2026-04-19T07:20:42Z</time></trkpt><trkpt lat="60.2162435744" lon="29.3961303681"><ele>-48.89</ele><time>2026-04-19T07:20:44Z</time></trkpt><trkpt lat="60.2162424009" lon="29.3960947450"><ele>-43.12</ele><time>2026-04-19T07:20:46Z</time></trkpt><trkpt lat="60.2162400540" lon="29.3960794900"><ele>-37.83</ele><time>2026-04-19T07:20:48Z</time></trkpt><trkpt lat="60.2162358630" lon="29.3960765563"><ele>-32.55</ele><time>2026-04-19T07:20:50Z</time></trkpt><trkpt lat="60.2162285708" lon="29.3960876204"><ele>-27.74</ele><time>2026-04-19T07:20:52Z</time></trkpt><trkpt lat="60.2162159979" lon="29.3960996065"><ele>-22.93</ele><time>2026-04-19T07:20:54Z</time></trkpt><trkpt lat="60.2162074484" lon="29.3960941583"><ele>-17.17</ele><time>2026-04-19T07:20:56Z</time></trkpt><trkpt lat="60.2162026707" lon="29.3960959185"><ele>-13.32</ele><time>2026-04-19T07:20:58Z</time></trkpt><trkpt lat="60.2161987312" lon="29.3960923143"><ele>-9.00</ele><time>2026-04-19T07:21:00Z</time></trkpt><trkpt lat="60.2161939535" lon="29.3960888777"><ele>-5.63</ele><time>2026-04-19T07:21:02Z</time></trkpt><trkpt lat="60.2161911875" lon="29.3960854411"><ele>-2.27</ele><time>2026-04-19T07:21:04Z</time></trkpt><trkpt lat="60.2161861584" lon="29.3960846029"><ele>0.62</ele><time>2026-04-19T07:21:06Z</time></trkpt><trkpt lat="60.2161751781" lon="29.3960845191"><ele>4.94</ele><time>2026-04-19T07:21:09Z</time></trkpt><trkpt lat="60.2161700651" lon="29.3960790709"><ele>8.79</ele><time>2026-04-19T07:21:12Z</time></trkpt><trkpt lat="60.2161674667" lon="29.3960864469"><ele>12.63</ele><time>2026-04-19T07:21:15Z</time></trkpt><trkpt lat="60.2161614317" lon="29.3960937392"><ele>16.00</ele><time>2026-04-19T07:21:18Z</time></trkpt><trkpt lat="60.2161795367" lon="29.3961717747"><ele>19.84</ele><time>2026-04-19T07:21:22Z</time></trkpt><trkpt lat="60.2162009943" lon="29.3962023687"><ele>19.36</ele><time>2026-04-19T07:21:23Z</time></trkpt><trkpt lat="60.2162737492" lon="29.3962846790"><ele>23.21</ele><time>2026-04-19T07:21:27Z</time></trkpt><trkpt lat="60.2162936144" lon="29.3962954916"><ele>26.57</ele><time>2026-04-19T07:21:31Z</time></trkpt><trkpt lat="60.2162776049" lon="29.3962181266"><ele>29.46</ele><time>2026-04-19T07:21:35Z</time></trkpt><trkpt lat="60.2162736654" lon="29.3960983492"><ele>33.30</ele><time>2026-04-19T07:21:40Z</time></trkpt><trkpt lat="60.2162781078" lon="29.3960655760"><ele>34.26</ele><time>2026-04-19T07:21:42Z</time></trkpt><trkpt lat="60.2162864897" lon="29.3959113490"><ele>38.59</ele><time>2026-04-19T07:21:49Z</time></trkpt><trkpt lat="60.2162986435" lon="29.3958310504"><ele>41.95</ele><time>2026-04-19T07:21:56Z</time></trkpt><trkpt lat="60.2163098752" lon="29.3958326429"><ele>44.84</ele><time>2026-04-19T07:22:04Z</time></trkpt><trkpt lat="60.2163022477" lon="29.3958240096"><ele>48.20</ele><time>2026-04-19T07:22:14Z</time></trkpt><trkpt lat="60.2163119707" lon="29.3957922421"><ele>51.09</ele><time>2026-04-19T07:22:31Z</time></trkpt><trkpt lat="60.2163273934" lon="29.3957793340"><ele>51.57</ele><time>2026-04-19T07:22:56Z</time></trkpt><trkpt lat="60.2163336799" lon="29.3957593013"><ele>51.57</ele><time>2026-04-19T07:23:04Z</time></trkpt><trkpt lat="60.2164119668" lon="29.3953699619"><ele>51.57</ele><time>2026-04-19T07:23:21Z</time></trkpt><trkpt lat="60.2164346818" lon="29.3952394556"><ele>52.53</ele><time>2026-04-19T07:23:27Z</time></trkpt><trkpt lat="60.2165002283" lon="29.3948854040"><ele>52.53</ele><time>2026-04-19T07:23:44Z</time></trkpt><trkpt lat="60.2166337520" lon="29.3945464399"><ele>52.53</ele><time>2026-04-19T07:24:01Z</time></trkpt><trkpt lat="60.2168185730" lon="29.3942442723"><ele>53.01</ele><time>2026-04-19T07:24:18Z</time></trkpt><trkpt lat="60.2169830259" lon="29.3940639775"><ele>54.45</ele><time>2026-04-19T07:24:31Z</time></trkpt><trkpt lat="60.2171393484" lon="29.3937210739"><ele>55.41</ele><time>2026-04-19T07:24:49Z</time></trkpt><trkpt lat="60.2171760611" lon="29.3936810922"><ele>55.89</ele><time>2026-04-19T07:25:07Z</time></trkpt><trkpt lat="60.2172468044" lon="29.3934668507"><ele>55.89</ele><time>2026-04-19T07:25:29Z</time></trkpt><trkpt lat="60.2173934877" lon="29.3931804411"><ele>55.89</ele><time>2026-04-19T07:25:47Z</time></trkpt><trkpt lat="60.2176096570" lon="29.3929152377"><ele>56.86</ele><time>2026-04-19T07:26:06Z</time></trkpt><trkpt lat="60.2177926339" lon="29.3928069435"><ele>57.34</ele><time>2026-04-19T07:26:22Z</time></trkpt><trkpt lat="60.2180076297" lon="29.3927470129"><ele>57.34</ele><time>2026-04-19T07:26:36Z</time></trkpt><trkpt lat="60.2181707416" lon="29.3925853260"><ele>57.82</ele><time>2026-04-19T07:26:51Z</time></trkpt><trkpt lat="60.2183191013" lon="29.3925263174"><ele>57.82</ele><time>2026-04-19T07:27:05Z</time></trkpt><trkpt lat="60.2184364479" lon="29.3923953921"><ele>58.30</ele><time>2026-04-19T07:27:20Z</time></trkpt><trkpt lat="60.2184461709" lon="29.3923860043"><ele>58.78</ele><time>2026-04-19T07:27:43Z</time></trkpt><trkpt lat="60.2184858173" lon="29.3922948092"><ele>58.78</ele><time>2026-04-19T07:27:57Z</time></trkpt><trkpt lat="60.2186051756" lon="29.3919112533"><ele>59.26</ele><time>2026-04-19T07:28:15Z</time></trkpt><trkpt lat="60.2186886594" lon="29.3916279450"><ele>59.26</ele><time>2026-04-19T07:28:30Z</time></trkpt><trkpt lat="60.2187400404" lon="29.3911975343"><ele>59.74</ele><time>2026-04-19T07:28:47Z</time></trkpt><trkpt lat="60.2187906671" lon="29.3907338474"><ele>60.22</ele><time>2026-04-19T07:29:06Z</time></trkpt><trkpt lat="60.2189086843" lon="29.3903005030"><ele>60.22</ele><time>2026-04-19T07:29:24Z</time></trkpt><trkpt lat="60.2189257834" lon="29.3900916260"><ele>60.22</ele><time>2026-04-19T07:29:32Z</time></trkpt><trkpt lat="60.2189566288" lon="29.3898789771"><ele>60.22</ele><time>2026-04-19T07:29:42Z</time></trkpt><trkpt lat="60.2189938445" lon="29.3895967584"><ele>60.70</ele><time>2026-04-19T07:29:59Z</time></trkpt><trkpt lat="60.2190042380" lon="29.3894757237"><ele>60.70</ele><time>2026-04-19T07:30:18Z</time></trkpt><trkpt lat="60.2190405317" lon="29.3893105164"><ele>60.70</ele><time>2026-04-19T07:30:37Z</time></trkpt><trkpt lat="60.2190575469" lon="29.3891997077"><ele>61.18</ele><time>2026-04-19T07:31:01Z</time></trkpt><trkpt lat="60.2191695292" lon="29.3888631742"><ele>61.66</ele><time>2026-04-19T07:31:18Z</time></trkpt><trkpt lat="60.2192439605" lon="29.3887765054"><ele>61.66</ele><time>2026-04-19T07:31:26Z</time></trkpt><trkpt lat="60.2193736285" lon="29.3883454241"><ele>62.14</ele><time>2026-04-19T07:31:45Z</time></trkpt><trkpt lat="60.2193890512" lon="29.3882830627"><ele>62.14</ele><time>2026-04-19T07:31:48Z</time></trkpt><trkpt lat="60.2194866166" lon="29.3880075496"><ele>62.14</ele><time>2026-04-19T07:32:06Z</time></trkpt><trkpt lat="60.2195128519" lon="29.3879026081"><ele>62.62</ele><time>2026-04-19T07:32:19Z</time></trkpt><trkpt lat="60.2195290290" lon="29.3876728602"><ele>63.10</ele><time>2026-04-19T07:32:36Z</time></trkpt><trkpt lat="60.2196062263" lon="29.3873431999"><ele>63.10</ele><time>2026-04-19T07:32:51Z</time></trkpt><trkpt lat="60.2197184600" lon="29.3871014658"><ele>63.10</ele><time>2026-04-19T07:33:06Z</time></trkpt><trkpt lat="60.2197798155" lon="29.3869012222"><ele>63.58</ele><time>2026-04-19T07:33:23Z</time></trkpt><trkpt lat="60.2198461164" lon="29.3865822908"><ele>64.07</ele><time>2026-04-19T07:33:38Z</time></trkpt><trkpt lat="60.2199102379" lon="29.3863124773"><ele>64.07</ele><time>2026-04-19T07:33:53Z</time></trkpt><trkpt lat="60.2199513931" lon="29.3861081265"><ele>64.07</ele><time>2026-04-19T07:34:09Z</time></trkpt><trkpt lat="60.2199660614" lon="29.3859569170"><ele>64.55</ele><time>2026-04-19T07:34:29Z</time></trkpt><trkpt lat="60.2199684083" lon="29.3858938850"><ele>64.55</ele><time>2026-04-19T07:34:54Z</time></trkpt><trkpt lat="60.2200277522" lon="29.3855578545"><ele>64.55</ele><time>2026-04-19T07:35:11Z</time></trkpt><trkpt lat="60.2200871799" lon="29.3852252606"><ele>64.55</ele><time>2026-04-19T07:35:25Z</time></trkpt><trkpt lat="60.2201778721" lon="29.3850235082"><ele>65.03</ele><time>2026-04-19T07:35:41Z</time></trkpt><trkpt lat="60.2202319354" lon="29.3849366717"><ele>65.03</ele><time>2026-04-19T07:35:58Z</time></trkpt><trkpt lat="60.2202374674" lon="29.3848838657"><ele>65.51</ele><time>2026-04-19T07:36:18Z</time></trkpt><trkpt lat="60.2202855796" lon="29.3846615776"><ele>65.99</ele><time>2026-04-19T07:36:32Z</time></trkpt><trkpt lat="60.2202929556" lon="29.3846304808"><ele>65.99</ele><time>2026-04-19T07:36:33Z</time></trkpt><trkpt lat="60.2204127330" lon="29.3842725735"><ele>65.99</ele><time>2026-04-19T07:36:49Z</time></trkpt><trkpt lat="60.2205111366" lon="29.3839595094"><ele>65.99</ele><time>2026-04-19T07:37:01Z</time></trkpt><trkpt lat="60.2205120586" lon="29.3838708289"><ele>66.47</ele><time>2026-04-19T07:37:20Z</time></trkpt><trkpt lat="60.2205637749" lon="29.3836690765"><ele>66.47</ele><time>2026-04-19T07:37:40Z</time></trkpt><trkpt lat="60.2205965482" lon="29.3835203815"><ele>66.95</ele><time>2026-04-19T07:38:00Z</time></trkpt><trkpt lat="60.2206893358" lon="29.3832515739"><ele>66.95</ele><time>2026-04-19T07:38:16Z</time></trkpt><trkpt lat="60.2207118832" lon="29.3831371609"><ele>66.95</ele><time>2026-04-19T07:38:21Z</time></trkpt><trkpt lat="60.2207889967" lon="29.3827218376"><ele>67.43</ele><time>2026-04-19T07:38:36Z</time></trkpt><trkpt lat="60.2208611649" lon="29.3823425565"><ele>67.43</ele><time>2026-04-19T07:38:52Z</time></trkpt><trkpt lat="60.2208918426" lon="29.3820869084"><ele>68.39</ele><time>2026-04-19T07:39:08Z</time></trkpt><trkpt lat="60.2209031582" lon="29.3820118066"><ele>68.87</ele><time>2026-04-19T07:39:23Z</time></trkpt><trkpt lat="60.2208979614" lon="29.3818844855"><ele>69.35</ele><time>2026-04-19T07:39:45Z</time></trkpt><trkpt lat="60.2208932675" lon="29.3817074597"><ele>69.83</ele><time>2026-04-19T07:40:16Z</time></trkpt><trkpt lat="60.2208717261" lon="29.3816093914"><ele>70.31</ele><time>2026-04-19T07:40:37Z</time></trkpt><trkpt lat="60.2209099475" lon="29.3815466110"><ele>70.31</ele><time>2026-04-19T07:41:07Z</time></trkpt><trkpt lat="60.2209562995" lon="29.3814798072"><ele>70.79</ele><time>2026-04-19T07:41:41Z</time></trkpt><trkpt lat="60.2209495939" lon="29.3814516440"><ele>70.79</ele><time>2026-04-19T07:42:04Z</time></trkpt><trkpt lat="60.2209394518" lon="29.3814612832"><ele>71.27</ele><time>2026-04-19T07:42:31Z</time></trkpt><trkpt lat="60.2209485881" lon="29.3814218044"><ele>71.27</ele><time>2026-04-19T07:42:50Z</time></trkpt><trkpt lat="60.2209937666" lon="29.3811090756"><ele>71.27</ele><time>2026-04-19T07:43:04Z</time></trkpt><trkpt lat="60.2210400347" lon="29.3806705344"><ele>71.27</ele><time>2026-04-19T07:43:21Z</time></trkpt><trkpt lat="60.2210611571" lon="29.3805117812"><ele>71.27</ele><time>2026-04-19T07:43:27Z</time></trkpt><trkpt lat="60.2211231831" lon="29.3801937718"><ele>71.76</ele><time>2026-04-19T07:43:41Z</time></trkpt><trkpt lat="60.2211892325" lon="29.3798282370"><ele>71.76</ele><time>2026-04-19T07:43:56Z</time></trkpt><trkpt lat="60.2212626580" lon="29.3795004208"><ele>71.76</ele><time>2026-04-19T07:44:13Z</time></trkpt><trkpt lat="60.2212556172" lon="29.3793684058"><ele>72.24</ele><time>2026-04-19T07:44:37Z</time></trkpt><trkpt lat="60.2212883066" lon="29.3792573456"><ele>72.24</ele><time>2026-04-19T07:44:56Z</time></trkpt><trkpt lat="60.2213511709" lon="29.3790171202"><ele>72.72</ele><time>2026-04-19T07:45:09Z</time></trkpt><trkpt lat="60.2213975228" lon="29.3787575327"><ele>73.20</ele><time>2026-04-19T07:45:24Z</time></trkpt><trkpt lat="60.2214599680" lon="29.3784595560"><ele>73.20</ele><time>2026-04-19T07:45:38Z</time></trkpt><trkpt lat="60.2215074096" lon="29.3782497570"><ele>73.20</ele><time>2026-04-19T07:45:55Z</time></trkpt><trkpt lat="60.2215030510" lon="29.3782160617"><ele>73.68</ele><time>2026-04-19T07:46:19Z</time></trkpt><trkpt lat="60.2215318009" lon="29.3782134634"><ele>74.16</ele><time>2026-04-19T07:46:49Z</time></trkpt><trkpt lat="60.2215261012" lon="29.3781872280"><ele>74.16</ele><time>2026-04-19T07:47:15Z</time></trkpt><trkpt lat="60.2215361595" lon="29.3780858908"><ele>74.64</ele><time>2026-04-19T07:47:42Z</time></trkpt><trkpt lat="60.2215618081" lon="29.3776915222"><ele>74.64</ele><time>2026-04-19T07:47:59Z</time></trkpt><trkpt lat="60.2215898037" lon="29.3774998281"><ele>74.64</ele><time>2026-04-19T07:48:21Z</time></trkpt><trkpt lat="60.2215657476" lon="29.3775095511"><ele>74.64</ele><time>2026-04-19T07:48:57Z</time></trkpt><trkpt lat="60.2215691004" lon="29.3774902727"><ele>74.64</ele><time>2026-04-19T07:49:24Z</time></trkpt><trkpt lat="60.2215939108" lon="29.3773924559"><ele>74.64</ele><time>2026-04-19T07:49:45Z</time></trkpt><trkpt lat="60.2215895522" lon="29.3773476128"><ele>74.64</ele><time>2026-04-19T07:49:48Z</time></trkpt><trkpt lat="60.2215453796" lon="29.3773360457"><ele>74.64</ele><time>2026-04-19T07:50:02Z</time></trkpt><trkpt lat="60.2215452120" lon="29.3773884326"><ele>74.64</ele><time>2026-04-19T07:50:22Z</time></trkpt><trkpt lat="60.2215496544" lon="29.3773610238"><ele>74.64</ele><time>2026-04-19T07:50:25Z</time></trkpt><trkpt lat="60.2216359880" lon="29.3770800624"><ele>74.64</ele><time>2026-04-19T07:50:41Z</time></trkpt><trkpt lat="60.2216730360" lon="29.3768708501"><ele>74.64</ele><time>2026-04-19T07:50:56Z</time></trkpt><trkpt lat="60.2216857765" lon="29.3768304493"><ele>74.64</ele><time>2026-04-19T07:51:20Z</time></trkpt><trkpt lat="60.2217457909" lon="29.3767626397"><ele>74.64</ele><time>2026-04-19T07:51:27Z</time></trkpt><trkpt lat="60.2218503132" lon="29.3765867036"><ele>75.12</ele><time>2026-04-19T07:51:43Z</time></trkpt><trkpt lat="60.2219206374" lon="29.3765334785"><ele>75.12</ele><time>2026-04-19T07:52:01Z</time></trkpt><trkpt lat="60.2220135089" lon="29.3764038943"><ele>75.12</ele><time>2026-04-19T07:52:11Z</time></trkpt><trkpt lat="60.2221185341" lon="29.3762022257"><ele>75.12</ele><time>2026-04-19T07:52:21Z</time></trkpt><trkpt lat="60.2222359646" lon="29.3760060053"><ele>76.08</ele><time>2026-04-19T07:52:36Z</time></trkpt><trkpt lat="60.2224045247" lon="29.3755691405"><ele>76.56</ele><time>2026-04-19T07:52:49Z</time></trkpt><trkpt lat="60.2224751003" lon="29.3753268197"><ele>76.56</ele><time>2026-04-19T07:53:05Z</time></trkpt><trkpt lat="60.2225389704" lon="29.3750573415"><ele>76.56</ele><time>2026-04-19T07:53:18Z</time></trkpt><trkpt lat="60.2226195205" lon="29.3747338839"><ele>76.56</ele><time>2026-04-19T07:53:31Z</time></trkpt><trkpt lat="60.2227668744" lon="29.3744646572"><ele>76.56</ele><time>2026-04-19T07:53:49Z</time></trkpt><trkpt lat="60.2229423914" lon="29.3741298839"><ele>77.52</ele><time>2026-04-19T07:54:05Z</time></trkpt><trkpt lat="60.2231030725" lon="29.3738143053"><ele>78.00</ele><time>2026-04-19T07:54:20Z</time></trkpt><trkpt lat="60.2232264541" lon="29.3735010736"><ele>78.00</ele><time>2026-04-19T07:54:34Z</time></trkpt><trkpt lat="60.2232284658" lon="29.3734841421"><ele>78.00</ele><time>2026-04-19T07:54:35Z</time></trkpt><trkpt lat="60.2232785057" lon="29.3733888399"><ele>78.00</ele><time>2026-04-19T07:54:41Z</time></trkpt><trkpt lat="60.2234629914" lon="29.3730073795"><ele>78.48</ele><time>2026-04-19T07:55:00Z</time></trkpt><trkpt lat="60.2236004546" lon="29.3728145957"><ele>78.48</ele><time>2026-04-19T07:55:15Z</time></trkpt><trkpt lat="60.2237390913" lon="29.3725992646"><ele>78.48</ele><time>2026-04-19T07:55:30Z</time></trkpt><trkpt lat="60.2238664962" lon="29.3722333945"><ele>79.45</ele><time>2026-04-19T07:55:46Z</time></trkpt><trkpt lat="60.2239207271" lon="29.3721125275"><ele>79.93</ele><time>2026-04-19T07:56:04Z</time></trkpt><trkpt lat="60.2239337191" lon="29.3720840290"><ele>79.93</ele><time>2026-04-19T07:56:22Z</time></trkpt><trkpt lat="60.2240660693" lon="29.3715659436"><ele>80.41</ele><time>2026-04-19T07:56:39Z</time></trkpt><trkpt lat="60.2241950668" lon="29.3712643627"><ele>80.89</ele><time>2026-04-19T07:56:52Z</time></trkpt><trkpt lat="60.2243322786" lon="29.3709337804"><ele>80.89</ele><time>2026-04-19T07:57:08Z</time></trkpt><trkpt lat="60.2244632039" lon="29.3704887852"><ele>80.89</ele><time>2026-04-19T07:57:25Z</time></trkpt><trkpt lat="60.2245250624" lon="29.3703302834"><ele>81.37</ele><time>2026-04-19T07:57:37Z</time></trkpt><trkpt lat="60.2245857473" lon="29.3700261880"><ele>81.85</ele><time>2026-04-19T07:57:52Z</time></trkpt><trkpt lat="60.2246631123" lon="29.3698483240"><ele>81.85</ele><time>2026-04-19T07:58:00Z</time></trkpt><trkpt lat="60.2248152439" lon="29.3693717290"><ele>81.85</ele><time>2026-04-19T07:58:17Z</time></trkpt><trkpt lat="60.2249377873" lon="29.3691196013"><ele>81.85</ele><time>2026-04-19T07:58:33Z</time></trkpt><trkpt lat="60.2249494381" lon="29.3690934498"><ele>81.85</ele><time>2026-04-19T07:58:47Z</time></trkpt><trkpt lat="60.2249682136" lon="29.3690537196"><ele>81.85</ele><time>2026-04-19T07:59:04Z</time></trkpt><trkpt lat="60.2250011545" lon="29.3690465949"><ele>81.85</ele><time>2026-04-19T07:59:38Z</time></trkpt><trkpt lat="60.2251122985" lon="29.3688387237"><ele>81.85</ele><time>2026-04-19T07:59:55Z</time></trkpt><trkpt lat="60.2252122108" lon="29.3686642963"><ele>81.85</ele><time>2026-04-19T08:00:09Z</time></trkpt><trkpt lat="60.2253494225" lon="29.3684689980"><ele>81.85</ele><time>2026-04-19T08:00:23Z</time></trkpt><trkpt lat="60.2254968602" lon="29.3681571074"><ele>81.85</ele><time>2026-04-19T08:00:38Z</time></trkpt><trkpt lat="60.2256033104" lon="29.3678453006"><ele>81.85</ele><time>2026-04-19T08:00:53Z</time></trkpt><trkpt lat="60.2256580442" lon="29.3676917441"><ele>81.85</ele><time>2026-04-19T08:01:03Z</time></trkpt><trkpt lat="60.2257427853" lon="29.3675003853"><ele>82.33</ele><time>2026-04-19T08:01:12Z</time></trkpt><trkpt lat="60.2258543484" lon="29.3672609981"><ele>82.33</ele><time>2026-04-19T08:01:29Z</time></trkpt><trkpt lat="60.2258837689" lon="29.3671860639"><ele>82.33</ele><time>2026-04-19T08:02:01Z</time></trkpt><trkpt lat="60.2258932404" lon="29.3670949526"><ele>82.33</ele><time>2026-04-19T08:02:16Z</time></trkpt><trkpt lat="60.2258999459" lon="29.3670521211"><ele>81.85</ele><time>2026-04-19T08:02:35Z</time></trkpt><trkpt lat="60.2259395923" lon="29.3670000695"><ele>81.85</ele><time>2026-04-19T08:02:49Z</time></trkpt><trkpt lat="60.2259493992" lon="29.3669794500"><ele>81.85</ele><time>2026-04-19T08:02:51Z</time></trkpt><trkpt lat="60.2259805799" lon="29.3666172680"><ele>81.85</ele><time>2026-04-19T08:03:07Z</time></trkpt><trkpt lat="60.2260302007" lon="29.3661835883"><ele>81.85</ele><time>2026-04-19T08:03:22Z</time></trkpt><trkpt lat="60.2260726970" lon="29.3660423532"><ele>82.33</ele><time>2026-04-19T08:03:29Z</time></trkpt><trkpt lat="60.2262088191" lon="29.3657124415"><ele>82.81</ele><time>2026-04-19T08:03:45Z</time></trkpt><trkpt lat="60.2262586914" lon="29.3655664288"><ele>83.29</ele><time>2026-04-19T08:04:05Z</time></trkpt><trkpt lat="60.2263034508" lon="29.3654664326"><ele>83.29</ele><time>2026-04-19T08:04:20Z</time></trkpt><trkpt lat="60.2263711765" lon="29.3652876467"><ele>83.29</ele><time>2026-04-19T08:04:34Z</time></trkpt><trkpt lat="60.2264051232" lon="29.3651698809"><ele>83.77</ele><time>2026-04-19T08:04:52Z</time></trkpt><trkpt lat="60.2264898643" lon="29.3649005704"><ele>83.77</ele><time>2026-04-19T08:05:07Z</time></trkpt><trkpt lat="60.2265588474" lon="29.3648196850"><ele>83.77</ele><time>2026-04-19T08:05:30Z</time></trkpt><trkpt lat="60.2266130783" lon="29.3646170106"><ele>83.77</ele><time>2026-04-19T08:05:46Z</time></trkpt><trkpt lat="60.2267284133" lon="29.3643557467"><ele>83.77</ele><time>2026-04-19T08:06:03Z</time></trkpt><trkpt lat="60.2267917804" lon="29.3640497234"><ele>83.77</ele><time>2026-04-19T08:06:22Z</time></trkpt><trkpt lat="60.2268038504" lon="29.3640524056"><ele>83.77</ele><time>2026-04-19T08:06:39Z</time></trkpt><trkpt lat="60.2268267330" lon="29.3640690856"><ele>83.77</ele><time>2026-04-19T08:07:14Z</time></trkpt><trkpt lat="60.2268217038" lon="29.3640643917"><ele>83.29</ele><time>2026-04-19T08:07:47Z</time></trkpt><trkpt lat="60.2268155850" lon="29.3640394974"><ele>83.29</ele><time>2026-04-19T08:08:16Z</time></trkpt><trkpt lat="60.2268165071" lon="29.3640264217"><ele>83.29</ele><time>2026-04-19T08:08:49Z</time></trkpt><trkpt lat="60.2268112265" lon="29.3640241586"><ele>83.29</ele><time>2026-04-19T08:09:16Z</time></trkpt><trkpt lat="60.2268278226" lon="29.3639799021"><ele>83.29</ele><time>2026-04-19T08:09:47Z</time></trkpt><trkpt lat="60.2268872503" lon="29.3638649862"><ele>83.29</ele><time>2026-04-19T08:10:06Z</time></trkpt><trkpt lat="60.2269179281" lon="29.3637736235"><ele>83.29</ele><time>2026-04-19T08:10:11Z</time></trkpt><trkpt lat="60.2269397210" lon="29.3636483140"><ele>82.81</ele><time>2026-04-19T08:10:25Z</time></trkpt><trkpt lat="60.2269503660" lon="29.3635883834"><ele>82.81</ele><time>2026-04-19T08:10:56Z</time></trkpt><trkpt lat="60.2269369550" lon="29.3635634053"><ele>82.81</ele><time>2026-04-19T08:11:21Z</time></trkpt><trkpt lat="60.2269385476" lon="29.3635504972"><ele>82.33</ele><time>2026-04-19T08:11:39Z</time></trkpt><trkpt lat="60.2269361168" lon="29.3635458034"><ele>82.33</ele><time>2026-04-19T08:12:02Z</time></trkpt><trkpt lat="60.2269660402" lon="29.3635158800"><ele>82.33</ele><time>2026-04-19T08:12:12Z</time></trkpt><trkpt lat="60.2271023300" lon="29.3633150496"><ele>81.85</ele><time>2026-04-19T08:12:28Z</time></trkpt><trkpt lat="60.2271471731" lon="29.3632411212"><ele>81.85</ele><time>2026-04-19T08:12:44Z</time></trkpt><trkpt lat="60.2271632664" lon="29.3632200826"><ele>81.85</ele><time>2026-04-19T08:13:12Z</time></trkpt><trkpt lat="60.2271607518" lon="29.3631992955"><ele>81.37</ele><time>2026-04-19T08:13:46Z</time></trkpt><trkpt lat="60.2271759231" lon="29.3631506804"><ele>81.37</ele><time>2026-04-19T08:13:52Z</time></trkpt><trkpt lat="60.2272052597" lon="29.3630697951"><ele>81.37</ele><time>2026-04-19T08:14:05Z</time></trkpt><trkpt lat="60.2272120491" lon="29.3630351778"><ele>81.37</ele><time>2026-04-19T08:14:21Z</time></trkpt><trkpt lat="60.2272256278" lon="29.3629786000"><ele>81.37</ele><time>2026-04-19T08:14:37Z</time></trkpt><trkpt lat="60.2272392903" lon="29.3628600799"><ele>80.89</ele><time>2026-04-19T08:14:50Z</time></trkpt><trkpt lat="60.2273236122" lon="29.3626036774"><ele>80.89</ele><time>2026-04-19T08:15:06Z</time></trkpt><trkpt lat="60.2274091076" lon="29.3623012584"><ele>80.89</ele><time>2026-04-19T08:15:22Z</time></trkpt><trkpt lat="60.2275210060" lon="29.3619852606"><ele>80.89</ele><time>2026-04-19T08:15:37Z</time></trkpt><trkpt lat="60.2276147157" lon="29.3616477214"><ele>80.89</ele><time>2026-04-19T08:15:52Z</time></trkpt><trkpt lat="60.2276220918" lon="29.3616231624"><ele>80.89</ele><time>2026-04-19T08:16:04Z</time></trkpt><trkpt lat="60.2276086807" lon="29.3616458774"><ele>80.89</ele><time>2026-04-19T08:16:09Z</time></trkpt><trkpt lat="60.2275020629" lon="29.3619111646"><ele>80.89</ele><time>2026-04-19T08:16:24Z</time></trkpt><trkpt lat="60.2274070960" lon="29.3622025196"><ele>80.89</ele><time>2026-04-19T08:16:38Z</time></trkpt><trkpt lat="60.2273030765" lon="29.3625321798"><ele>80.41</ele><time>2026-04-19T08:16:52Z</time></trkpt><trkpt lat="60.2271999791" lon="29.3629026599"><ele>80.41</ele><time>2026-04-19T08:17:07Z</time></trkpt><trkpt lat="60.2270513680" lon="29.3633186538"><ele>80.41</ele><time>2026-04-19T08:17:26Z</time></trkpt><trkpt lat="60.2270010766" lon="29.3634109385"><ele>80.41</ele><time>2026-04-19T08:17:31Z</time></trkpt><trkpt lat="60.2269425709" lon="29.3635430373"><ele>80.89</ele><time>2026-04-19T08:17:38Z</time></trkpt><trkpt lat="60.2269057743" lon="29.3635240942"><ele>80.89</ele><time>2026-04-19T08:17:53Z</time></trkpt><trkpt lat="60.2269126475" lon="29.3635395169"><ele>80.89</ele><time>2026-04-19T08:18:19Z</time></trkpt><trkpt lat="60.2269311715" lon="29.3635952566"><ele>80.89</ele><time>2026-04-19T08:18:32Z</time></trkpt><trkpt lat="60.2269477677" lon="29.3636127748"><ele>80.41</ele><time>2026-04-19T08:18:54Z</time></trkpt><trkpt lat="60.2269550599" lon="29.3636155408"><ele>80.41</ele><time>2026-04-19T08:19:18Z</time></trkpt><trkpt lat="60.2269605920" lon="29.3636128586"><ele>80.41</ele><time>2026-04-19T08:19:42Z</time></trkpt><trkpt lat="60.2269595861" lon="29.3636118528"><ele>79.93</ele><time>2026-04-19T08:20:11Z</time></trkpt><trkpt lat="60.2269636095" lon="29.3636096735"><ele>79.93</ele><time>2026-04-19T08:20:43Z</time></trkpt><trkpt lat="60.2269092109" lon="29.3637077417"><ele>79.93</ele><time>2026-04-19T08:20:50Z</time></trkpt><trkpt lat="60.2269079536" lon="29.3637110945"><ele>79.93</ele><time>2026-04-19T08:20:56Z</time></trkpt><trkpt lat="60.2268342767" lon="29.3635822646"><ele>79.93</ele><time>2026-04-19T08:21:03Z</time></trkpt><trkpt lat="60.2267975640" lon="29.3635624833"><ele>79.93</ele><time>2026-04-19T08:21:05Z</time></trkpt><trkpt lat="60.2267579176" lon="29.3635581248"><ele>79.45</ele><time>2026-04-19T08:21:18Z</time></trkpt><trkpt lat="60.2267455962" lon="29.3635437917"><ele>79.45</ele><time>2026-04-19T08:21:34Z</time></trkpt><trkpt lat="60.2267630305" lon="29.3635337334"><ele>79.45</ele><time>2026-04-19T08:22:02Z</time></trkpt><trkpt lat="60.2269024216" lon="29.3635579571"><ele>79.45</ele><time>2026-04-19T08:22:18Z</time></trkpt><trkpt lat="60.2269128151" lon="29.3636288680"><ele>79.45</ele><time>2026-04-19T08:22:31Z</time></trkpt><trkpt lat="60.2269182634" lon="29.3636541814"><ele>78.97</ele><time>2026-04-19T08:23:03Z</time></trkpt><trkpt lat="60.2268917765" lon="29.3637607992"><ele>78.97</ele><time>2026-04-19T08:23:16Z</time></trkpt><trkpt lat="60.2268521301" lon="29.3638784811"><ele>78.97</ele><time>2026-04-19T08:23:31Z</time></trkpt><trkpt lat="60.2267252281" lon="29.3641518150"><ele>78.97</ele><time>2026-04-19T08:23:47Z</time></trkpt><trkpt lat="60.2266056184" lon="29.3644608557"><ele>78.97</ele><time>2026-04-19T08:24:02Z</time></trkpt><trkpt lat="60.2265355457" lon="29.3646682240"><ele>78.97</ele><time>2026-04-19T08:24:16Z</time></trkpt><trkpt lat="60.2263828274" lon="29.3650740758"><ele>78.97</ele><time>2026-04-19T08:24:33Z</time></trkpt><trkpt lat="60.2262435202" lon="29.3653759081"><ele>77.52</ele><time>2026-04-19T08:24:47Z</time></trkpt><trkpt lat="60.2261037100" lon="29.3658317160"><ele>77.52</ele><time>2026-04-19T08:25:05Z</time></trkpt><trkpt lat="60.2260090783" lon="29.3661470432"><ele>77.52</ele><time>2026-04-19T08:25:20Z</time></trkpt><trkpt lat="60.2259474713" lon="29.3665116560"><ele>76.56</ele><time>2026-04-19T08:25:36Z</time></trkpt><trkpt lat="60.2259183861" lon="29.3666882627"><ele>77.04</ele><time>2026-04-19T08:25:44Z</time></trkpt><trkpt lat="60.2258514985" lon="29.3669403903"><ele>77.04</ele><time>2026-04-19T08:25:59Z</time></trkpt><trkpt lat="60.2258687653" lon="29.3670117203"><ele>77.04</ele><time>2026-04-19T08:26:23Z</time></trkpt><trkpt lat="60.2258840203" lon="29.3670733273"><ele>77.04</ele><time>2026-04-19T08:26:50Z</time></trkpt><trkpt lat="60.2258770633" lon="29.3670734949"><ele>77.04</ele><time>2026-04-19T08:27:22Z</time></trkpt><trkpt lat="60.2258340642" lon="29.3671487644"><ele>77.04</ele><time>2026-04-19T08:27:48Z</time></trkpt><trkpt lat="60.2256537694" lon="29.3674582243"><ele>77.04</ele><time>2026-04-19T08:28:05Z</time></trkpt><trkpt lat="60.2255387697" lon="29.3677271996"><ele>77.04</ele><time>2026-04-19T08:28:18Z</time></trkpt><trkpt lat="60.2254606504" lon="29.3679599650"><ele>76.56</ele><time>2026-04-19T08:28:34Z</time></trkpt><trkpt lat="60.2254508436" lon="29.3679946661"><ele>76.56</ele><time>2026-04-19T08:28:36Z</time></trkpt><trkpt lat="60.2253886499" lon="29.3681940716"><ele>76.08</ele><time>2026-04-19T08:28:52Z</time></trkpt><trkpt lat="60.2253843751" lon="29.3682558462"><ele>76.08</ele><time>2026-04-19T08:29:17Z</time></trkpt><trkpt lat="60.2253429685" lon="29.3682979234"><ele>76.08</ele><time>2026-04-19T08:29:40Z</time></trkpt><trkpt lat="60.2252253704" lon="29.3684794754"><ele>76.08</ele><time>2026-04-19T08:29:54Z</time></trkpt><trkpt lat="60.2250591572" lon="29.3686871789"><ele>76.08</ele><time>2026-04-19T08:30:11Z</time></trkpt><trkpt lat="60.2249479294" lon="29.3688352033"><ele>75.60</ele><time>2026-04-19T08:30:25Z</time></trkpt><trkpt lat="60.2249372844" lon="29.3688515481"><ele>75.60</ele><time>2026-04-19T08:30:26Z</time></trkpt><trkpt lat="60.2248529624" lon="29.3690569047"><ele>75.60</ele><time>2026-04-19T08:30:39Z</time></trkpt><trkpt lat="60.2248400543" lon="29.3691214453"><ele>77.04</ele><time>2026-04-19T08:30:53Z</time></trkpt><trkpt lat="60.2248375397" lon="29.3691996485"><ele>77.04</ele><time>2026-04-19T08:31:23Z</time></trkpt><trkpt lat="60.2248227037" lon="29.3692237046"><ele>77.04</ele><time>2026-04-19T08:31:41Z</time></trkpt><trkpt lat="60.2248175070" lon="29.3692299910"><ele>77.04</ele><time>2026-04-19T08:32:12Z</time></trkpt><trkpt lat="60.2248171717" lon="29.3692517001"><ele>77.04</ele><time>2026-04-19T08:32:46Z</time></trkpt><trkpt lat="60.2247975580" lon="29.3692451622"><ele>77.04</ele><time>2026-04-19T08:33:04Z</time></trkpt><trkpt lat="60.2247983124" lon="29.3692465872"><ele>76.56</ele><time>2026-04-19T08:33:32Z</time></trkpt><trkpt lat="60.2248050179" lon="29.3692460004"><ele>76.56</ele><time>2026-04-19T08:34:04Z</time></trkpt><trkpt lat="60.2248110529" lon="29.3692302424"><ele>76.56</ele><time>2026-04-19T08:34:37Z</time></trkpt><trkpt lat="60.2248152439" lon="29.3692304939"><ele>76.56</ele><time>2026-04-19T08:35:04Z</time></trkpt><trkpt lat="60.2248145733" lon="29.3692275602"><ele>76.56</ele><time>2026-04-19T08:35:29Z</time></trkpt><trkpt lat="60.2248232905" lon="29.3692155741"><ele>76.56</ele><time>2026-04-19T08:35:52Z</time></trkpt><trkpt lat="60.2248223685" lon="29.3691876624"><ele>76.56</ele><time>2026-04-19T08:36:21Z</time></trkpt><trkpt lat="60.2248122264" lon="29.3691844773"><ele>76.56</ele><time>2026-04-19T08:36:49Z</time></trkpt><trkpt lat="60.2248117235" lon="29.3691707309"><ele>76.56</ele><time>2026-04-19T08:37:19Z</time></trkpt><trkpt lat="60.2248123102" lon="29.3691670429"><ele>76.56</ele><time>2026-04-19T08:37:49Z</time></trkpt><trkpt lat="60.2248161659" lon="29.3691888358"><ele>75.12</ele><time>2026-04-19T08:38:03Z</time></trkpt><trkpt lat="60.2248190995" lon="29.3692126404"><ele>75.12</ele><time>2026-04-19T08:38:33Z</time></trkpt><trkpt lat="60.2248172555" lon="29.3692039233"><ele>75.12</ele><time>2026-04-19T08:39:04Z</time></trkpt><trkpt lat="60.2248209435" lon="29.3692110479"><ele>74.64</ele><time>2026-04-19T08:39:37Z</time></trkpt><trkpt lat="60.2248154115" lon="29.3692309130"><ele>74.64</ele><time>2026-04-19T08:40:06Z</time></trkpt><trkpt lat="60.2248397190" lon="29.3692123890"><ele>74.64</ele><time>2026-04-19T08:40:22Z</time></trkpt><trkpt lat="60.2248574048" lon="29.3691484351"><ele>74.64</ele><time>2026-04-19T08:40:26Z</time></trkpt><trkpt lat="60.2249000687" lon="29.3690026738"><ele>76.08</ele><time>2026-04-19T08:40:40Z</time></trkpt><trkpt lat="60.2248694748" lon="29.3689269014"><ele>76.08</ele><time>2026-04-19T08:40:52Z</time></trkpt><trkpt lat="60.2248708159" lon="29.3687411584"><ele>75.60</ele><time>2026-04-19T08:41:04Z</time></trkpt><trkpt lat="60.2248656191" lon="29.3686682358"><ele>75.60</ele><time>2026-04-19T08:41:19Z</time></trkpt><trkpt lat="60.2248563152" lon="29.3686308526"><ele>75.60</ele><time>2026-04-19T08:41:32Z</time></trkpt><trkpt lat="60.2248558123" lon="29.3685766216"><ele>75.60</ele><time>2026-04-19T08:41:46Z</time></trkpt><trkpt lat="60.2248222847" lon="29.3685611151"><ele>75.60</ele><time>2026-04-19T08:42:00Z</time></trkpt><trkpt lat="60.2248003241" lon="29.3684536591"><ele>75.60</ele><time>2026-04-19T08:42:15Z</time></trkpt><trkpt lat="60.2247248869" lon="29.3682759628"><ele>75.60</ele><time>2026-04-19T08:42:32Z</time></trkpt><trkpt lat="60.2246856596" lon="29.3682329636"><ele>74.16</ele><time>2026-04-19T08:43:03Z</time></trkpt><trkpt lat="60.2246735897" lon="29.3682087399"><ele>74.16</ele><time>2026-04-19T08:43:37Z</time></trkpt><trkpt lat="60.2246759366" lon="29.3682160322"><ele>73.68</ele><time>2026-04-19T08:44:09Z</time></trkpt><trkpt lat="60.2246735059" lon="29.3682220671"><ele>73.68</ele><time>2026-04-19T08:44:37Z</time></trkpt><trkpt lat="60.2246640343" lon="29.3682146911"><ele>73.68</ele><time>2026-04-19T08:45:15Z</time></trkpt><trkpt lat="60.2246673033" lon="29.3682224862"><ele>73.68</ele><time>2026-04-19T08:45:29Z</time></trkpt><trkpt lat="60.2246612683" lon="29.3682258390"><ele>73.20</ele><time>2026-04-19T08:45:49Z</time></trkpt><trkpt lat="60.2246655431" lon="29.3682392500"><ele>73.20</ele><time>2026-04-19T08:46:08Z</time></trkpt><trkpt lat="60.2246682253" lon="29.3682892900"><ele>73.20</ele><time>2026-04-19T08:46:33Z</time></trkpt><trkpt lat="60.2246615198" lon="29.3683003541"><ele>73.20</ele><time>2026-04-19T08:47:01Z</time></trkpt><trkpt lat="60.2246449236" lon="29.3683120888"><ele>73.68</ele><time>2026-04-19T08:47:23Z</time></trkpt><trkpt lat="60.2245818079" lon="29.3682980910"><ele>73.68</ele><time>2026-04-19T08:47:36Z</time></trkpt><trkpt lat="60.2245273255" lon="29.3682682514"><ele>73.68</ele><time>2026-04-19T08:47:50Z</time></trkpt><trkpt lat="60.2244780399" lon="29.3682750408"><ele>73.68</ele><time>2026-04-19T08:48:04Z</time></trkpt><trkpt lat="60.2243838273" lon="29.3682426866"><ele>73.68</ele><time>2026-04-19T08:48:24Z</time></trkpt><trkpt lat="60.2243676502" lon="29.3682607915"><ele>73.68</ele><time>2026-04-19T08:48:57Z</time></trkpt><trkpt lat="60.2243587654" lon="29.3682754599"><ele>73.68</ele><time>2026-04-19T08:49:25Z</time></trkpt><trkpt lat="60.2243451029" lon="29.3682590313"><ele>73.68</ele><time>2026-04-19T08:49:43Z</time></trkpt><trkpt lat="60.2242987510" lon="29.3682661559"><ele>73.20</ele><time>2026-04-19T08:49:58Z</time></trkpt><trkpt lat="60.2242540754" lon="29.3682782259"><ele>73.20</ele><time>2026-04-19T08:50:18Z</time></trkpt><trkpt lat="60.2242579311" lon="29.3683201354"><ele>73.20</ele><time>2026-04-19T08:50:40Z</time></trkpt><trkpt lat="60.2242596075" lon="29.3683292717"><ele>73.20</ele><time>2026-04-19T08:51:05Z</time></trkpt><trkpt lat="60.2241880260" lon="29.3683344685"><ele>72.24</ele><time>2026-04-19T08:51:16Z</time></trkpt><trkpt lat="60.2240811568" lon="29.3682353944"><ele>71.76</ele><time>2026-04-19T08:51:33Z</time></trkpt><trkpt lat="60.2240338828" lon="29.3682239950"><ele>71.27</ele><time>2026-04-19T08:51:47Z</time></trkpt><trkpt lat="60.2240040433" lon="29.3681353144"><ele>70.79</ele><time>2026-04-19T08:52:01Z</time></trkpt><trkpt lat="60.2238731179" lon="29.3680765573"><ele>70.31</ele><time>2026-04-19T08:52:18Z</time></trkpt><trkpt lat="60.2238018718" lon="29.3680591229"><ele>70.31</ele><time>2026-04-19T08:52:34Z</time></trkpt><trkpt lat="60.2237098385" lon="29.3680249248"><ele>69.83</ele><time>2026-04-19T08:52:49Z</time></trkpt><trkpt lat="60.2236092556" lon="29.3680589553"><ele>69.35</ele><time>2026-04-19T08:53:04Z</time></trkpt><trkpt lat="60.2235416137" lon="29.3680980150"><ele>68.87</ele><time>2026-04-19T08:53:24Z</time></trkpt><trkpt lat="60.2234422043" lon="29.3680965900"><ele>68.39</ele><time>2026-04-19T08:53:41Z</time></trkpt><trkpt lat="60.2233329881" lon="29.3681132700"><ele>67.91</ele><time>2026-04-19T08:53:57Z</time></trkpt><trkpt lat="60.2231698763" lon="29.3680959195"><ele>67.43</ele><time>2026-04-19T08:54:13Z</time></trkpt><trkpt lat="60.2230438124" lon="29.3680515792"><ele>66.95</ele><time>2026-04-19T08:54:30Z</time></trkpt><trkpt lat="60.2229323331" lon="29.3680352345"><ele>65.99</ele><time>2026-04-19T08:54:44Z</time></trkpt><trkpt lat="60.2228843048" lon="29.3680320494"><ele>65.99</ele><time>2026-04-19T08:54:58Z</time></trkpt><trkpt lat="60.2227865718" lon="29.3679392617"><ele>65.99</ele><time>2026-04-19T08:55:13Z</time></trkpt><trkpt lat="60.2227050159" lon="29.3678089231"><ele>65.99</ele><time>2026-04-19T08:55:29Z</time></trkpt><trkpt lat="60.2226883359" lon="29.3678128626"><ele>65.99</ele><time>2026-04-19T08:56:05Z</time></trkpt><trkpt lat="60.2226838935" lon="29.3678309675"><ele>65.99</ele><time>2026-04-19T08:56:28Z</time></trkpt><trkpt lat="60.2226538025" lon="29.3677550275"><ele>65.99</ele><time>2026-04-19T08:56:49Z</time></trkpt><trkpt lat="60.2225562371" lon="29.3676600605"><ele>65.99</ele><time>2026-04-19T08:57:03Z</time></trkpt><trkpt lat="60.2223926224" lon="29.3675421271"><ele>65.99</ele><time>2026-04-19T08:57:22Z</time></trkpt><trkpt lat="60.2223048639" lon="29.3675220106"><ele>65.99</ele><time>2026-04-19T08:57:35Z</time></trkpt><trkpt lat="60.2222068794" lon="29.3674567994"><ele>65.51</ele><time>2026-04-19T08:57:48Z</time></trkpt><trkpt lat="60.2220679913" lon="29.3674319889"><ele>65.03</ele><time>2026-04-19T08:58:03Z</time></trkpt><trkpt lat="60.2219347190" lon="29.3674682826"><ele>65.03</ele><time>2026-04-19T08:58:16Z</time></trkpt><trkpt lat="60.2219202183" lon="29.3674464058"><ele>65.03</ele><time>2026-04-19T08:58:32Z</time></trkpt><trkpt lat="60.2219078969" lon="29.3674468249"><ele>64.55</ele><time>2026-04-19T08:59:00Z</time></trkpt><trkpt lat="60.2219089866" lon="29.3674536981"><ele>64.55</ele><time>2026-04-19T08:59:32Z</time></trkpt><trkpt lat="60.2219038736" lon="29.3674568832"><ele>64.55</ele><time>2026-04-19T09:00:02Z</time></trkpt><trkpt lat="60.2219015267" lon="29.3674497586"><ele>64.55</ele><time>2026-04-19T09:00:32Z</time></trkpt><trkpt lat="60.2219028678" lon="29.3674473278"><ele>64.07</ele><time>2026-04-19T09:00:59Z</time></trkpt><trkpt lat="60.2219045442" lon="29.3674434721"><ele>64.07</ele><time>2026-04-19T09:01:08Z</time></trkpt><trkpt lat="60.2218836732" lon="29.3675101083"><ele>64.07</ele><time>2026-04-19T09:01:12Z</time></trkpt><trkpt lat="60.2218373213" lon="29.3676488288"><ele>64.07</ele><time>2026-04-19T09:01:21Z</time></trkpt><trkpt lat="60.2218135167" lon="29.3677782454"><ele>64.07</ele><time>2026-04-19T09:01:32Z</time></trkpt><trkpt lat="60.2217236627" lon="29.3680696841"><ele>64.07</ele><time>2026-04-19T09:01:46Z</time></trkpt><trkpt lat="60.2216832619" lon="29.3681623880"><ele>64.07</ele><time>2026-04-19T09:01:51Z</time></trkpt><trkpt lat="60.2216644026" lon="29.3682639766"><ele>64.07</ele><time>2026-04-19T09:01:56Z</time></trkpt><trkpt lat="60.2216063999" lon="29.3684943952"><ele>64.07</ele><time>2026-04-19T09:02:10Z</time></trkpt><trkpt lat="60.2215773985" lon="29.3685980793"><ele>64.07</ele><time>2026-04-19T09:02:25Z</time></trkpt><trkpt lat="60.2215846069" lon="29.3686044496"><ele>63.58</ele><time>2026-04-19T09:02:48Z</time></trkpt><trkpt lat="60.2215302084" lon="29.3687331118"><ele>63.58</ele><time>2026-04-19T09:02:59Z</time></trkpt><trkpt lat="60.2215115167" lon="29.3688003346"><ele>63.58</ele><time>2026-04-19T09:03:15Z</time></trkpt><trkpt lat="60.2215076610" lon="29.3688059505"><ele>63.58</ele><time>2026-04-19T09:03:43Z</time></trkpt><trkpt lat="60.2215088345" lon="29.3688067049"><ele>63.10</ele><time>2026-04-19T09:04:12Z</time></trkpt><trkpt lat="60.2214888018" lon="29.3688469380"><ele>63.10</ele><time>2026-04-19T09:04:39Z</time></trkpt><trkpt lat="60.2214738820" lon="29.3690151628"><ele>63.10</ele><time>2026-04-19T09:04:49Z</time></trkpt><trkpt lat="60.2214461379" lon="29.3691165838"><ele>63.10</ele><time>2026-04-19T09:05:08Z</time></trkpt><trkpt lat="60.2214466408" lon="29.3691166677"><ele>62.62</ele><time>2026-04-19T09:05:40Z</time></trkpt><trkpt lat="60.2214382589" lon="29.3691323418"><ele>62.62</ele><time>2026-04-19T09:06:12Z</time></trkpt><trkpt lat="60.2214364987" lon="29.3691430707"><ele>62.62</ele><time>2026-04-19T09:06:41Z</time></trkpt><trkpt lat="60.2214362472" lon="29.3691599183"><ele>62.62</ele><time>2026-04-19T09:07:01Z</time></trkpt><trkpt lat="60.2214406058" lon="29.3691573199"><ele>62.14</ele><time>2026-04-19T09:07:32Z</time></trkpt><trkpt lat="60.2213932481" lon="29.3692893349"><ele>63.10</ele><time>2026-04-19T09:07:46Z</time></trkpt><trkpt lat="60.2213772386" lon="29.3693068530"><ele>63.10</ele><time>2026-04-19T09:07:48Z</time></trkpt><trkpt lat="60.2213380113" lon="29.3694987986"><ele>63.10</ele><time>2026-04-19T09:08:03Z</time></trkpt><trkpt lat="60.2213401068" lon="29.3695266265"><ele>63.10</ele><time>2026-04-19T09:08:21Z</time></trkpt><trkpt lat="60.2213241812" lon="29.3695680331"><ele>63.10</ele><time>2026-04-19T09:08:25Z</time></trkpt><trkpt lat="60.2212389372" lon="29.3698357511"><ele>63.10</ele><time>2026-04-19T09:08:40Z</time></trkpt><trkpt lat="60.2212034818" lon="29.3700727075"><ele>63.10</ele><time>2026-04-19T09:08:54Z</time></trkpt><trkpt lat="60.2211677749" lon="29.3702444527"><ele>63.10</ele><time>2026-04-19T09:09:09Z</time></trkpt><trkpt lat="60.2211324871" lon="29.3703218177"><ele>63.10</ele><time>2026-04-19T09:09:21Z</time></trkpt><trkpt lat="60.2211259492" lon="29.3703400064"><ele>63.10</ele><time>2026-04-19T09:09:24Z</time></trkpt><trkpt lat="60.2210812736" lon="29.3706083950"><ele>63.10</ele><time>2026-04-19T09:09:37Z</time></trkpt><trkpt lat="60.2210409567" lon="29.3708290067"><ele>63.10</ele><time>2026-04-19T09:09:51Z</time></trkpt><trkpt lat="60.2210420463" lon="29.3708366342"><ele>63.10</ele><time>2026-04-19T09:10:12Z</time></trkpt><trkpt lat="60.2210299764" lon="29.3708984088"><ele>62.62</ele><time>2026-04-19T09:10:35Z</time></trkpt><trkpt lat="60.2209775895" lon="29.3710800447"><ele>62.62</ele><time>2026-04-19T09:10:47Z</time></trkpt><trkpt lat="60.2209280524" lon="29.3712721579"><ele>62.62</ele><time>2026-04-19T09:11:00Z</time></trkpt><trkpt lat="60.2208968718" lon="29.3714104593"><ele>62.62</ele><time>2026-04-19T09:11:13Z</time></trkpt><trkpt lat="60.2208551299" lon="29.3715615850"><ele>62.62</ele><time>2026-04-19T09:11:26Z</time></trkpt><trkpt lat="60.2208350133" lon="29.3717222661"><ele>62.62</ele><time>2026-04-19T09:11:39Z</time></trkpt><trkpt lat="60.2208222728" lon="29.3717936799"><ele>62.62</ele><time>2026-04-19T09:11:55Z</time></trkpt><trkpt lat="60.2208010666" lon="29.3718666863"><ele>62.14</ele><time>2026-04-19T09:12:11Z</time></trkpt><trkpt lat="60.2208069339" lon="29.3718767446"><ele>62.14</ele><time>2026-04-19T09:12:46Z</time></trkpt><trkpt lat="60.2208182495" lon="29.3718969449"><ele>62.14</ele><time>2026-04-19T09:13:19Z</time></trkpt><trkpt lat="60.2208143938" lon="29.3719070870"><ele>62.14</ele><time>2026-04-19T09:13:51Z</time></trkpt><trkpt lat="60.2208054252" lon="29.3719292153"><ele>62.14</ele><time>2026-04-19T09:13:59Z</time></trkpt><trkpt lat="60.2207345981" lon="29.3721220829"><ele>61.66</ele><time>2026-04-19T09:14:13Z</time></trkpt><trkpt lat="60.2206852287" lon="29.3723308761"><ele>61.66</ele><time>2026-04-19T09:14:26Z</time></trkpt><trkpt lat="60.2206873242" lon="29.3723975960"><ele>61.66</ele><time>2026-04-19T09:14:41Z</time></trkpt><trkpt lat="60.2206861507" lon="29.3724182155"><ele>61.66</ele><time>2026-04-19T09:15:07Z</time></trkpt><trkpt lat="60.2206722368" lon="29.3724189699"><ele>62.14</ele><time>2026-04-19T09:15:36Z</time></trkpt><trkpt lat="60.2206503600" lon="29.3724581972"><ele>62.14</ele><time>2026-04-19T09:15:44Z</time></trkpt><trkpt lat="60.2206035051" lon="29.3726953212"><ele>62.14</ele><time>2026-04-19T09:15:56Z</time></trkpt><trkpt lat="60.2205797005" lon="29.3727934733"><ele>62.14</ele><time>2026-04-19T09:16:17Z</time></trkpt><trkpt lat="60.2205361985" lon="29.3729166873"><ele>62.14</ele><time>2026-04-19T09:16:31Z</time></trkpt><trkpt lat="60.2204982284" lon="29.3731824774"><ele>62.14</ele><time>2026-04-19T09:16:44Z</time></trkpt><trkpt lat="60.2204608452" lon="29.3733108044"><ele>62.14</ele><time>2026-04-19T09:16:54Z</time></trkpt><trkpt lat="60.2204516251" lon="29.3734532967"><ele>62.14</ele><time>2026-04-19T09:17:10Z</time></trkpt><trkpt lat="60.2204381302" lon="29.3735641893"><ele>62.14</ele><time>2026-04-19T09:17:23Z</time></trkpt><trkpt lat="60.2204203606" lon="29.3736254610"><ele>62.14</ele><time>2026-04-19T09:17:40Z</time></trkpt><trkpt lat="60.2203874197" lon="29.3737487588"><ele>62.14</ele><time>2026-04-19T09:17:52Z</time></trkpt><trkpt lat="60.2203615196" lon="29.3738842942"><ele>61.66</ele><time>2026-04-19T09:18:04Z</time></trkpt><trkpt lat="60.2203543950" lon="29.3738971185"><ele>62.14</ele><time>2026-04-19T09:18:28Z</time></trkpt><trkpt lat="60.2203508746" lon="29.3739401177"><ele>62.14</ele><time>2026-04-19T09:18:52Z</time></trkpt><trkpt lat="60.2203306742" lon="29.3740780000"><ele>62.14</ele><time>2026-04-19T09:18:59Z</time></trkpt><trkpt lat="60.2202505432" lon="29.3742801715"><ele>62.14</ele><time>2026-04-19T09:19:13Z</time></trkpt><trkpt lat="60.2202466875" lon="29.3742976058"><ele>62.14</ele><time>2026-04-19T09:19:14Z</time></trkpt><trkpt lat="60.2201877628" lon="29.3745242525"><ele>62.14</ele><time>2026-04-19T09:19:27Z</time></trkpt><trkpt lat="60.2201103140" lon="29.3747102469"><ele>62.14</ele><time>2026-04-19T09:19:39Z</time></trkpt><trkpt lat="60.2200710028" lon="29.3748345505"><ele>62.14</ele><time>2026-04-19T09:19:53Z</time></trkpt><trkpt lat="60.2200699132" lon="29.3748337962"><ele>62.14</ele><time>2026-04-19T09:19:55Z</time></trkpt><trkpt lat="60.2200597711" lon="29.3748951517"><ele>61.66</ele><time>2026-04-19T09:20:04Z</time></trkpt><trkpt lat="60.2200227231" lon="29.3750361353"><ele>61.66</ele><time>2026-04-19T09:20:11Z</time></trkpt><trkpt lat="60.2200122457" lon="29.3750977423"><ele>61.66</ele><time>2026-04-19T09:20:14Z</time></trkpt><trkpt lat="60.2200049534" lon="29.3751430884"><ele>61.66</ele><time>2026-04-19T09:20:16Z</time></trkpt><trkpt lat="60.2199386526" lon="29.3754143268"><ele>61.66</ele><time>2026-04-19T09:20:31Z</time></trkpt><trkpt lat="60.2199338749" lon="29.3754852377"><ele>61.66</ele><time>2026-04-19T09:20:42Z</time></trkpt><trkpt lat="60.2199337911" lon="29.3754861597"><ele>61.66</ele><time>2026-04-19T09:21:10Z</time></trkpt><trkpt lat="60.2199337911" lon="29.3755087908"><ele>61.66</ele><time>2026-04-19T09:21:17Z</time></trkpt><trkpt lat="60.2199037001" lon="29.3756633531"><ele>61.66</ele><time>2026-04-19T09:21:31Z</time></trkpt><trkpt lat="60.2198789734" lon="29.3757755868"><ele>61.66</ele><time>2026-04-19T09:21:45Z</time></trkpt><trkpt lat="60.2198680770" lon="29.3758633453"><ele>61.66</ele><time>2026-04-19T09:21:49Z</time></trkpt><trkpt lat="60.2198109124" lon="29.3760685343"><ele>61.66</ele><time>2026-04-19T09:22:01Z</time></trkpt><trkpt lat="60.2197931428" lon="29.3762237672"><ele>61.66</ele><time>2026-04-19T09:22:13Z</time></trkpt><trkpt lat="60.2197630517" lon="29.3763659243"><ele>61.66</ele><time>2026-04-19T09:22:25Z</time></trkpt><trkpt lat="60.2197465394" lon="29.3764590472"><ele>61.66</ele><time>2026-04-19T09:22:30Z</time></trkpt><trkpt lat="60.2196739521" lon="29.3766917288"><ele>61.66</ele><time>2026-04-19T09:22:45Z</time></trkpt><trkpt lat="60.2196671627" lon="29.3767514080"><ele>61.66</ele><time>2026-04-19T09:22:48Z</time></trkpt><trkpt lat="60.2196343895" lon="29.3768679164"><ele>61.66</ele><time>2026-04-19T09:22:55Z</time></trkpt><trkpt lat="60.2196166199" lon="29.3769353069"><ele>61.18</ele><time>2026-04-19T09:23:08Z</time></trkpt><trkpt lat="60.2196118422" lon="29.3769365642"><ele>61.18</ele><time>2026-04-19T09:23:16Z</time></trkpt><trkpt lat="60.2195933182" lon="29.3769895379"><ele>61.18</ele><time>2026-04-19T09:23:21Z</time></trkpt><trkpt lat="60.2196006943" lon="29.3771112431"><ele>61.18</ele><time>2026-04-19T09:23:33Z</time></trkpt><trkpt lat="60.2195843495" lon="29.3771273363"><ele>61.18</ele><time>2026-04-19T09:23:52Z</time></trkpt><trkpt lat="60.2196041308" lon="29.3771503866"><ele>61.18</ele><time>2026-04-19T09:24:16Z</time></trkpt><trkpt lat="60.2195714414" lon="29.3772254884"><ele>61.18</ele><time>2026-04-19T09:24:32Z</time></trkpt><trkpt lat="60.2195840143" lon="29.3771415856"><ele>61.18</ele><time>2026-04-19T09:24:49Z</time></trkpt><trkpt lat="60.2195922285" lon="29.3770903721"><ele>61.18</ele><time>2026-04-19T09:25:09Z</time></trkpt><trkpt lat="60.2195897978" lon="29.3771062139"><ele>61.18</ele><time>2026-04-19T09:25:23Z</time></trkpt><trkpt lat="60.2195791528" lon="29.3771111593"><ele>61.18</ele><time>2026-04-19T09:25:31Z</time></trkpt><trkpt lat="60.2194983512" lon="29.3772742711"><ele>61.18</ele><time>2026-04-19T09:25:46Z</time></trkpt><trkpt lat="60.2194600459" lon="29.3773599342"><ele>61.18</ele><time>2026-04-19T09:25:59Z</time></trkpt><trkpt lat="60.2194286976" lon="29.3775288295"><ele>61.18</ele><time>2026-04-19T09:26:14Z</time></trkpt><trkpt lat="60.2194110118" lon="29.3776322622"><ele>61.18</ele><time>2026-04-19T09:26:34Z</time></trkpt><trkpt lat="60.2193948347" lon="29.3776713219"><ele>60.70</ele><time>2026-04-19T09:26:53Z</time></trkpt><trkpt lat="60.2193615586" lon="29.3777599186"><ele>60.70</ele><time>2026-04-19T09:27:06Z</time></trkpt><trkpt lat="60.2193134464" lon="29.3779027462"><ele>60.70</ele><time>2026-04-19T09:27:21Z</time></trkpt><trkpt lat="60.2192980237" lon="29.3780447356"><ele>60.70</ele><time>2026-04-19T09:27:37Z</time></trkpt><trkpt lat="60.2192543540" lon="29.3782221805"><ele>60.70</ele><time>2026-04-19T09:27:52Z</time></trkpt><trkpt lat="60.2192655019" lon="29.3783103582"><ele>60.70</ele><time>2026-04-19T09:28:07Z</time></trkpt><trkpt lat="60.2192444634" lon="29.3784101028"><ele>60.70</ele><time>2026-04-19T09:28:22Z</time></trkpt><trkpt lat="60.2191889752" lon="29.3785614800"><ele>60.70</ele><time>2026-04-19T09:28:38Z</time></trkpt><trkpt lat="60.2191667631" lon="29.3786265235"><ele>60.70</ele><time>2026-04-19T09:28:55Z</time></trkpt><trkpt lat="60.2192014642" lon="29.3786643259"><ele>60.70</ele><time>2026-04-19T09:29:18Z</time></trkpt><trkpt lat="60.2192096785" lon="29.3785928283"><ele>60.70</ele><time>2026-04-19T09:29:33Z</time></trkpt><trkpt lat="60.2192276996" lon="29.3785629887"><ele>61.18</ele><time>2026-04-19T09:30:02Z</time></trkpt><trkpt lat="60.2192299627" lon="29.3785706162"><ele>61.18</ele><time>2026-04-19T09:30:29Z</time></trkpt><trkpt lat="60.2192318905" lon="29.3785796687"><ele>61.18</ele><time>2026-04-19T09:30:49Z</time></trkpt><trkpt lat="60.2192304656" lon="29.3785836082"><ele>61.18</ele><time>2026-04-19T09:31:20Z</time></trkpt><trkpt lat="60.2192306332" lon="29.3785929121"><ele>61.18</ele><time>2026-04-19T09:31:49Z</time></trkpt><trkpt lat="60.2192330640" lon="29.3785919063"><ele>61.18</ele><time>2026-04-19T09:32:25Z</time></trkpt><trkpt lat="60.2192307170" lon="29.3785731308"><ele>61.18</ele><time>2026-04-19T09:32:56Z</time></trkpt><trkpt lat="60.2192244306" lon="29.3785699457"><ele>61.18</ele><time>2026-04-19T09:33:20Z</time></trkpt><trkpt lat="60.2192214970" lon="29.3785370886"><ele>61.18</ele><time>2026-04-19T09:33:51Z</time></trkpt><trkpt lat="60.2192139532" lon="29.3785171397"><ele>61.18</ele><time>2026-04-19T09:34:24Z</time></trkpt><trkpt lat="60.2192061581" lon="29.3784993701"><ele>61.18</ele><time>2026-04-19T09:34:56Z</time></trkpt><trkpt lat="60.2192123607" lon="29.3784967717"><ele>61.18</ele><time>2026-04-19T09:35:24Z</time></trkpt><trkpt lat="60.2192150429" lon="29.3784903176"><ele>61.18</ele><time>2026-04-19T09:35:59Z</time></trkpt><trkpt lat="60.2192116063" lon="29.3784910720"><ele>61.18</ele><time>2026-04-19T09:36:31Z</time></trkpt><trkpt lat="60.2191825211" lon="29.3784719612"><ele>61.18</ele><time>2026-04-19T09:36:57Z</time></trkpt><trkpt lat="60.2190224268" lon="29.3784189876"><ele>61.18</ele><time>2026-04-19T09:37:10Z</time></trkpt><trkpt lat="60.2189295553" lon="29.3784411997"><ele>61.18</ele><time>2026-04-19T09:37:23Z</time></trkpt><trkpt lat="60.2188573033" lon="29.3784251064"><ele>61.18</ele><time>2026-04-19T09:37:37Z</time></trkpt><trkpt lat="60.2187558822" lon="29.3784344941"><ele>61.18</ele><time>2026-04-19T09:37:51Z</time></trkpt><trkpt lat="60.2186087798" lon="29.3784313090"><ele>61.18</ele><time>2026-04-19T09:38:05Z</time></trkpt><trkpt lat="60.2184744179" lon="29.3784784991"><ele>61.18</ele><time>2026-04-19T09:38:19Z</time></trkpt><trkpt lat="60.2183391340" lon="29.3784803431"><ele>61.18</ele><time>2026-04-19T09:38:32Z</time></trkpt><trkpt lat="60.2181810513" lon="29.3784999568"><ele>61.18</ele><time>2026-04-19T09:38:46Z</time></trkpt><trkpt lat="60.2180212922" lon="29.3785404414"><ele>61.18</ele><time>2026-04-19T09:39:02Z</time></trkpt><trkpt lat="60.2179110702" lon="29.3786021322"><ele>60.22</ele><time>2026-04-19T09:39:13Z</time></trkpt><trkpt lat="60.2177384868" lon="29.3786442094"><ele>60.22</ele><time>2026-04-19T09:39:28Z</time></trkpt><trkpt lat="60.2176364791" lon="29.3786747195"><ele>59.74</ele><time>2026-04-19T09:39:41Z</time></trkpt><trkpt lat="60.2176323719" lon="29.3786682654"><ele>59.74</ele><time>2026-04-19T09:40:08Z</time></trkpt><trkpt lat="60.2176353894" lon="29.3786736298"><ele>59.74</ele><time>2026-04-19T09:40:32Z</time></trkpt><trkpt lat="60.2176244091" lon="29.3787012901"><ele>59.74</ele><time>2026-04-19T09:40:49Z</time></trkpt><trkpt lat="60.2175632212" lon="29.3788104225"><ele>59.26</ele><time>2026-04-19T09:41:02Z</time></trkpt><trkpt lat="60.2174890414" lon="29.3789097480"><ele>59.26</ele><time>2026-04-19T09:41:12Z</time></trkpt><trkpt lat="60.2173905540" lon="29.3790876120"><ele>58.78</ele><time>2026-04-19T09:41:25Z</time></trkpt><trkpt lat="60.2173238341" lon="29.3792456109"><ele>58.78</ele><time>2026-04-19T09:41:37Z</time></trkpt><trkpt lat="60.2173179667" lon="29.3792613689"><ele>58.78</ele><time>2026-04-19T09:41:38Z</time></trkpt><trkpt lat="60.2173021249" lon="29.3793527316"><ele>58.78</ele><time>2026-04-19T09:41:43Z</time></trkpt><trkpt lat="60.2172566112" lon="29.3794756103"><ele>58.78</ele><time>2026-04-19T09:41:55Z</time></trkpt><trkpt lat="60.2171925735" lon="29.3796166778"><ele>58.78</ele><time>2026-04-19T09:42:09Z</time></trkpt><trkpt lat="60.2171312179" lon="29.3797387183"><ele>58.78</ele><time>2026-04-19T09:42:19Z</time></trkpt><trkpt lat="60.2170666773" lon="29.3798522931"><ele>58.78</ele><time>2026-04-19T09:42:33Z</time></trkpt><trkpt lat="60.2170642465" lon="29.3798670452"><ele>58.78</ele><time>2026-04-19T09:42:34Z</time></trkpt><trkpt lat="60.2170302160" lon="29.3799978029"><ele>58.78</ele><time>2026-04-19T09:42:41Z</time></trkpt><trkpt lat="60.2169868816" lon="29.3801228609"><ele>58.78</ele><time>2026-04-19T09:42:49Z</time></trkpt><trkpt lat="60.2169645857" lon="29.3801858928"><ele>58.78</ele><time>2026-04-19T09:42:59Z</time></trkpt><trkpt lat="60.2169349138" lon="29.3802808598"><ele>58.78</ele><time>2026-04-19T09:43:04Z</time></trkpt><trkpt lat="60.2168930881" lon="29.3803628348"><ele>58.30</ele><time>2026-04-19T09:43:15Z</time></trkpt><trkpt lat="60.2168791741" lon="29.3803858012"><ele>58.30</ele><time>2026-04-19T09:43:19Z</time></trkpt><trkpt lat="60.2168525197" lon="29.3804492522"><ele>58.30</ele><time>2026-04-19T09:43:23Z</time></trkpt><trkpt lat="60.2168376837" lon="29.3805060815"><ele>58.30</ele><time>2026-04-19T09:43:26Z</time></trkpt><trkpt lat="60.2167948522" lon="29.3806915730"><ele>58.30</ele><time>2026-04-19T09:43:38Z</time></trkpt><trkpt lat="60.2167595644" lon="29.3807474803"><ele>58.30</ele><time>2026-04-19T09:43:50Z</time></trkpt><trkpt lat="60.2167530265" lon="29.3807715364"><ele>58.30</ele><time>2026-04-19T09:43:53Z</time></trkpt><trkpt lat="60.2166786790" lon="29.3809786532"><ele>58.30</ele><time>2026-04-19T09:44:04Z</time></trkpt><trkpt lat="60.2165925968" lon="29.3812265061"><ele>57.82</ele><time>2026-04-19T09:44:18Z</time></trkpt><trkpt lat="60.2165228594" lon="29.3813435175"><ele>57.82</ele><time>2026-04-19T09:44:29Z</time></trkpt><trkpt lat="60.2164843027" lon="29.3813662324"><ele>57.82</ele><time>2026-04-19T09:44:44Z</time></trkpt><trkpt lat="60.2164126374" lon="29.3812989257"><ele>57.82</ele><time>2026-04-19T09:45:01Z</time></trkpt><trkpt lat="60.2163257170" lon="29.3812376540"><ele>57.82</ele><time>2026-04-19T09:45:16Z</time></trkpt><trkpt lat="60.2163103782" lon="29.3812333792"><ele>57.82</ele><time>2026-04-19T09:45:19Z</time></trkpt><trkpt lat="60.2162090410" lon="29.3811861891"><ele>57.82</ele><time>2026-04-19T09:45:30Z</time></trkpt><trkpt lat="60.2160646208" lon="29.3810440321"><ele>57.82</ele><time>2026-04-19T09:45:46Z</time></trkpt><trkpt lat="60.2160265669" lon="29.3810192216"><ele>57.82</ele><time>2026-04-19T09:45:50Z</time></trkpt><trkpt lat="60.2158300113" lon="29.3808927387"><ele>57.82</ele><time>2026-04-19T09:46:07Z</time></trkpt><trkpt lat="60.2157243993" lon="29.3809314631"><ele>57.82</ele><time>2026-04-19T09:46:19Z</time></trkpt><trkpt lat="60.2156664804" lon="29.3809701037"><ele>57.82</ele><time>2026-04-19T09:46:33Z</time></trkpt><trkpt lat="60.2155477088" lon="29.3811020348"><ele>57.82</ele><time>2026-04-19T09:46:48Z</time></trkpt><trkpt lat="60.2154333796" lon="29.3813069724"><ele>57.82</ele><time>2026-04-19T09:47:04Z</time></trkpt><trkpt lat="60.2153796516" lon="29.3814060465"><ele>57.82</ele><time>2026-04-19T09:47:23Z</time></trkpt><trkpt lat="60.2153355628" lon="29.3815680686"><ele>57.34</ele><time>2026-04-19T09:47:36Z</time></trkpt><trkpt lat="60.2153072320" lon="29.3817192782"><ele>57.34</ele><time>2026-04-19T09:47:49Z</time></trkpt><trkpt lat="60.2152734529" lon="29.3818471022"><ele>56.86</ele><time>2026-04-19T09:48:02Z</time></trkpt><trkpt lat="60.2151935734" lon="29.3819711544"><ele>57.34</ele><time>2026-04-19T09:48:14Z</time></trkpt><trkpt lat="60.2151898853" lon="29.3820434064"><ele>57.34</ele><time>2026-04-19T09:48:18Z</time></trkpt><trkpt lat="60.2151416894" lon="29.3822705559"><ele>57.34</ele><time>2026-04-19T09:48:32Z</time></trkpt><trkpt lat="60.2151198965" lon="29.3823313247"><ele>57.34</ele><time>2026-04-19T09:48:35Z</time></trkpt><trkpt lat="60.2150460519" lon="29.3825810216"><ele>57.34</ele><time>2026-04-19T09:48:49Z</time></trkpt><trkpt lat="60.2149966825" lon="29.3826967757"><ele>57.34</ele><time>2026-04-19T09:48:59Z</time></trkpt><trkpt lat="60.2149770688" lon="29.3827458937"><ele>57.34</ele><time>2026-04-19T09:49:04Z</time></trkpt><trkpt lat="60.2149696928" lon="29.3828026392"><ele>57.34</ele><time>2026-04-19T09:49:07Z</time></trkpt><trkpt lat="60.2149452176" lon="29.3829120230"><ele>57.34</ele><time>2026-04-19T09:49:13Z</time></trkpt><trkpt lat="60.2149226703" lon="29.3830190599"><ele>57.34</ele><time>2026-04-19T09:49:20Z</time></trkpt><trkpt lat="60.2148536034" lon="29.3832416832"><ele>56.86</ele><time>2026-04-19T09:49:35Z</time></trkpt><trkpt lat="60.2148314752" lon="29.3833562639"><ele>56.86</ele><time>2026-04-19T09:49:40Z</time></trkpt><trkpt lat="60.2148090117" lon="29.3836285919"><ele>56.86</ele><time>2026-04-19T09:49:57Z</time></trkpt><trkpt lat="60.2148211654" lon="29.3836394046"><ele>56.86</ele><time>2026-04-19T09:50:21Z</time></trkpt><trkpt lat="60.2148303017" lon="29.3836492952"><ele>57.34</ele><time>2026-04-19T09:50:57Z</time></trkpt><trkpt lat="60.2148157172" lon="29.3836672325"><ele>57.34</ele><time>2026-04-19T09:51:28Z</time></trkpt><trkpt lat="60.2148093469" lon="29.3836821523"><ele>56.86</ele><time>2026-04-19T09:51:55Z</time></trkpt><trkpt lat="60.2148062456" lon="29.3836827390"><ele>56.37</ele><time>2026-04-19T09:52:27Z</time></trkpt><trkpt lat="60.2148014680" lon="29.3836797215"><ele>56.37</ele><time>2026-04-19T09:52:55Z</time></trkpt><trkpt lat="60.2147932537" lon="29.3836860918"><ele>56.37</ele><time>2026-04-19T09:53:26Z</time></trkpt><trkpt lat="60.2147903200" lon="29.3836954795"><ele>56.37</ele><time>2026-04-19T09:53:57Z</time></trkpt><trkpt lat="60.2147741430" lon="29.3836788833"><ele>56.86</ele><time>2026-04-19T09:54:32Z</time></trkpt><trkpt lat="60.2147802617" lon="29.3836881872"><ele>56.86</ele><time>2026-04-19T09:55:04Z</time></trkpt><trkpt lat="60.2147847880" lon="29.3836922944"><ele>56.86</ele><time>2026-04-19T09:55:44Z</time></trkpt><trkpt lat="60.2147749811" lon="29.3836967368"><ele>56.86</ele><time>2026-04-19T09:56:11Z</time></trkpt><trkpt lat="60.2147666831" lon="29.3837089743"><ele>56.86</ele><time>2026-04-19T09:56:37Z</time></trkpt><trkpt lat="60.2147637494" lon="29.3837264925"><ele>57.82</ele><time>2026-04-19T09:57:11Z</time></trkpt><trkpt lat="60.2147600614" lon="29.3837350421"><ele>57.82</ele><time>2026-04-19T09:57:49Z</time></trkpt><trkpt lat="60.2147584688" lon="29.3837444298"><ele>57.82</ele><time>2026-04-19T09:58:24Z</time></trkpt><trkpt lat="60.2147697005" lon="29.3837683182"><ele>57.82</ele><time>2026-04-19T09:59:01Z</time></trkpt><trkpt lat="60.2147658449" lon="29.3837757781"><ele>57.82</ele><time>2026-04-19T09:59:43Z</time></trkpt><trkpt lat="60.2147661801" lon="29.3837766163"><ele>57.82</ele><time>2026-04-19T10:00:23Z</time></trkpt><trkpt lat="60.2147671022" lon="29.3837733474"><ele>58.30</ele><time>2026-04-19T10:00:44Z</time></trkpt><trkpt lat="60.2147665992" lon="29.3837632891"><ele>58.78</ele><time>2026-04-19T10:01:08Z</time></trkpt><trkpt lat="60.2147637494" lon="29.3837579247"><ele>58.78</ele><time>2026-04-19T10:01:34Z</time></trkpt><trkpt lat="60.2147652581" lon="29.3837576732"><ele>58.78</ele><time>2026-04-19T10:02:03Z</time></trkpt><trkpt lat="60.2147601452" lon="29.3837585114"><ele>58.78</ele><time>2026-04-19T10:02:24Z</time></trkpt><trkpt lat="60.2147503383" lon="29.3838040251"><ele>58.78</ele><time>2026-04-19T10:02:40Z</time></trkpt><trkpt lat="60.2147519309" lon="29.3838111497"><ele>58.78</ele><time>2026-04-19T10:02:42Z</time></trkpt><trkpt lat="60.2146982029" lon="29.3839403149"><ele>58.78</ele><time>2026-04-19T10:02:59Z</time></trkpt><trkpt lat="60.2147127874" lon="29.3840424065"><ele>57.82</ele><time>2026-04-19T10:03:16Z</time></trkpt><trkpt lat="60.2147190738" lon="29.3841112219"><ele>57.82</ele><time>2026-04-19T10:03:32Z</time></trkpt><trkpt lat="60.2147210855" lon="29.3841408100"><ele>57.34</ele><time>2026-04-19T10:03:54Z</time></trkpt><trkpt lat="60.2147204150" lon="29.3841829710"><ele>57.34</ele><time>2026-04-19T10:04:20Z</time></trkpt><trkpt lat="60.2146835346" lon="29.3842480145"><ele>57.34</ele><time>2026-04-19T10:04:38Z</time></trkpt><trkpt lat="60.2146881446" lon="29.3842678796"><ele>57.82</ele><time>2026-04-19T10:04:58Z</time></trkpt><trkpt lat="60.2146355901" lon="29.3843622599"><ele>57.82</ele><time>2026-04-19T10:05:17Z</time></trkpt><trkpt lat="60.2145790961" lon="29.3844490964"><ele>56.86</ele><time>2026-04-19T10:05:34Z</time></trkpt><trkpt lat="60.2145500947" lon="29.3845418841"><ele>56.86</ele><time>2026-04-19T10:05:53Z</time></trkpt><trkpt lat="60.2145445626" lon="29.3847312313"><ele>56.86</ele><time>2026-04-19T10:06:09Z</time></trkpt><trkpt lat="60.2145299781" lon="29.3848375138"><ele>57.34</ele><time>2026-04-19T10:06:29Z</time></trkpt><trkpt lat="60.2144773398" lon="29.3849547766"><ele>57.34</ele><time>2026-04-19T10:06:44Z</time></trkpt><trkpt lat="60.2144752443" lon="29.3850277830"><ele>56.86</ele><time>2026-04-19T10:07:02Z</time></trkpt><trkpt lat="60.2144472487" lon="29.3851448782"><ele>56.86</ele><time>2026-04-19T10:07:22Z</time></trkpt><trkpt lat="60.2144371904" lon="29.3852169625"><ele>56.86</ele><time>2026-04-19T10:07:41Z</time></trkpt><trkpt lat="60.2144086082" lon="29.3852718640"><ele>56.86</ele><time>2026-04-19T10:07:57Z</time></trkpt><trkpt lat="60.2143463306" lon="29.3853991851"><ele>56.86</ele><time>2026-04-19T10:08:12Z</time></trkpt><trkpt lat="60.2143262140" lon="29.3855260871"><ele>56.86</ele><time>2026-04-19T10:08:33Z</time></trkpt><trkpt lat="60.2142935246" lon="29.3856677413"><ele>56.86</ele><time>2026-04-19T10:08:48Z</time></trkpt><trkpt lat="60.2143246215" lon="29.3857403286"><ele>56.86</ele><time>2026-04-19T10:09:12Z</time></trkpt><trkpt lat="60.2142890822" lon="29.3858407438"><ele>57.34</ele><time>2026-04-19T10:09:32Z</time></trkpt><trkpt lat="60.2142832149" lon="29.3859106489"><ele>57.34</ele><time>2026-04-19T10:09:45Z</time></trkpt><trkpt lat="60.2142377011" lon="29.3860855792"><ele>57.34</ele><time>2026-04-19T10:10:02Z</time></trkpt><trkpt lat="60.2142074425" lon="29.3862528820"><ele>57.34</ele><time>2026-04-19T10:10:16Z</time></trkpt><trkpt lat="60.2141853143" lon="29.3863493577"><ele>57.34</ele><time>2026-04-19T10:10:30Z</time></trkpt><trkpt lat="60.2141337655" lon="29.3864843063"><ele>57.34</ele><time>2026-04-19T10:10:47Z</time></trkpt><trkpt lat="60.2141013276" lon="29.3866589013"><ele>57.34</ele><time>2026-04-19T10:11:05Z</time></trkpt><trkpt lat="60.2141226176" lon="29.3866989668"><ele>56.86</ele><time>2026-04-19T10:11:22Z</time></trkpt><trkpt lat="60.2141211927" lon="29.3867391162"><ele>56.86</ele><time>2026-04-19T10:11:56Z</time></trkpt><trkpt lat="60.2141204383" lon="29.3867838755"><ele>56.86</ele><time>2026-04-19T10:12:13Z</time></trkpt><trkpt lat="60.2141149063" lon="29.3869155552"><ele>56.86</ele><time>2026-04-19T10:12:30Z</time></trkpt><trkpt lat="60.2140945382" lon="29.3870237656"><ele>56.86</ele><time>2026-04-19T10:12:50Z</time></trkpt><trkpt lat="60.2140613459" lon="29.3870661780"><ele>56.86</ele><time>2026-04-19T10:13:14Z</time></trkpt><trkpt lat="60.2140496951" lon="29.3870964367"><ele>56.86</ele><time>2026-04-19T10:13:31Z</time></trkpt><trkpt lat="60.2140333503" lon="29.3870979454"><ele>56.86</ele><time>2026-04-19T10:13:59Z</time></trkpt><trkpt lat="60.2140377928" lon="29.3872152921"><ele>56.86</ele><time>2026-04-19T10:14:16Z</time></trkpt><trkpt lat="60.2140236273" lon="29.3872455508"><ele>56.86</ele><time>2026-04-19T10:14:45Z</time></trkpt><trkpt lat="60.2140237950" lon="29.3872453831"><ele>57.34</ele><time>2026-04-19T10:15:15Z</time></trkpt><trkpt lat="60.2140014153" lon="29.3872816768"><ele>57.34</ele><time>2026-04-19T10:15:33Z</time></trkpt><trkpt lat="60.2140288241" lon="29.3872573692"><ele>57.34</ele><time>2026-04-19T10:15:56Z</time></trkpt><trkpt lat="60.2140466776" lon="29.3871832732"><ele>57.34</ele><time>2026-04-19T10:16:16Z</time></trkpt><trkpt lat="60.2140635252" lon="29.3871185649"><ele>56.86</ele><time>2026-04-19T10:16:44Z</time></trkpt><trkpt lat="60.2140851505" lon="29.3871252704"><ele>56.86</ele><time>2026-04-19T10:17:15Z</time></trkpt><trkpt lat="60.2140701469" lon="29.3871241808"><ele>56.86</ele><time>2026-04-19T10:17:47Z</time></trkpt><trkpt lat="60.2140602563" lon="29.3871255219"><ele>56.86</ele><time>2026-04-19T10:18:23Z</time></trkpt><trkpt lat="60.2140459232" lon="29.3871314730"><ele>56.86</ele><time>2026-04-19T10:18:52Z</time></trkpt><trkpt lat="60.2140455041" lon="29.3871286232"><ele>56.86</ele><time>2026-04-19T10:19:26Z</time></trkpt><trkpt lat="60.2140472643" lon="29.3871064950"><ele>56.86</ele><time>2026-04-19T10:20:02Z</time></trkpt><trkpt lat="60.2140470129" lon="29.3870896474"><ele>56.86</ele><time>2026-04-19T10:20:36Z</time></trkpt><trkpt lat="60.2140474319" lon="29.3871018011"><ele>56.37</ele><time>2026-04-19T10:21:10Z</time></trkpt><trkpt lat="60.2140481025" lon="29.3871204089"><ele>56.37</ele><time>2026-04-19T10:21:47Z</time></trkpt><trkpt lat="60.2140509523" lon="29.3871186487"><ele>56.37</ele><time>2026-04-19T10:22:20Z</time></trkpt><trkpt lat="60.2140538022" lon="29.3871241808"><ele>56.37</ele><time>2026-04-19T10:22:49Z</time></trkpt><trkpt lat="60.2140524611" lon="29.3871222530"><ele>56.37</ele><time>2026-04-19T10:23:24Z</time></trkpt><trkpt lat="60.2140504494" lon="29.3871259410"><ele>56.37</ele><time>2026-04-19T10:23:52Z</time></trkpt><trkpt lat="60.2140511200" lon="29.3871194869"><ele>56.37</ele><time>2026-04-19T10:24:18Z</time></trkpt><trkpt lat="60.2140455879" lon="29.3871211633"><ele>56.37</ele><time>2026-04-19T10:24:46Z</time></trkpt><trkpt lat="60.2140429057" lon="29.3871365022"><ele>56.37</ele><time>2026-04-19T10:25:23Z</time></trkpt><trkpt lat="60.2140471805" lon="29.3871436268"><ele>56.37</ele><time>2026-04-19T10:25:54Z</time></trkpt><trkpt lat="60.2140543889" lon="29.3871665932"><ele>56.37</ele><time>2026-04-19T10:26:33Z</time></trkpt><trkpt lat="60.2140702307" lon="29.3871645816"><ele>56.37</ele><time>2026-04-19T10:27:07Z</time></trkpt><trkpt lat="60.2140848152" lon="29.3871633243"><ele>55.89</ele><time>2026-04-19T10:27:43Z</time></trkpt><trkpt lat="60.2140823007" lon="29.3871574569"><ele>55.89</ele><time>2026-04-19T10:28:19Z</time></trkpt><trkpt lat="60.2140758466" lon="29.3871470634"><ele>55.89</ele><time>2026-04-19T10:28:49Z</time></trkpt><trkpt lat="60.2140598372" lon="29.3871510029"><ele>55.89</ele><time>2026-04-19T10:29:26Z</time></trkpt><trkpt lat="60.2140573226" lon="29.3871525954"><ele>56.86</ele><time>2026-04-19T10:29:49Z</time></trkpt><trkpt lat="60.2140576579" lon="29.3871533498"><ele>56.86</ele><time>2026-04-19T10:30:09Z</time></trkpt><trkpt lat="60.2140061930" lon="29.3871045671"><ele>56.86</ele><time>2026-04-19T10:30:27Z</time></trkpt><trkpt lat="60.2138896007" lon="29.3870709557"><ele>56.86</ele><time>2026-04-19T10:30:49Z</time></trkpt><trkpt lat="60.2137839887" lon="29.3870816845"><ele>56.86</ele><time>2026-04-19T10:31:11Z</time></trkpt><trkpt lat="60.2137583401" lon="29.3870769907"><ele>56.86</ele><time>2026-04-19T10:31:35Z</time></trkpt><trkpt lat="60.2137264051" lon="29.3871101830"><ele>56.86</ele><time>2026-04-19T10:31:56Z</time></trkpt><trkpt lat="60.2137227170" lon="29.3871395197"><ele>56.86</ele><time>2026-04-19T10:32:24Z</time></trkpt><trkpt lat="60.2136643790" lon="29.3871465605"><ele>56.86</ele><time>2026-04-19T10:32:45Z</time></trkpt><trkpt lat="60.2136202902" lon="29.3872015458"><ele>57.34</ele><time>2026-04-19T10:33:04Z</time></trkpt><trkpt lat="60.2136178594" lon="29.3872821797"><ele>57.82</ele><time>2026-04-19T10:33:19Z</time></trkpt><trkpt lat="60.2136066277" lon="29.3874589540"><ele>57.82</ele><time>2026-04-19T10:33:38Z</time></trkpt><trkpt lat="60.2136087231" lon="29.3874750473"><ele>58.30</ele><time>2026-04-19T10:33:58Z</time></trkpt><trkpt lat="60.2135550790" lon="29.3876592815"><ele>58.30</ele><time>2026-04-19T10:34:15Z</time></trkpt><trkpt lat="60.2135707531" lon="29.3878477067"><ele>58.30</ele><time>2026-04-19T10:34:32Z</time></trkpt><trkpt lat="60.2135572582" lon="29.3879545759"><ele>58.78</ele><time>2026-04-19T10:34:45Z</time></trkpt><trkpt lat="60.2135311067" lon="29.3879744411"><ele>59.26</ele><time>2026-04-19T10:35:05Z</time></trkpt><trkpt lat="60.2135292627" lon="29.3880285043"><ele>59.26</ele><time>2026-04-19T10:35:20Z</time></trkpt><trkpt lat="60.2135153487" lon="29.3881395645"><ele>59.26</ele><time>2026-04-19T10:35:41Z</time></trkpt><trkpt lat="60.2135023568" lon="29.3882766087"><ele>59.74</ele><time>2026-04-19T10:36:00Z</time></trkpt><trkpt lat="60.2134295180" lon="29.3884541374"><ele>58.78</ele><time>2026-04-19T10:36:16Z</time></trkpt><trkpt lat="60.2133663185" lon="29.3886738271"><ele>58.78</ele><time>2026-04-19T10:36:32Z</time></trkpt><trkpt lat="60.2133389097" lon="29.3887311593"><ele>59.26</ele><time>2026-04-19T10:36:53Z</time></trkpt><trkpt lat="60.2133337967" lon="29.3888119608"><ele>59.26</ele><time>2026-04-19T10:37:15Z</time></trkpt><trkpt lat="60.2133217268" lon="29.3888401240"><ele>59.74</ele><time>2026-04-19T10:37:40Z</time></trkpt><trkpt lat="60.2132726088" lon="29.3888582289"><ele>59.74</ele><time>2026-04-19T10:38:00Z</time></trkpt><trkpt lat="60.2132541686" lon="29.3888847157"><ele>59.74</ele><time>2026-04-19T10:38:24Z</time></trkpt><trkpt lat="60.2132582758" lon="29.3888658565"><ele>60.22</ele><time>2026-04-19T10:38:46Z</time></trkpt><trkpt lat="60.2132615447" lon="29.3888700474"><ele>60.22</ele><time>2026-04-19T10:39:05Z</time></trkpt><trkpt lat="60.2132716868" lon="29.3888638448"><ele>60.22</ele><time>2026-04-19T10:39:28Z</time></trkpt><trkpt lat="60.2132658195" lon="29.3888188340"><ele>60.22</ele><time>2026-04-19T10:39:53Z</time></trkpt><trkpt lat="60.2132681664" lon="29.3887399603"><ele>60.22</ele><time>2026-04-19T10:40:24Z</time></trkpt><trkpt lat="60.2132622153" lon="29.3887250405"><ele>60.22</ele><time>2026-04-19T10:40:57Z</time></trkpt><trkpt lat="60.2132557612" lon="29.3887422234"><ele>60.22</ele><time>2026-04-19T10:41:26Z</time></trkpt><trkpt lat="60.2132595330" lon="29.3887520302"><ele>60.22</ele><time>2026-04-19T10:41:42Z</time></trkpt><trkpt lat="60.2132275142" lon="29.3888614140"><ele>60.70</ele><time>2026-04-19T10:41:59Z</time></trkpt><trkpt lat="60.2131848503" lon="29.3890286330"><ele>60.70</ele><time>2026-04-19T10:42:17Z</time></trkpt><trkpt lat="60.2131754626" lon="29.3891761545"><ele>60.70</ele><time>2026-04-19T10:42:33Z</time></trkpt><trkpt lat="60.2131633926" lon="29.3893222511"><ele>60.70</ele><time>2026-04-19T10:42:50Z</time></trkpt><trkpt lat="60.2131609619" lon="29.3894219119"><ele>60.70</ele><time>2026-04-19T10:43:06Z</time></trkpt><trkpt lat="60.2131417673" lon="29.3895236682"><ele>61.18</ele><time>2026-04-19T10:43:22Z</time></trkpt><trkpt lat="60.2131409291" lon="29.3895614706"><ele>61.18</ele><time>2026-04-19T10:43:44Z</time></trkpt><trkpt lat="60.2131429408" lon="29.3895775639"><ele>61.18</ele><time>2026-04-19T10:44:04Z</time></trkpt><trkpt lat="60.2131303679" lon="29.3896251731"><ele>61.18</ele><time>2026-04-19T10:44:17Z</time></trkpt><trkpt lat="60.2131202258" lon="29.3896488938"><ele>61.66</ele><time>2026-04-19T10:44:35Z</time></trkpt><trkpt lat="60.2131049708" lon="29.3897599541"><ele>61.66</ele><time>2026-04-19T10:44:50Z</time></trkpt><trkpt lat="60.2130666655" lon="29.3898679130"><ele>61.66</ele><time>2026-04-19T10:45:12Z</time></trkpt><trkpt lat="60.2130282763" lon="29.3901850004"><ele>61.66</ele><time>2026-04-19T10:45:30Z</time></trkpt><trkpt lat="60.2129908092" lon="29.3902959768"><ele>61.66</ele><time>2026-04-19T10:45:47Z</time></trkpt><trkpt lat="60.2129753027" lon="29.3903973140"><ele>62.14</ele><time>2026-04-19T10:46:08Z</time></trkpt><trkpt lat="60.2129589580" lon="29.3905068655"><ele>62.14</ele><time>2026-04-19T10:46:23Z</time></trkpt><trkpt lat="60.2129582036" lon="29.3906496931"><ele>62.14</ele><time>2026-04-19T10:46:43Z</time></trkpt><trkpt lat="60.2129783202" lon="29.3907506950"><ele>62.14</ele><time>2026-04-19T10:47:00Z</time></trkpt><trkpt lat="60.2129788231" lon="29.3909392040"><ele>62.62</ele><time>2026-04-19T10:47:16Z</time></trkpt><trkpt lat="60.2129742969" lon="29.3910064269"><ele>62.14</ele><time>2026-04-19T10:47:36Z</time></trkpt><trkpt lat="60.2129467204" lon="29.3910449836"><ele>62.62</ele><time>2026-04-19T10:47:53Z</time></trkpt><trkpt lat="60.2128984407" lon="29.3911265396"><ele>62.62</ele><time>2026-04-19T10:48:11Z</time></trkpt><trkpt lat="60.2128914837" lon="29.3912168965"><ele>62.62</ele><time>2026-04-19T10:48:26Z</time></trkpt><trkpt lat="60.2128575370" lon="29.3913427927"><ele>62.62</ele><time>2026-04-19T10:48:41Z</time></trkpt><trkpt lat="60.2128175553" lon="29.3914111890"><ele>62.62</ele><time>2026-04-19T10:48:58Z</time></trkpt><trkpt lat="60.2128018811" lon="29.3914427888"><ele>63.10</ele><time>2026-04-19T10:49:17Z</time></trkpt><trkpt lat="60.2128059883" lon="29.3915652484"><ele>63.10</ele><time>2026-04-19T10:49:33Z</time></trkpt><trkpt lat="60.2127770707" lon="29.3916642386"><ele>63.10</ele><time>2026-04-19T10:49:50Z</time></trkpt><trkpt lat="60.2127408609" lon="29.3918504845"><ele>63.10</ele><time>2026-04-19T10:50:08Z</time></trkpt><trkpt lat="60.2126886416" lon="29.3920774665"><ele>63.10</ele><time>2026-04-19T10:50:25Z</time></trkpt><trkpt lat="60.2126523480" lon="29.3923061248"><ele>63.58</ele><time>2026-04-19T10:50:42Z</time></trkpt><trkpt lat="60.2126220893" lon="29.3924296740"><ele>62.62</ele><time>2026-04-19T10:51:01Z</time></trkpt><trkpt lat="60.2126391046" lon="29.3924797978"><ele>63.10</ele><time>2026-04-19T10:51:22Z</time></trkpt><trkpt lat="60.2125877235" lon="29.3924739305"><ele>63.10</ele><time>2026-04-19T10:51:35Z</time></trkpt><trkpt lat="60.2125813533" lon="29.3925924506"><ele>63.10</ele><time>2026-04-19T10:51:53Z</time></trkpt><trkpt lat="60.2125641704" lon="29.3926823884"><ele>63.10</ele><time>2026-04-19T10:52:09Z</time></trkpt><trkpt lat="60.2126052417" lon="29.3928060215"><ele>63.10</ele><time>2026-04-19T10:52:27Z</time></trkpt><trkpt lat="60.2126427088" lon="29.3928439915"><ele>63.10</ele><time>2026-04-19T10:52:45Z</time></trkpt><trkpt lat="60.2126608137" lon="29.3928144872"><ele>63.58</ele><time>2026-04-19T10:53:11Z</time></trkpt><trkpt lat="60.2127069980" lon="29.3929308280"><ele>63.58</ele><time>2026-04-19T10:53:26Z</time></trkpt><trkpt lat="60.2127818484" lon="29.3931280542"><ele>63.58</ele><time>2026-04-19T10:53:41Z</time></trkpt><trkpt lat="60.2128234226" lon="29.3932162318"><ele>63.58</ele><time>2026-04-19T10:53:57Z</time></trkpt><trkpt lat="60.2128465567" lon="29.3933066726"><ele>63.58</ele><time>2026-04-19T10:54:13Z</time></trkpt><trkpt lat="60.2129424457" lon="29.3936494924"><ele>63.58</ele><time>2026-04-19T10:54:30Z</time></trkpt><trkpt lat="60.2129475586" lon="29.3937030528"><ele>63.58</ele><time>2026-04-19T10:54:46Z</time></trkpt><trkpt lat="60.2129665017" lon="29.3939060625"><ele>63.10</ele><time>2026-04-19T10:55:03Z</time></trkpt><trkpt lat="60.2129855286" lon="29.3940366525"><ele>63.10</ele><time>2026-04-19T10:55:19Z</time></trkpt><trkpt lat="60.2129825950" lon="29.3941549212"><ele>63.10</ele><time>2026-04-19T10:55:37Z</time></trkpt><trkpt lat="60.2129824273" lon="29.3942710105"><ele>62.62</ele><time>2026-04-19T10:55:52Z</time></trkpt><trkpt lat="60.2129828464" lon="29.3943085615"><ele>62.62</ele><time>2026-04-19T10:56:21Z</time></trkpt><trkpt lat="60.2129748836" lon="29.3943174463"><ele>62.62</ele><time>2026-04-19T10:56:45Z</time></trkpt><trkpt lat="60.2129656635" lon="29.3943201285"><ele>62.62</ele><time>2026-04-19T10:57:13Z</time></trkpt><trkpt lat="60.2129680943" lon="29.3943254091"><ele>63.10</ele><time>2026-04-19T10:57:37Z</time></trkpt><trkpt lat="60.2129594609" lon="29.3943253253"><ele>63.10</ele><time>2026-04-19T10:57:55Z</time></trkpt><trkpt lat="60.2129495703" lon="29.3943607807"><ele>62.62</ele><time>2026-04-19T10:58:27Z</time></trkpt><trkpt lat="60.2129494864" lon="29.3943513092"><ele>62.62</ele><time>2026-04-19T10:58:58Z</time></trkpt><trkpt lat="60.2129473072" lon="29.3943483755"><ele>62.62</ele><time>2026-04-19T10:59:22Z</time></trkpt><trkpt lat="60.2129442897" lon="29.3943368923"><ele>62.62</ele><time>2026-04-19T10:59:45Z</time></trkpt><trkpt lat="60.2129423618" lon="29.3943405803"><ele>62.62</ele><time>2026-04-19T11:00:11Z</time></trkpt><trkpt lat="60.2129397634" lon="29.3943328690"><ele>62.62</ele><time>2026-04-19T11:00:37Z</time></trkpt><trkpt lat="60.2129432000" lon="29.3943344615"><ele>62.62</ele><time>2026-04-19T11:00:57Z</time></trkpt><trkpt lat="60.2129439544" lon="29.3943261635"><ele>62.14</ele><time>2026-04-19T11:01:15Z</time></trkpt><trkpt lat="60.2129369974" lon="29.3942958210"><ele>62.14</ele><time>2026-04-19T11:01:37Z</time></trkpt><trkpt lat="60.2129432838" lon="29.3942940608"><ele>62.14</ele><time>2026-04-19T11:01:58Z</time></trkpt><trkpt lat="60.2129479777" lon="29.3943036161"><ele>62.14</ele><time>2026-04-19T11:02:18Z</time></trkpt><trkpt lat="60.2129545156" lon="29.3943276722"><ele>61.66</ele><time>2026-04-19T11:02:45Z</time></trkpt><trkpt lat="60.2129744645" lon="29.3943641335"><ele>61.66</ele><time>2026-04-19T11:03:08Z</time></trkpt><trkpt lat="60.2130724490" lon="29.3944335356"><ele>61.66</ele><time>2026-04-19T11:03:18Z</time></trkpt><trkpt lat="60.2132187970" lon="29.3944630399"><ele>61.66</ele><time>2026-04-19T11:03:30Z</time></trkpt><trkpt lat="60.2133425139" lon="29.3945463561"><ele>61.66</ele><time>2026-04-19T11:03:44Z</time></trkpt><trkpt lat="60.2134582680" lon="29.3945456855"><ele>61.18</ele><time>2026-04-19T11:03:57Z</time></trkpt><trkpt lat="60.2135907859" lon="29.3945317715"><ele>61.18</ele><time>2026-04-19T11:04:09Z</time></trkpt><trkpt lat="60.2137300093" lon="29.3945511337"><ele>61.18</ele><time>2026-04-19T11:04:21Z</time></trkpt><trkpt lat="60.2138501219" lon="29.3945397343"><ele>60.70</ele><time>2026-04-19T11:04:33Z</time></trkpt><trkpt lat="60.2138619404" lon="29.3945476972"><ele>60.70</ele><time>2026-04-19T11:04:35Z</time></trkpt><trkpt lat="60.2139559016" lon="29.3945400696"><ele>60.70</ele><time>2026-04-19T11:04:44Z</time></trkpt><trkpt lat="60.2141406387" lon="29.3945247307"><ele>60.70</ele><time>2026-04-19T11:05:01Z</time></trkpt><trkpt lat="60.2142498549" lon="29.3945150077"><ele>60.22</ele><time>2026-04-19T11:05:13Z</time></trkpt><trkpt lat="60.2144051716" lon="29.3945462722"><ele>60.22</ele><time>2026-04-19T11:05:26Z</time></trkpt><trkpt lat="60.2145927586" lon="29.3945587613"><ele>59.74</ele><time>2026-04-19T11:05:38Z</time></trkpt><trkpt lat="60.2147294674" lon="29.3946524709"><ele>59.74</ele><time>2026-04-19T11:05:49Z</time></trkpt><trkpt lat="60.2148815989" lon="29.3947139941"><ele>59.26</ele><time>2026-04-19T11:06:02Z</time></trkpt></trkseg><trkseg><trkpt lat="60.2149714530" lon="29.3947463483"><ele>59.26</ele><time>2026-04-19T11:06:09Z</time></trkpt></trkseg><trkseg><trkpt lat="59.0641213115" lon="30.0381042715"><ele>182.79</ele><time>2026-04-25T07:42:07Z</time></trkpt><trkpt lat="59.0641328786" lon="30.0380570814"><ele>181.83</ele><time>2026-04-25T07:42:21Z</time></trkpt><trkpt lat="59.0641270112" lon="30.0380209554"><ele>180.38</ele><time>2026-04-25T07:42:45Z</time></trkpt><trkpt lat="59.0641137678" lon="30.0379902776"><ele>180.38</ele><time>2026-04-25T07:42:51Z</time></trkpt><trkpt lat="59.0641458705" lon="30.0381347816"><ele>179.42</ele><time>2026-04-25T07:43:02Z</time></trkpt><trkpt lat="59.0641798172" lon="30.0381657947"><ele>179.42</ele><time>2026-04-25T07:43:07Z</time></trkpt><trkpt lat="59.0642151050" lon="30.0380978175"><ele>178.46</ele><time>2026-04-25T07:43:19Z</time></trkpt><trkpt lat="59.0642277617" lon="30.0379951391"><ele>178.46</ele><time>2026-04-25T07:43:25Z</time></trkpt><trkpt lat="59.0642152727" lon="30.0376937259"><ele>177.02</ele><time>2026-04-25T07:43:37Z</time></trkpt><trkpt lat="59.0642169490" lon="30.0376787223"><ele>177.02</ele><time>2026-04-25T07:43:38Z</time></trkpt><trkpt lat="59.0641933959" lon="30.0374197215"><ele>176.54</ele><time>2026-04-25T07:43:51Z</time></trkpt><trkpt lat="59.0641999338" lon="30.0373212341"><ele>176.06</ele><time>2026-04-25T07:43:55Z</time></trkpt><trkpt lat="59.0642042086" lon="30.0372562744"><ele>176.06</ele><time>2026-04-25T07:43:58Z</time></trkpt><trkpt lat="59.0641861875" lon="30.0372282788"><ele>176.06</ele><time>2026-04-25T07:44:01Z</time></trkpt><trkpt lat="59.0641738661" lon="30.0370283704"><ele>175.58</ele><time>2026-04-25T07:44:12Z</time></trkpt><trkpt lat="59.0641560126" lon="30.0369013846"><ele>175.10</ele><time>2026-04-25T07:44:21Z</time></trkpt><trkpt lat="59.0641571023" lon="30.0367833674"><ele>174.62</ele><time>2026-04-25T07:44:31Z</time></trkpt><trkpt lat="59.0641406737" lon="30.0365345087"><ele>173.66</ele><time>2026-04-25T07:44:42Z</time></trkpt><trkpt lat="59.0641593654" lon="30.0364294834"><ele>173.17</ele><time>2026-04-25T07:44:55Z</time></trkpt><trkpt lat="59.0641753748" lon="30.0363563094"><ele>172.69</ele><time>2026-04-25T07:45:06Z</time></trkpt><trkpt lat="59.0642130934" lon="30.0362905953"><ele>172.21</ele><time>2026-04-25T07:45:13Z</time></trkpt><trkpt lat="59.0642502252" lon="30.0362119731"><ele>171.73</ele><time>2026-04-25T07:45:23Z</time></trkpt><trkpt lat="59.0642892011" lon="30.0362083688"><ele>170.77</ele><time>2026-04-25T07:45:34Z</time></trkpt><trkpt lat="59.0643229801" lon="30.0362221152"><ele>170.77</ele><time>2026-04-25T07:45:38Z</time></trkpt><trkpt lat="59.0643942263" lon="30.0362809561"><ele>170.29</ele><time>2026-04-25T07:45:48Z</time></trkpt><trkpt lat="59.0644740220" lon="30.0363389589"><ele>169.33</ele><time>2026-04-25T07:46:00Z</time></trkpt><trkpt lat="59.0644863434" lon="30.0363402162"><ele>168.37</ele><time>2026-04-25T07:46:24Z</time></trkpt><trkpt lat="59.0645018499" lon="30.0363499392"><ele>167.41</ele><time>2026-04-25T07:46:43Z</time></trkpt><trkpt lat="59.0645194519" lon="30.0363682117"><ele>166.45</ele><time>2026-04-25T07:46:59Z</time></trkpt><trkpt lat="59.0645440947" lon="30.0363924354"><ele>165.48</ele><time>2026-04-25T07:47:19Z</time></trkpt><trkpt lat="59.0645804722" lon="30.0363637693"><ele>165.00</ele><time>2026-04-25T07:47:33Z</time></trkpt><trkpt lat="59.0645931289" lon="30.0363557227"><ele>164.52</ele><time>2026-04-25T07:47:38Z</time></trkpt><trkpt lat="59.0646251477" lon="30.0362895057"><ele>164.52</ele><time>2026-04-25T07:47:42Z</time></trkpt><trkpt lat="59.0647128224" lon="30.0361944549"><ele>163.56</ele><time>2026-04-25T07:47:53Z</time></trkpt><trkpt lat="59.0647681430" lon="30.0361484382"><ele>163.08</ele><time>2026-04-25T07:48:03Z</time></trkpt><trkpt lat="59.0648095496" lon="30.0360989012"><ele>163.08</ele><time>2026-04-25T07:48:11Z</time></trkpt><trkpt lat="59.0649184305" lon="30.0360435806"><ele>161.64</ele><time>2026-04-25T07:48:21Z</time></trkpt><trkpt lat="59.0650040936" lon="30.0359961390"><ele>161.16</ele><time>2026-04-25T07:48:31Z</time></trkpt><trkpt lat="59.0650667064" lon="30.0359166786"><ele>160.68</ele><time>2026-04-25T07:48:42Z</time></trkpt><trkpt lat="59.0651101246" lon="30.0359190255"><ele>160.20</ele><time>2026-04-25T07:48:51Z</time></trkpt><trkpt lat="59.0651977994" lon="30.0359521341"><ele>159.72</ele><time>2026-04-25T07:49:00Z</time></trkpt><trkpt lat="59.0653149784" lon="30.0359564926"><ele>159.24</ele><time>2026-04-25T07:49:10Z</time></trkpt><trkpt lat="59.0653984621" lon="30.0359478593"><ele>158.75</ele><time>2026-04-25T07:49:21Z</time></trkpt><trkpt lat="59.0654708818" lon="30.0359288324"><ele>158.75</ele><time>2026-04-25T07:49:29Z</time></trkpt><trkpt lat="59.0655256156" lon="30.0358985737"><ele>158.27</ele><time>2026-04-25T07:49:37Z</time></trkpt><trkpt lat="59.0655593108" lon="30.0358585082"><ele>157.31</ele><time>2026-04-25T07:49:56Z</time></trkpt><trkpt lat="59.0655884799" lon="30.0358433370"><ele>156.83</ele><time>2026-04-25T07:50:14Z</time></trkpt><trkpt lat="59.0656078421" lon="30.0358326081"><ele>155.87</ele><time>2026-04-25T07:50:31Z</time></trkpt><trkpt lat="59.0656289645" lon="30.0358143356"><ele>155.87</ele><time>2026-04-25T07:50:34Z</time></trkpt><trkpt lat="59.0656687785" lon="30.0357860047"><ele>155.87</ele><time>2026-04-25T07:50:39Z</time></trkpt><trkpt lat="59.0657687746" lon="30.0357181113"><ele>155.39</ele><time>2026-04-25T07:50:50Z</time></trkpt><trkpt lat="59.0658354945" lon="30.0357122440"><ele>154.91</ele><time>2026-04-25T07:51:00Z</time></trkpt><trkpt lat="59.0658958443" lon="30.0356735196"><ele>154.43</ele><time>2026-04-25T07:51:10Z</time></trkpt><trkpt lat="59.0659619775" lon="30.0356369745"><ele>153.95</ele><time>2026-04-25T07:51:19Z</time></trkpt><trkpt lat="59.0660405997" lon="30.0356910378"><ele>153.95</ele><time>2026-04-25T07:51:29Z</time></trkpt><trkpt lat="59.0661244188" lon="30.0356412493"><ele>153.47</ele><time>2026-04-25T07:51:40Z</time></trkpt><trkpt lat="59.0662349761" lon="30.0355549157"><ele>152.51</ele><time>2026-04-25T07:51:53Z</time></trkpt><trkpt lat="59.0662421845" lon="30.0355538260"><ele>152.51</ele><time>2026-04-25T07:51:55Z</time></trkpt><trkpt lat="59.0663230699" lon="30.0355886947"><ele>152.03</ele><time>2026-04-25T07:52:07Z</time></trkpt><trkpt lat="59.0663427673" lon="30.0356753636"><ele>151.54</ele><time>2026-04-25T07:52:17Z</time></trkpt><trkpt lat="59.0663468745" lon="30.0356723461"><ele>151.54</ele><time>2026-04-25T07:52:19Z</time></trkpt><trkpt lat="59.0663959086" lon="30.0356744416"><ele>151.54</ele><time>2026-04-25T07:52:23Z</time></trkpt><trkpt lat="59.0664954856" lon="30.0356660597"><ele>151.06</ele><time>2026-04-25T07:52:36Z</time></trkpt><trkpt lat="59.0665549971" lon="30.0356780458"><ele>150.58</ele><time>2026-04-25T07:52:45Z</time></trkpt><trkpt lat="59.0665625408" lon="30.0356833264"><ele>151.06</ele><time>2026-04-25T07:53:04Z</time></trkpt><trkpt lat="59.0665811487" lon="30.0356779620"><ele>150.10</ele><time>2026-04-25T07:53:21Z</time></trkpt><trkpt lat="59.0665948950" lon="30.0356679037"><ele>149.62</ele><time>2026-04-25T07:53:42Z</time></trkpt><trkpt lat="59.0666407440" lon="30.0356335379"><ele>149.14</ele><time>2026-04-25T07:53:53Z</time></trkpt><trkpt lat="59.0666655544" lon="30.0355525687"><ele>149.14</ele><time>2026-04-25T07:53:58Z</time></trkpt><trkpt lat="59.0666889399" lon="30.0354353059"><ele>148.66</ele><time>2026-04-25T07:54:04Z</time></trkpt><trkpt lat="59.0666987468" lon="30.0354104955"><ele>148.66</ele><time>2026-04-25T07:54:06Z</time></trkpt><trkpt lat="59.0667886008" lon="30.0352958310"><ele>148.18</ele><time>2026-04-25T07:54:16Z</time></trkpt><trkpt lat="59.0668186918" lon="30.0350947492"><ele>148.18</ele><time>2026-04-25T07:54:28Z</time></trkpt><trkpt lat="59.0668654628" lon="30.0350796618"><ele>147.70</ele><time>2026-04-25T07:54:38Z</time></trkpt><trkpt lat="59.0669117309" lon="30.0350804161"><ele>147.22</ele><time>2026-04-25T07:54:47Z</time></trkpt><trkpt lat="59.0669772774" lon="30.0351706892"><ele>146.74</ele><time>2026-04-25T07:54:57Z</time></trkpt><trkpt lat="59.0670120623" lon="30.0352292787"><ele>146.26</ele><time>2026-04-25T07:55:08Z</time></trkpt><trkpt lat="59.0670215338" lon="30.0353204738"><ele>146.26</ele><time>2026-04-25T07:55:17Z</time></trkpt><trkpt lat="59.0670460928" lon="30.0354418438"><ele>145.78</ele><time>2026-04-25T07:55:25Z</time></trkpt><trkpt lat="59.0670774411" lon="30.0354873575"><ele>145.78</ele><time>2026-04-25T07:55:30Z</time></trkpt><trkpt lat="59.0671188477" lon="30.0354628824"><ele>145.30</ele><time>2026-04-25T07:55:41Z</time></trkpt><trkpt lat="59.0671911836" lon="30.0354385749"><ele>144.82</ele><time>2026-04-25T07:55:52Z</time></trkpt><trkpt lat="59.0672120545" lon="30.0354252476"><ele>144.82</ele><time>2026-04-25T07:55:55Z</time></trkpt><trkpt lat="59.0672913473" lon="30.0353844278"><ele>144.34</ele><time>2026-04-25T07:56:05Z</time></trkpt><trkpt lat="59.0673216898" lon="30.0353910495"><ele>143.37</ele><time>2026-04-25T07:56:27Z</time></trkpt><trkpt lat="59.0673321672" lon="30.0353780575"><ele>142.89</ele><time>2026-04-25T07:56:46Z</time></trkpt><trkpt lat="59.0673465841" lon="30.0353641436"><ele>142.41</ele><time>2026-04-25T07:57:03Z</time></trkpt><trkpt lat="59.0673485957" lon="30.0353689212"><ele>141.45</ele><time>2026-04-25T07:57:21Z</time></trkpt><trkpt lat="59.0673501045" lon="30.0353669096"><ele>140.97</ele><time>2026-04-25T07:57:38Z</time></trkpt><trkpt lat="59.0673613362" lon="30.0353959110"><ele>140.49</ele><time>2026-04-25T07:57:54Z</time></trkpt><trkpt lat="59.0673604980" lon="30.0353631377"><ele>140.01</ele><time>2026-04-25T07:58:18Z</time></trkpt><trkpt lat="59.0673703887" lon="30.0353270117"><ele>140.01</ele><time>2026-04-25T07:58:20Z</time></trkpt><trkpt lat="59.0674247034" lon="30.0352745410"><ele>139.53</ele><time>2026-04-25T07:58:29Z</time></trkpt><trkpt lat="59.0674596559" lon="30.0352514908"><ele>139.05</ele><time>2026-04-25T07:58:38Z</time></trkpt><trkpt lat="59.0674700495" lon="30.0353120919"><ele>139.05</ele><time>2026-04-25T07:58:42Z</time></trkpt><trkpt lat="59.0675243642" lon="30.0353141874"><ele>138.57</ele><time>2026-04-25T07:58:53Z</time></trkpt><trkpt lat="59.0675407927" lon="30.0353317056"><ele>138.57</ele><time>2026-04-25T07:58:59Z</time></trkpt><trkpt lat="59.0675697103" lon="30.0352699310"><ele>138.09</ele><time>2026-04-25T07:59:09Z</time></trkpt><trkpt lat="59.0676112007" lon="30.0352093298"><ele>138.09</ele><time>2026-04-25T07:59:18Z</time></trkpt><trkpt lat="59.0677173994" lon="30.0351463817"><ele>137.61</ele><time>2026-04-25T07:59:28Z</time></trkpt><trkpt lat="59.0677805990" lon="30.0350945815"><ele>137.13</ele><time>2026-04-25T07:59:38Z</time></trkpt><trkpt lat="59.0678523481" lon="30.0349525921"><ele>137.13</ele><time>2026-04-25T07:59:49Z</time></trkpt><trkpt lat="59.0679012146" lon="30.0348489080"><ele>136.64</ele><time>2026-04-25T07:59:59Z</time></trkpt><trkpt lat="59.0679767355" lon="30.0348328985"><ele>136.16</ele><time>2026-04-25T08:00:11Z</time></trkpt><trkpt lat="59.0680246800" lon="30.0348836929"><ele>135.68</ele><time>2026-04-25T08:00:23Z</time></trkpt><trkpt lat="59.0680613089" lon="30.0348980259"><ele>135.20</ele><time>2026-04-25T08:00:33Z</time></trkpt><trkpt lat="59.0680636559" lon="30.0348955113"><ele>135.20</ele><time>2026-04-25T08:00:39Z</time></trkpt><trkpt lat="59.0681191441" lon="30.0349393487"><ele>134.72</ele><time>2026-04-25T08:00:48Z</time></trkpt><trkpt lat="59.0681528393" lon="30.0349091738"><ele>134.24</ele><time>2026-04-25T08:01:00Z</time></trkpt><trkpt lat="59.0682465490" lon="30.0349054858"><ele>134.24</ele><time>2026-04-25T08:01:12Z</time></trkpt><trkpt lat="59.0683057252" lon="30.0347893964"><ele>133.76</ele><time>2026-04-25T08:01:23Z</time></trkpt><trkpt lat="59.0683246683" lon="30.0347498339"><ele>133.28</ele><time>2026-04-25T08:01:29Z</time></trkpt><trkpt lat="59.0684148576" lon="30.0347050745"><ele>133.28</ele><time>2026-04-25T08:01:40Z</time></trkpt><trkpt lat="59.0685096569" lon="30.0348122790"><ele>132.80</ele><time>2026-04-25T08:01:50Z</time></trkpt><trkpt lat="59.0685170330" lon="30.0348158833"><ele>132.80</ele><time>2026-04-25T08:01:51Z</time></trkpt><trkpt lat="59.0685330424" lon="30.0348374248"><ele>132.80</ele><time>2026-04-25T08:01:53Z</time></trkpt><trkpt lat="59.0685710125" lon="30.0348297972"><ele>132.32</ele><time>2026-04-25T08:02:08Z</time></trkpt><trkpt lat="59.0685742814" lon="30.0348317251"><ele>131.84</ele><time>2026-04-25T08:02:27Z</time></trkpt><trkpt lat="59.0685823280" lon="30.0348038971"><ele>131.36</ele><time>2026-04-25T08:02:43Z</time></trkpt><trkpt lat="59.0686176997" lon="30.0347710401"><ele>130.88</ele><time>2026-04-25T08:02:53Z</time></trkpt><trkpt lat="59.0686269198" lon="30.0347698666"><ele>130.88</ele><time>2026-04-25T08:02:54Z</time></trkpt><trkpt lat="59.0687171929" lon="30.0346598122"><ele>130.40</ele><time>2026-04-25T08:03:05Z</time></trkpt><trkpt lat="59.0687658079" lon="30.0346081797"><ele>130.40</ele><time>2026-04-25T08:03:12Z</time></trkpt><trkpt lat="59.0688126627" lon="30.0346218422"><ele>129.92</ele><time>2026-04-25T08:03:17Z</time></trkpt><trkpt lat="59.0689014271" lon="30.0345892366"><ele>129.92</ele><time>2026-04-25T08:03:29Z</time></trkpt><trkpt lat="59.0689624473" lon="30.0346461497"><ele>129.43</ele><time>2026-04-25T08:03:39Z</time></trkpt><trkpt lat="59.0690152533" lon="30.0346559566"><ele>128.95</ele><time>2026-04-25T08:03:50Z</time></trkpt><trkpt lat="59.0690331906" lon="30.0346445572"><ele>128.95</ele><time>2026-04-25T08:03:53Z</time></trkpt><trkpt lat="59.0691228770" lon="30.0345780887"><ele>128.47</ele><time>2026-04-25T08:04:03Z</time></trkpt><trkpt lat="59.0691401437" lon="30.0345565472"><ele>128.47</ele><time>2026-04-25T08:04:14Z</time></trkpt><trkpt lat="59.0691755153" lon="30.0343734864"><ele>127.99</ele><time>2026-04-25T08:04:25Z</time></trkpt><trkpt lat="59.0692133177" lon="30.0343818683"><ele>127.51</ele><time>2026-04-25T08:04:35Z</time></trkpt><trkpt lat="59.0692965500" lon="30.0343632605"><ele>127.51</ele><time>2026-04-25T08:04:45Z</time></trkpt><trkpt lat="59.0693493560" lon="30.0343009830"><ele>127.03</ele><time>2026-04-25T08:04:55Z</time></trkpt><trkpt lat="59.0693611745" lon="30.0343179144"><ele>126.55</ele><time>2026-04-25T08:05:12Z</time></trkpt><trkpt lat="59.0693688858" lon="30.0342606660"><ele>126.07</ele><time>2026-04-25T08:05:27Z</time></trkpt><trkpt lat="59.0693659522" lon="30.0342444051"><ele>125.59</ele><time>2026-04-25T08:05:43Z</time></trkpt><trkpt lat="59.0693739988" lon="30.0341585744"><ele>125.11</ele><time>2026-04-25T08:05:55Z</time></trkpt><trkpt lat="59.0694266371" lon="30.0341262203"><ele>125.59</ele><time>2026-04-25T08:06:07Z</time></trkpt><trkpt lat="59.0694605000" lon="30.0341045950"><ele>125.11</ele><time>2026-04-25T08:06:18Z</time></trkpt><trkpt lat="59.0695019066" lon="30.0341093726"><ele>124.63</ele><time>2026-04-25T08:06:29Z</time></trkpt><trkpt lat="59.0695656091" lon="30.0341402180"><ele>124.63</ele><time>2026-04-25T08:06:39Z</time></trkpt><trkpt lat="59.0696300659" lon="30.0342256296"><ele>124.15</ele><time>2026-04-25T08:06:50Z</time></trkpt><trkpt lat="59.0696478356" lon="30.0342967082"><ele>124.15</ele><time>2026-04-25T08:06:55Z</time></trkpt><trkpt lat="59.0697100293" lon="30.0343863107"><ele>123.67</ele><time>2026-04-25T08:07:08Z</time></trkpt><trkpt lat="59.0697485860" lon="30.0343257934"><ele>123.19</ele><time>2026-04-25T08:07:19Z</time></trkpt><trkpt lat="59.0697976202" lon="30.0342267193"><ele>123.19</ele><time>2026-04-25T08:07:30Z</time></trkpt><trkpt lat="59.0698292200" lon="30.0342081953"><ele>122.71</ele><time>2026-04-25T08:07:39Z</time></trkpt><trkpt lat="59.0698681958" lon="30.0341412239"><ele>122.22</ele><time>2026-04-25T08:07:50Z</time></trkpt><trkpt lat="59.0699231811" lon="30.0341190957"><ele>122.22</ele><time>2026-04-25T08:08:01Z</time></trkpt><trkpt lat="59.0699984506" lon="30.0341693871"><ele>121.74</ele><time>2026-04-25T08:08:11Z</time></trkpt><trkpt lat="59.0700570401" lon="30.0342719816"><ele>121.26</ele><time>2026-04-25T08:08:24Z</time></trkpt><trkpt lat="59.0701141208" lon="30.0342166610"><ele>121.26</ele><time>2026-04-25T08:08:34Z</time></trkpt><trkpt lat="59.0701640770" lon="30.0341682136"><ele>120.78</ele><time>2026-04-25T08:08:44Z</time></trkpt><trkpt lat="59.0701655857" lon="30.0341493543"><ele>120.78</ele><time>2026-04-25T08:08:57Z</time></trkpt><trkpt lat="59.0701671783" lon="30.0341203529"><ele>120.78</ele><time>2026-04-25T08:09:13Z</time></trkpt><trkpt lat="59.0701800864" lon="30.0341090374"><ele>120.30</ele><time>2026-04-25T08:09:27Z</time></trkpt><trkpt lat="59.0701800026" lon="30.0341086183"><ele>120.30</ele><time>2026-04-25T08:09:28Z</time></trkpt><trkpt lat="59.0702429507" lon="30.0341274776"><ele>119.82</ele><time>2026-04-25T08:09:39Z</time></trkpt><trkpt lat="59.0702776518" lon="30.0341014937"><ele>119.82</ele><time>2026-04-25T08:09:49Z</time></trkpt><trkpt lat="59.0703644883" lon="30.0339958817"><ele>119.82</ele><time>2026-04-25T08:10:02Z</time></trkpt><trkpt lat="59.0704256762" lon="30.0339797884"><ele>119.82</ele><time>2026-04-25T08:10:13Z</time></trkpt><trkpt lat="59.0704281908" lon="30.0339822192"><ele>119.82</ele><time>2026-04-25T08:10:14Z</time></trkpt><trkpt lat="59.0704726987" lon="30.0340254698"><ele>119.34</ele><time>2026-04-25T08:10:25Z</time></trkpt><trkpt lat="59.0705309529" lon="30.0340786949"><ele>118.86</ele><time>2026-04-25T08:10:35Z</time></trkpt><trkpt lat="59.0705887880" lon="30.0340710673"><ele>118.86</ele><time>2026-04-25T08:10:45Z</time></trkpt><trkpt lat="59.0706695896" lon="30.0340561476"><ele>118.38</ele><time>2026-04-25T08:10:55Z</time></trkpt><trkpt lat="59.0707474574" lon="30.0339615159"><ele>117.90</ele><time>2026-04-25T08:11:07Z</time></trkpt><trkpt lat="59.0708429273" lon="30.0338955503"><ele>117.90</ele><time>2026-04-25T08:11:18Z</time></trkpt><trkpt lat="59.0709363017" lon="30.0338236336"><ele>117.42</ele><time>2026-04-25T08:11:31Z</time></trkpt><trkpt lat="59.0710156783" lon="30.0338191073"><ele>116.94</ele><time>2026-04-25T08:11:46Z</time></trkpt><trkpt lat="59.0711005870" lon="30.0338181853"><ele>116.46</ele><time>2026-04-25T08:12:05Z</time></trkpt><trkpt lat="59.0711383056" lon="30.0338134076"><ele>115.98</ele><time>2026-04-25T08:12:24Z</time></trkpt><trkpt lat="59.0711971465" lon="30.0337933749"><ele>115.50</ele><time>2026-04-25T08:12:35Z</time></trkpt><trkpt lat="59.0712738410" lon="30.0337240566"><ele>115.50</ele><time>2026-04-25T08:12:45Z</time></trkpt><trkpt lat="59.0713760164" lon="30.0336381420"><ele>115.98</ele><time>2026-04-25T08:12:58Z</time></trkpt><trkpt lat="59.0713964682" lon="30.0336440094"><ele>115.98</ele><time>2026-04-25T08:13:01Z</time></trkpt><trkpt lat="59.0715007391" lon="30.0337134954"><ele>115.50</ele><time>2026-04-25T08:13:12Z</time></trkpt><trkpt lat="59.0715906769" lon="30.0338310935"><ele>115.50</ele><time>2026-04-25T08:13:23Z</time></trkpt><trkpt lat="59.0716433153" lon="30.0337564945"><ele>115.01</ele><time>2026-04-25T08:13:32Z</time></trkpt><trkpt lat="59.0717048384" lon="30.0336050335"><ele>114.53</ele><time>2026-04-25T08:13:44Z</time></trkpt><trkpt lat="59.0717454907" lon="30.0335211307"><ele>114.53</ele><time>2026-04-25T08:13:55Z</time></trkpt><trkpt lat="59.0718217660" lon="30.0334626250"><ele>114.53</ele><time>2026-04-25T08:14:05Z</time></trkpt><trkpt lat="59.0719040763" lon="30.0334443524"><ele>114.53</ele><time>2026-04-25T08:14:18Z</time></trkpt><trkpt lat="59.0719415434" lon="30.0334402453"><ele>113.57</ele><time>2026-04-25T08:14:41Z</time></trkpt><trkpt lat="59.0719854645" lon="30.0334280916"><ele>113.09</ele><time>2026-04-25T08:15:06Z</time></trkpt><trkpt lat="59.0720070899" lon="30.0333727710"><ele>112.61</ele><time>2026-04-25T08:15:29Z</time></trkpt><trkpt lat="59.0720302239" lon="30.0333762914"><ele>112.13</ele><time>2026-04-25T08:15:51Z</time></trkpt><trkpt lat="59.0720795095" lon="30.0334995892"><ele>112.13</ele><time>2026-04-25T08:16:02Z</time></trkpt><trkpt lat="59.0721070860" lon="30.0335722603"><ele>112.13</ele><time>2026-04-25T08:16:09Z</time></trkpt><trkpt lat="59.0721930005" lon="30.0337094720"><ele>112.13</ele><time>2026-04-25T08:16:20Z</time></trkpt><trkpt lat="59.0722587146" lon="30.0337310974"><ele>111.65</ele><time>2026-04-25T08:16:31Z</time></trkpt><trkpt lat="59.0722960979" lon="30.0337279961"><ele>111.65</ele><time>2026-04-25T08:16:41Z</time></trkpt><trkpt lat="59.0723582078" lon="30.0336553250"><ele>111.17</ele><time>2026-04-25T08:16:51Z</time></trkpt><trkpt lat="59.0724192280" lon="30.0335326977"><ele>111.17</ele><time>2026-04-25T08:17:02Z</time></trkpt><trkpt lat="59.0724894684" lon="30.0333500560"><ele>110.69</ele><time>2026-04-25T08:17:15Z</time></trkpt><trkpt lat="59.0725899674" lon="30.0332674943"><ele>110.21</ele><time>2026-04-25T08:17:28Z</time></trkpt><trkpt lat="59.0727598686" lon="30.0331521593"><ele>110.69</ele><time>2026-04-25T08:17:40Z</time></trkpt><trkpt lat="59.0728399996" lon="30.0331021193"><ele>110.69</ele><time>2026-04-25T08:17:50Z</time></trkpt><trkpt lat="59.0728628822" lon="30.0330653228"><ele>110.21</ele><time>2026-04-25T08:17:55Z</time></trkpt><trkpt lat="59.0729462821" lon="30.0330877025"><ele>110.21</ele><time>2026-04-25T08:18:05Z</time></trkpt><trkpt lat="59.0729527362" lon="30.0330980960"><ele>110.21</ele><time>2026-04-25T08:18:06Z</time></trkpt><trkpt lat="59.0729989205" lon="30.0331404246"><ele>109.73</ele><time>2026-04-25T08:18:18Z</time></trkpt><trkpt lat="59.0730213840" lon="30.0331447832"><ele>109.73</ele><time>2026-04-25T08:18:33Z</time></trkpt><trkpt lat="59.0730317775" lon="30.0331434421"><ele>109.25</ele><time>2026-04-25T08:18:55Z</time></trkpt><trkpt lat="59.0730352141" lon="30.0331533328"><ele>108.77</ele><time>2026-04-25T08:19:16Z</time></trkpt><trkpt lat="59.0730295144" lon="30.0331446994"><ele>109.25</ele><time>2026-04-25T08:19:37Z</time></trkpt><trkpt lat="59.0730146784" lon="30.0331957452"><ele>108.77</ele><time>2026-04-25T08:19:44Z</time></trkpt><trkpt lat="59.0730474517" lon="30.0334255770"><ele>108.77</ele><time>2026-04-25T08:19:57Z</time></trkpt><trkpt lat="59.0730457753" lon="30.0335482042"><ele>108.77</ele><time>2026-04-25T08:20:03Z</time></trkpt><trkpt lat="59.0730375610" lon="30.0337412395"><ele>108.29</ele><time>2026-04-25T08:20:14Z</time></trkpt><trkpt lat="59.0730202943" lon="30.0337881781"><ele>108.29</ele><time>2026-04-25T08:20:19Z</time></trkpt><trkpt lat="59.0730039496" lon="30.0338640343"><ele>108.29</ele><time>2026-04-25T08:20:25Z</time></trkpt><trkpt lat="59.0729630459" lon="30.0340036768"><ele>107.81</ele><time>2026-04-25T08:20:36Z</time></trkpt><trkpt lat="59.0729032829" lon="30.0341772661"><ele>107.81</ele><time>2026-04-25T08:20:46Z</time></trkpt><trkpt lat="59.0728988405" lon="30.0343148131"><ele>107.81</ele><time>2026-04-25T08:20:56Z</time></trkpt><trkpt lat="59.0728710964" lon="30.0346395280"><ele>107.32</ele><time>2026-04-25T08:21:09Z</time></trkpt><trkpt lat="59.0728635527" lon="30.0347146299"><ele>107.32</ele><time>2026-04-25T08:21:20Z</time></trkpt><trkpt lat="59.0729013551" lon="30.0348094292"><ele>107.32</ele><time>2026-04-25T08:21:31Z</time></trkpt><trkpt lat="59.0729435161" lon="30.0349236745"><ele>106.84</ele><time>2026-04-25T08:21:42Z</time></trkpt><trkpt lat="59.0729640517" lon="30.0349517539"><ele>106.84</ele><time>2026-04-25T08:21:58Z</time></trkpt><trkpt lat="59.0729815699" lon="30.0349905621"><ele>106.36</ele><time>2026-04-25T08:22:26Z</time></trkpt><trkpt lat="59.0729858447" lon="30.0350195635"><ele>105.88</ele><time>2026-04-25T08:22:49Z</time></trkpt><trkpt lat="59.0730264969" lon="30.0351174641"><ele>105.88</ele><time>2026-04-25T08:23:01Z</time></trkpt><trkpt lat="59.0730809793" lon="30.0352841802"><ele>105.88</ele><time>2026-04-25T08:23:14Z</time></trkpt><trkpt lat="59.0731323604" lon="30.0354342163"><ele>105.40</ele><time>2026-04-25T08:23:26Z</time></trkpt><trkpt lat="59.0731631219" lon="30.0355487131"><ele>105.40</ele><time>2026-04-25T08:23:37Z</time></trkpt><trkpt lat="59.0731327794" lon="30.0356405787"><ele>105.40</ele><time>2026-04-25T08:23:49Z</time></trkpt><trkpt lat="59.0731033590" lon="30.0356592704"><ele>105.40</ele><time>2026-04-25T08:23:56Z</time></trkpt><trkpt lat="59.0730140079" lon="30.0357471127"><ele>104.92</ele><time>2026-04-25T08:24:09Z</time></trkpt><trkpt lat="59.0730073862" lon="30.0359080452"><ele>104.92</ele><time>2026-04-25T08:24:22Z</time></trkpt><trkpt lat="59.0729987528" lon="30.0359525532"><ele>103.48</ele><time>2026-04-25T08:24:26Z</time></trkpt><trkpt lat="59.0729586873" lon="30.0360730849"><ele>103.00</ele><time>2026-04-25T08:24:41Z</time></trkpt><trkpt lat="59.0729290992" lon="30.0361206103"><ele>103.00</ele><time>2026-04-25T08:24:59Z</time></trkpt><trkpt lat="59.0729128383" lon="30.0361186825"><ele>102.52</ele><time>2026-04-25T08:25:20Z</time></trkpt><trkpt lat="59.0729078930" lon="30.0360924471"><ele>102.52</ele><time>2026-04-25T08:25:45Z</time></trkpt><trkpt lat="59.0728873573" lon="30.0361042656"><ele>102.04</ele><time>2026-04-25T08:26:03Z</time></trkpt><trkpt lat="59.0728712641" lon="30.0361273997"><ele>102.04</ele><time>2026-04-25T08:26:24Z</time></trkpt><trkpt lat="59.0728412569" lon="30.0361651182"><ele>101.56</ele><time>2026-04-25T08:26:38Z</time></trkpt><trkpt lat="59.0728012752" lon="30.0361985620"><ele>101.56</ele><time>2026-04-25T08:26:52Z</time></trkpt><trkpt lat="59.0727109183" lon="30.0363352709"><ele>101.56</ele><time>2026-04-25T08:27:05Z</time></trkpt><trkpt lat="59.0726167895" lon="30.0363849755"><ele>100.60</ele><time>2026-04-25T08:27:16Z</time></trkpt><trkpt lat="59.0726095811" lon="30.0363784377"><ele>100.60</ele><time>2026-04-25T08:27:18Z</time></trkpt><trkpt lat="59.0725665819" lon="30.0363744982"><ele>100.60</ele><time>2026-04-25T08:27:30Z</time></trkpt><trkpt lat="59.0725146141" lon="30.0364209339"><ele>100.60</ele><time>2026-04-25T08:27:42Z</time></trkpt><trkpt lat="59.0724268556" lon="30.0364152342"><ele>100.60</ele><time>2026-04-25T08:27:54Z</time></trkpt><trkpt lat="59.0723727923" lon="30.0363746658"><ele>100.11</ele><time>2026-04-25T08:28:02Z</time></trkpt><trkpt lat="59.0722798370" lon="30.0363338459"><ele>100.11</ele><time>2026-04-25T08:28:13Z</time></trkpt><trkpt lat="59.0722313896" lon="30.0363744143"><ele>100.11</ele><time>2026-04-25T08:28:24Z</time></trkpt><trkpt lat="59.0721305553" lon="30.0364416372"><ele>100.11</ele><time>2026-04-25T08:28:35Z</time></trkpt><trkpt lat="59.0720657632" lon="30.0364459120"><ele>99.63</ele><time>2026-04-25T08:28:47Z</time></trkpt><trkpt lat="59.0719639231" lon="30.0364895817"><ele>99.63</ele><time>2026-04-25T08:28:57Z</time></trkpt><trkpt lat="59.0719240252" lon="30.0364957843"><ele>99.63</ele><time>2026-04-25T08:29:12Z</time></trkpt><trkpt lat="59.0718906652" lon="30.0364920124"><ele>99.15</ele><time>2026-04-25T08:29:36Z</time></trkpt><trkpt lat="59.0718656033" lon="30.0365058426"><ele>99.15</ele><time>2026-04-25T08:29:54Z</time></trkpt><trkpt lat="59.0717672836" lon="30.0365417171"><ele>99.15</ele><time>2026-04-25T08:30:06Z</time></trkpt><trkpt lat="59.0717292298" lon="30.0365618337"><ele>99.15</ele><time>2026-04-25T08:30:09Z</time></trkpt><trkpt lat="59.0717094485" lon="30.0365916733"><ele>99.15</ele><time>2026-04-25T08:30:12Z</time></trkpt><trkpt lat="59.0716205165" lon="30.0366224349"><ele>98.67</ele><time>2026-04-25T08:30:23Z</time></trkpt><trkpt lat="59.0715096239" lon="30.0366464909"><ele>98.67</ele><time>2026-04-25T08:30:36Z</time></trkpt><trkpt lat="59.0714219492" lon="30.0366428029"><ele>99.63</ele><time>2026-04-25T08:30:48Z</time></trkpt><trkpt lat="59.0713737532" lon="30.0366465747"><ele>99.63</ele><time>2026-04-25T08:30:54Z</time></trkpt><trkpt lat="59.0712703206" lon="30.0366271287"><ele>99.63</ele><time>2026-04-25T08:31:05Z</time></trkpt><trkpt lat="59.0711885970" lon="30.0366121251"><ele>99.15</ele><time>2026-04-25T08:31:16Z</time></trkpt><trkpt lat="59.0711333603" lon="30.0366152264"><ele>99.15</ele><time>2026-04-25T08:31:26Z</time></trkpt><trkpt lat="59.0711108968" lon="30.0366342533"><ele>99.15</ele><time>2026-04-25T08:31:36Z</time></trkpt><trkpt lat="59.0710705798" lon="30.0366618298"><ele>99.15</ele><time>2026-04-25T08:31:42Z</time></trkpt><trkpt lat="59.0709290933" lon="30.0367799308"><ele>98.67</ele><time>2026-04-25T08:31:53Z</time></trkpt><trkpt lat="59.0709082223" lon="30.0367908273"><ele>98.67</ele><time>2026-04-25T08:31:55Z</time></trkpt><trkpt lat="59.0708223078" lon="30.0368413702"><ele>98.67</ele><time>2026-04-25T08:32:03Z</time></trkpt><trkpt lat="59.0707372315" lon="30.0368803460"><ele>98.67</ele><time>2026-04-25T08:32:09Z</time></trkpt><trkpt lat="59.0706194658" lon="30.0369841978"><ele>98.67</ele><time>2026-04-25T08:32:21Z</time></trkpt><trkpt lat="59.0705238283" lon="30.0370530970"><ele>98.67</ele><time>2026-04-25T08:32:32Z</time></trkpt><trkpt lat="59.0704242513" lon="30.0370332319"><ele>98.67</ele><time>2026-04-25T08:32:45Z</time></trkpt><trkpt lat="59.0703269374" lon="30.0370431226"><ele>98.19</ele><time>2026-04-25T08:33:01Z</time></trkpt><trkpt lat="59.0701768175" lon="30.0371375028"><ele>98.19</ele><time>2026-04-25T08:33:14Z</time></trkpt><trkpt lat="59.0701743029" lon="30.0371212419"><ele>98.19</ele><time>2026-04-25T08:33:32Z</time></trkpt><trkpt lat="59.0701340698" lon="30.0371964276"><ele>97.71</ele><time>2026-04-25T08:33:48Z</time></trkpt><trkpt lat="59.0700402763" lon="30.0372944120"><ele>96.75</ele><time>2026-04-25T08:34:01Z</time></trkpt><trkpt lat="59.0699729696" lon="30.0373063982"><ele>96.75</ele><time>2026-04-25T08:34:12Z</time></trkpt><trkpt lat="59.0699077584" lon="30.0372975972"><ele>96.75</ele><time>2026-04-25T08:34:25Z</time></trkpt><trkpt lat="59.0698286332" lon="30.0373427756"><ele>96.27</ele><time>2026-04-25T08:34:35Z</time></trkpt><trkpt lat="59.0697843768" lon="30.0373542588"><ele>96.27</ele><time>2026-04-25T08:34:44Z</time></trkpt><trkpt lat="59.0697213449" lon="30.0373640656"><ele>96.27</ele><time>2026-04-25T08:34:52Z</time></trkpt><trkpt lat="59.0696231090" lon="30.0374887884"><ele>96.27</ele><time>2026-04-25T08:35:04Z</time></trkpt><trkpt lat="59.0694878250" lon="30.0374347251"><ele>96.27</ele><time>2026-04-25T08:35:17Z</time></trkpt><trkpt lat="59.0694217756" lon="30.0373039674"><ele>95.79</ele><time>2026-04-25T08:35:28Z</time></trkpt><trkpt lat="59.0693995636" lon="30.0372968428"><ele>95.79</ele><time>2026-04-25T08:35:42Z</time></trkpt><trkpt lat="59.0693498589" lon="30.0373233296"><ele>95.79</ele><time>2026-04-25T08:35:52Z</time></trkpt><trkpt lat="59.0693309158" lon="30.0373241678"><ele>95.79</ele><time>2026-04-25T08:35:55Z</time></trkpt><trkpt lat="59.0691649541" lon="30.0373425242"><ele>95.79</ele><time>2026-04-25T08:36:06Z</time></trkpt><trkpt lat="59.0690452605" lon="30.0374739524"><ele>95.31</ele><time>2026-04-25T08:36:17Z</time></trkpt><trkpt lat="59.0689866710" lon="30.0375140179"><ele>95.31</ele><time>2026-04-25T08:36:28Z</time></trkpt><trkpt lat="59.0689632855" lon="30.0375213102"><ele>95.31</ele><time>2026-04-25T08:36:39Z</time></trkpt><trkpt lat="59.0689435042" lon="30.0375362299"><ele>95.31</ele><time>2026-04-25T08:36:59Z</time></trkpt><trkpt lat="59.0689358767" lon="30.0375378225"><ele>94.83</ele><time>2026-04-25T08:37:15Z</time></trkpt><trkpt lat="59.0689109825" lon="30.0374752935"><ele>94.83</ele><time>2026-04-25T08:37:24Z</time></trkpt><trkpt lat="59.0688932966" lon="30.0374812447"><ele>94.83</ele><time>2026-04-25T08:37:37Z</time></trkpt><trkpt lat="59.0688857529" lon="30.0374879502"><ele>94.83</ele><time>2026-04-25T08:37:46Z</time></trkpt><trkpt lat="59.0688711684" lon="30.0375254173"><ele>94.83</ele><time>2026-04-25T08:37:51Z</time></trkpt><trkpt lat="59.0688285884" lon="30.0375884492"><ele>94.35</ele><time>2026-04-25T08:38:02Z</time></trkpt><trkpt lat="59.0688188653" lon="30.0375982560"><ele>94.35</ele><time>2026-04-25T08:38:07Z</time></trkpt><trkpt lat="59.0687539894" lon="30.0376140978"><ele>94.35</ele><time>2026-04-25T08:38:17Z</time></trkpt><trkpt lat="59.0687068831" lon="30.0376220606"><ele>94.35</ele><time>2026-04-25T08:38:28Z</time></trkpt><trkpt lat="59.0686595254" lon="30.0376243237"><ele>94.35</ele><time>2026-04-25T08:38:37Z</time></trkpt><trkpt lat="59.0685782209" lon="30.0376609527"><ele>94.35</ele><time>2026-04-25T08:38:48Z</time></trkpt><trkpt lat="59.0684799012" lon="30.0376723520"><ele>94.35</ele><time>2026-04-25T08:38:58Z</time></trkpt><trkpt lat="59.0683845989" lon="30.0377042033"><ele>94.35</ele><time>2026-04-25T08:39:10Z</time></trkpt><trkpt lat="59.0683711879" lon="30.0377272535"><ele>94.35</ele><time>2026-04-25T08:39:12Z</time></trkpt><trkpt lat="59.0683077369" lon="30.0377899501"><ele>94.35</ele><time>2026-04-25T08:39:19Z</time></trkpt><trkpt lat="59.0682385024" lon="30.0378110725"><ele>93.87</ele><time>2026-04-25T08:39:31Z</time></trkpt><trkpt lat="59.0681689326" lon="30.0378725957"><ele>93.87</ele><time>2026-04-25T08:39:39Z</time></trkpt><trkpt lat="59.0681093372" lon="30.0378710870"><ele>95.31</ele><time>2026-04-25T08:39:50Z</time></trkpt><trkpt lat="59.0680856165" lon="30.0379000884"><ele>95.31</ele><time>2026-04-25T08:40:04Z</time></trkpt><trkpt lat="59.0680319723" lon="30.0378901977"><ele>95.31</ele><time>2026-04-25T08:40:25Z</time></trkpt><trkpt lat="59.0680159628" lon="30.0378909521"><ele>94.83</ele><time>2026-04-25T08:40:37Z</time></trkpt><trkpt lat="59.0679289587" lon="30.0379246473"><ele>94.83</ele><time>2026-04-25T08:40:49Z</time></trkpt><trkpt lat="59.0678553656" lon="30.0379228871"><ele>94.35</ele><time>2026-04-25T08:40:59Z</time></trkpt><trkpt lat="59.0677706245" lon="30.0379239768"><ele>93.87</ele><time>2026-04-25T08:41:09Z</time></trkpt><trkpt lat="59.0676676109" lon="30.0379459374"><ele>93.87</ele><time>2026-04-25T08:41:23Z</time></trkpt><trkpt lat="59.0676009748" lon="30.0379705802"><ele>93.87</ele><time>2026-04-25T08:41:33Z</time></trkpt><trkpt lat="59.0675805230" lon="30.0379674789"><ele>93.87</ele><time>2026-04-25T08:41:36Z</time></trkpt><trkpt lat="59.0675249510" lon="30.0380179379"><ele>93.87</ele><time>2026-04-25T08:41:42Z</time></trkpt><trkpt lat="59.0674695466" lon="30.0380322710"><ele>93.87</ele><time>2026-04-25T08:41:46Z</time></trkpt><trkpt lat="59.0673372801" lon="30.0380818918"><ele>93.87</ele><time>2026-04-25T08:41:55Z</time></trkpt><trkpt lat="59.0672947001" lon="30.0381298363"><ele>93.87</ele><time>2026-04-25T08:42:05Z</time></trkpt><trkpt lat="59.0672827978" lon="30.0381339435"><ele>93.87</ele><time>2026-04-25T08:42:09Z</time></trkpt><trkpt lat="59.0672532935" lon="30.0381010864"><ele>93.87</ele><time>2026-04-25T08:42:16Z</time></trkpt><trkpt lat="59.0672027506" lon="30.0380994100"><ele>93.39</ele><time>2026-04-25T08:42:30Z</time></trkpt><trkpt lat="59.0671398863" lon="30.0380735099"><ele>93.39</ele><time>2026-04-25T08:42:45Z</time></trkpt><trkpt lat="59.0670957137" lon="30.0380673911"><ele>92.90</ele><time>2026-04-25T08:43:02Z</time></trkpt><trkpt lat="59.0670743398" lon="30.0380673911"><ele>92.90</ele><time>2026-04-25T08:43:12Z</time></trkpt><trkpt lat="59.0670745075" lon="30.0380645413"><ele>92.90</ele><time>2026-04-25T08:43:24Z</time></trkpt><trkpt lat="59.0670341067" lon="30.0380810536"><ele>92.90</ele><time>2026-04-25T08:43:34Z</time></trkpt><trkpt lat="59.0669175144" lon="30.0380892679"><ele>92.90</ele><time>2026-04-25T08:43:43Z</time></trkpt><trkpt lat="59.0668574162" lon="30.0381015893"><ele>92.90</ele><time>2026-04-25T08:43:54Z</time></trkpt><trkpt lat="59.0668055322" lon="30.0382087938"><ele>92.90</ele><time>2026-04-25T08:44:00Z</time></trkpt><trkpt lat="59.0667630360" lon="30.0382595044"><ele>92.90</ele><time>2026-04-25T08:44:06Z</time></trkpt><trkpt lat="59.0667384770" lon="30.0382804591"><ele>92.42</ele><time>2026-04-25T08:44:10Z</time></trkpt><trkpt lat="59.0666813124" lon="30.0382641982"><ele>92.90</ele><time>2026-04-25T08:44:24Z</time></trkpt><trkpt lat="59.0666793007" lon="30.0382509548"><ele>92.42</ele><time>2026-04-25T08:44:34Z</time></trkpt><trkpt lat="59.0666735172" lon="30.0382592529"><ele>92.42</ele><time>2026-04-25T08:44:38Z</time></trkpt><trkpt lat="59.0666653868" lon="30.0382947084"><ele>92.42</ele><time>2026-04-25T08:44:40Z</time></trkpt><trkpt lat="59.0666192025" lon="30.0384424813"><ele>92.42</ele><time>2026-04-25T08:44:50Z</time></trkpt><trkpt lat="59.0666131675" lon="30.0385495182"><ele>92.42</ele><time>2026-04-25T08:45:01Z</time></trkpt><trkpt lat="59.0665344615" lon="30.0386491790"><ele>92.42</ele><time>2026-04-25T08:45:11Z</time></trkpt><trkpt lat="59.0664613713" lon="30.0386394560"><ele>92.42</ele><time>2026-04-25T08:45:22Z</time></trkpt><trkpt lat="59.0664370637" lon="30.0386174954"><ele>92.42</ele><time>2026-04-25T08:45:26Z</time></trkpt><trkpt lat="59.0663643088" lon="30.0384791940"><ele>92.42</ele><time>2026-04-25T08:45:37Z</time></trkpt><trkpt lat="59.0663410071" lon="30.0384368654"><ele>91.94</ele><time>2026-04-25T08:45:48Z</time></trkpt><trkpt lat="59.0662983432" lon="30.0383653678"><ele>91.94</ele><time>2026-04-25T08:45:59Z</time></trkpt><trkpt lat="59.0662725270" lon="30.0383422337"><ele>91.94</ele><time>2026-04-25T08:46:01Z</time></trkpt><trkpt lat="59.0661986824" lon="30.0383614283"><ele>91.94</ele><time>2026-04-25T08:46:13Z</time></trkpt><trkpt lat="59.0661274362" lon="30.0384379551"><ele>91.94</ele><time>2026-04-25T08:46:24Z</time></trkpt><trkpt lat="59.0660267696" lon="30.0384978857"><ele>91.94</ele><time>2026-04-25T08:46:36Z</time></trkpt><trkpt lat="59.0659786575" lon="30.0385817047"><ele>91.94</ele><time>2026-04-25T08:46:44Z</time></trkpt><trkpt lat="59.0659171343" lon="30.0386644341"><ele>91.94</ele><time>2026-04-25T08:46:55Z</time></trkpt><trkpt lat="59.0658255201" lon="30.0387010630"><ele>91.46</ele><time>2026-04-25T08:47:05Z</time></trkpt><trkpt lat="59.0657686070" lon="30.0387444813"><ele>91.46</ele><time>2026-04-25T08:47:18Z</time></trkpt><trkpt lat="59.0657370072" lon="30.0387402065"><ele>91.46</ele><time>2026-04-25T08:47:25Z</time></trkpt><trkpt lat="59.0656702872" lon="30.0387112051"><ele>91.46</ele><time>2026-04-25T08:47:34Z</time></trkpt><trkpt lat="59.0656008013" lon="30.0386692956"><ele>91.46</ele><time>2026-04-25T08:47:46Z</time></trkpt><trkpt lat="59.0655376855" lon="30.0385713950"><ele>92.42</ele><time>2026-04-25T08:47:57Z</time></trkpt><trkpt lat="59.0654558782" lon="30.0385485962"><ele>92.42</ele><time>2026-04-25T08:48:09Z</time></trkpt><trkpt lat="59.0653828718" lon="30.0385532063"><ele>92.42</ele><time>2026-04-25T08:48:20Z</time></trkpt><trkpt lat="59.0653788485" lon="30.0385575648"><ele>92.42</ele><time>2026-04-25T08:48:31Z</time></trkpt><trkpt lat="59.0653785132" lon="30.0385470875"><ele>92.42</ele><time>2026-04-25T08:48:43Z</time></trkpt><trkpt lat="59.0653858054" lon="30.0385700539"><ele>92.42</ele><time>2026-04-25T08:48:57Z</time></trkpt><trkpt lat="59.0653899126" lon="30.0385963731"><ele>92.42</ele><time>2026-04-25T08:49:15Z</time></trkpt><trkpt lat="59.0653842967" lon="30.0385984685"><ele>92.42</ele><time>2026-04-25T08:49:40Z</time></trkpt><trkpt lat="59.0653845482" lon="30.0386076048"><ele>92.42</ele><time>2026-04-25T08:49:58Z</time></trkpt><trkpt lat="59.0653898288" lon="30.0386205129"><ele>91.94</ele><time>2026-04-25T08:50:26Z</time></trkpt><trkpt lat="59.0653938521" lon="30.0385990553"><ele>91.94</ele><time>2026-04-25T08:50:46Z</time></trkpt><trkpt lat="59.0653953608" lon="30.0386099517"><ele>91.94</ele><time>2026-04-25T08:51:15Z</time></trkpt><trkpt lat="59.0653959475" lon="30.0385944452"><ele>91.94</ele><time>2026-04-25T08:51:45Z</time></trkpt><trkpt lat="59.0653812792" lon="30.0386024080"><ele>91.94</ele><time>2026-04-25T08:52:19Z</time></trkpt><trkpt lat="59.0653935168" lon="30.0386091974"><ele>91.94</ele><time>2026-04-25T08:52:42Z</time></trkpt><trkpt lat="59.0653979592" lon="30.0386004802"><ele>91.94</ele><time>2026-04-25T08:53:12Z</time></trkpt><trkpt lat="59.0653859731" lon="30.0385894999"><ele>91.94</ele><time>2026-04-25T08:53:48Z</time></trkpt><trkpt lat="59.0655128751" lon="30.0386345107"><ele>91.94</ele><time>2026-04-25T08:54:20Z</time></trkpt><trkpt lat="59.0655201674" lon="30.0386466645"><ele>92.42</ele><time>2026-04-25T08:54:52Z</time></trkpt><trkpt lat="59.0655061696" lon="30.0386841316"><ele>92.42</ele><time>2026-04-25T08:55:22Z</time></trkpt><trkpt lat="59.0654975362" lon="30.0386905856"><ele>92.90</ele><time>2026-04-25T08:55:53Z</time></trkpt><trkpt lat="59.0654907469" lon="30.0386711396"><ele>93.39</ele><time>2026-04-25T08:56:20Z</time></trkpt><trkpt lat="59.0654977877" lon="30.0386408810"><ele>93.39</ele><time>2026-04-25T08:56:55Z</time></trkpt><trkpt lat="59.0654944349" lon="30.0386278052"><ele>93.39</ele><time>2026-04-25T08:57:22Z</time></trkpt><trkpt lat="59.0655075945" lon="30.0386291463"><ele>93.87</ele><time>2026-04-25T08:57:51Z</time></trkpt><trkpt lat="59.0655002184" lon="30.0386366900"><ele>93.87</ele><time>2026-04-25T08:58:24Z</time></trkpt><trkpt lat="59.0654906631" lon="30.0386453234"><ele>93.87</ele><time>2026-04-25T08:58:51Z</time></trkpt><trkpt lat="59.0654786769" lon="30.0386480894"><ele>94.35</ele><time>2026-04-25T08:59:16Z</time></trkpt><trkpt lat="59.0654724743" lon="30.0386420544"><ele>94.35</ele><time>2026-04-25T08:59:44Z</time></trkpt><trkpt lat="59.0654765815" lon="30.0386350136"><ele>94.35</ele><time>2026-04-25T09:00:07Z</time></trkpt><trkpt lat="59.0654659364" lon="30.0386040844"><ele>94.35</ele><time>2026-04-25T09:00:30Z</time></trkpt><trkpt lat="59.0654604882" lon="30.0386024080"><ele>94.83</ele><time>2026-04-25T09:00:50Z</time></trkpt><trkpt lat="59.0654624160" lon="30.0385962054"><ele>94.83</ele><time>2026-04-25T09:01:18Z</time></trkpt><trkpt lat="59.0654549561" lon="30.0386092812"><ele>94.83</ele><time>2026-04-25T09:01:50Z</time></trkpt><trkpt lat="59.0654500108" lon="30.0386250392"><ele>94.83</ele><time>2026-04-25T09:02:22Z</time></trkpt><trkpt lat="59.0654466581" lon="30.0386389531"><ele>95.31</ele><time>2026-04-25T09:02:56Z</time></trkpt><trkpt lat="59.0654453170" lon="30.0386391208"><ele>95.79</ele><time>2026-04-25T09:03:11Z</time></trkpt><trkpt lat="59.0654461551" lon="30.0386394560"><ele>96.27</ele><time>2026-04-25T09:03:29Z</time></trkpt><trkpt lat="59.0654363483" lon="30.0386376120"><ele>96.27</ele><time>2026-04-25T09:03:46Z</time></trkpt><trkpt lat="59.0654330794" lon="30.0386341754"><ele>96.27</ele><time>2026-04-25T09:04:01Z</time></trkpt><trkpt lat="59.0654213447" lon="30.0385988038"><ele>96.27</ele><time>2026-04-25T09:04:18Z</time></trkpt><trkpt lat="59.0654133819" lon="30.0385721494"><ele>96.27</ele><time>2026-04-25T09:04:40Z</time></trkpt><trkpt lat="59.0654070955" lon="30.0385961216"><ele>96.27</ele><time>2026-04-25T09:04:56Z</time></trkpt><trkpt lat="59.0654069278" lon="30.0386114605"><ele>96.27</ele><time>2026-04-25T09:04:59Z</time></trkpt><trkpt lat="59.0654013958" lon="30.0386557169"><ele>96.27</ele><time>2026-04-25T09:05:10Z</time></trkpt><trkpt lat="59.0654111188" lon="30.0386925135"><ele>96.27</ele><time>2026-04-25T09:05:24Z</time></trkpt><trkpt lat="59.0654078498" lon="30.0387173239"><ele>96.27</ele><time>2026-04-25T09:05:38Z</time></trkpt><trkpt lat="59.0654275473" lon="30.0387796853"><ele>96.27</ele><time>2026-04-25T09:05:44Z</time></trkpt><trkpt lat="59.0654358454" lon="30.0388648454"><ele>96.27</ele><time>2026-04-25T09:05:50Z</time></trkpt><trkpt lat="59.0654072631" lon="30.0389469042"><ele>96.27</ele><time>2026-04-25T09:05:55Z</time></trkpt><trkpt lat="59.0654452331" lon="30.0390371773"><ele>96.27</ele><time>2026-04-25T09:06:09Z</time></trkpt><trkpt lat="59.0654409584" lon="30.0390982814"><ele>96.27</ele><time>2026-04-25T09:06:21Z</time></trkpt><trkpt lat="59.0654816106" lon="30.0392486528"><ele>96.27</ele><time>2026-04-25T09:06:30Z</time></trkpt><trkpt lat="59.0654856339" lon="30.0393882953"><ele>96.27</ele><time>2026-04-25T09:06:39Z</time></trkpt><trkpt lat="59.0654849634" lon="30.0395100005"><ele>96.27</ele><time>2026-04-25T09:06:48Z</time></trkpt><trkpt lat="59.0654701274" lon="30.0395549275"><ele>95.79</ele><time>2026-04-25T09:06:59Z</time></trkpt><trkpt lat="59.0654650144" lon="30.0395751279"><ele>95.79</ele><time>2026-04-25T09:07:08Z</time></trkpt><trkpt lat="59.0654764138" lon="30.0396457035"><ele>95.79</ele><time>2026-04-25T09:07:15Z</time></trkpt><trkpt lat="59.0655195806" lon="30.0397706777"><ele>95.79</ele><time>2026-04-25T09:07:24Z</time></trkpt><trkpt lat="59.0655619930" lon="30.0399431773"><ele>95.79</ele><time>2026-04-25T09:07:34Z</time></trkpt><trkpt lat="59.0655676927" lon="30.0399995875"><ele>95.31</ele><time>2026-04-25T09:07:37Z</time></trkpt><trkpt lat="59.0655977000" lon="30.0401052833"><ele>95.31</ele><time>2026-04-25T09:07:48Z</time></trkpt><trkpt lat="59.0655982029" lon="30.0401155092"><ele>95.31</ele><time>2026-04-25T09:08:12Z</time></trkpt><trkpt lat="59.0655972809" lon="30.0401352905"><ele>94.83</ele><time>2026-04-25T09:08:30Z</time></trkpt><trkpt lat="59.0655965265" lon="30.0401359610"><ele>94.83</ele><time>2026-04-25T09:08:56Z</time></trkpt><trkpt lat="59.0655940957" lon="30.0401065405"><ele>94.35</ele><time>2026-04-25T09:09:10Z</time></trkpt><trkpt lat="59.0656018909" lon="30.0400892738"><ele>94.83</ele><time>2026-04-25T09:09:39Z</time></trkpt><trkpt lat="59.0655918326" lon="30.0401314348"><ele>94.35</ele><time>2026-04-25T09:10:06Z</time></trkpt><trkpt lat="59.0655879769" lon="30.0401361287"><ele>94.35</ele><time>2026-04-25T09:10:30Z</time></trkpt><trkpt lat="59.0655862167" lon="30.0401343685"><ele>93.87</ele><time>2026-04-25T09:11:05Z</time></trkpt><trkpt lat="59.0655842051" lon="30.0401310995"><ele>93.87</ele><time>2026-04-25T09:11:36Z</time></trkpt><trkpt lat="59.0655844565" lon="30.0401179399"><ele>93.39</ele><time>2026-04-25T09:12:03Z</time></trkpt><trkpt lat="59.0655868873" lon="30.0401110668"><ele>92.90</ele><time>2026-04-25T09:12:39Z</time></trkpt><trkpt lat="59.0655874740" lon="30.0401051994"><ele>92.90</ele><time>2026-04-25T09:13:03Z</time></trkpt><trkpt lat="59.0655921679" lon="30.0400938001"><ele>92.90</ele><time>2026-04-25T09:13:30Z</time></trkpt><trkpt lat="59.0655939281" lon="30.0400782935"><ele>92.42</ele><time>2026-04-25T09:13:59Z</time></trkpt><trkpt lat="59.0655971970" lon="30.0400742702"><ele>92.42</ele><time>2026-04-25T09:14:26Z</time></trkpt><trkpt lat="59.0655863844" lon="30.0400647987"><ele>91.94</ele><time>2026-04-25T09:14:44Z</time></trkpt><trkpt lat="59.0655871388" lon="30.0400736835"><ele>91.94</ele><time>2026-04-25T09:15:08Z</time></trkpt><trkpt lat="59.0655841213" lon="30.0400750246"><ele>91.94</ele><time>2026-04-25T09:15:09Z</time></trkpt><trkpt lat="59.0655506775" lon="30.0400621165"><ele>91.94</ele><time>2026-04-25T09:15:26Z</time></trkpt><trkpt lat="59.0655453969" lon="30.0400494598"><ele>91.46</ele><time>2026-04-25T09:15:39Z</time></trkpt><trkpt lat="59.0655016433" lon="30.0400914531"><ele>91.46</ele><time>2026-04-25T09:15:46Z</time></trkpt><trkpt lat="59.0654538665" lon="30.0400907826"><ele>91.46</ele><time>2026-04-25T09:16:00Z</time></trkpt><trkpt lat="59.0654395334" lon="30.0400893576"><ele>91.46</ele><time>2026-04-25T09:16:25Z</time></trkpt><trkpt lat="59.0654276311" lon="30.0400716718"><ele>90.98</ele><time>2026-04-25T09:16:40Z</time></trkpt><trkpt lat="59.0653909184" lon="30.0400904473"><ele>90.98</ele><time>2026-04-25T09:16:48Z</time></trkpt><trkpt lat="59.0653598215" lon="30.0401135813"><ele>90.98</ele><time>2026-04-25T09:16:58Z</time></trkpt><trkpt lat="59.0653441474" lon="30.0400626194"><ele>90.98</ele><time>2026-04-25T09:17:04Z</time></trkpt><trkpt lat="59.0652818698" lon="30.0400008447"><ele>90.98</ele><time>2026-04-25T09:17:09Z</time></trkpt><trkpt lat="59.0651730727" lon="30.0399144273"><ele>90.98</ele><time>2026-04-25T09:17:21Z</time></trkpt><trkpt lat="59.0651599132" lon="30.0398972444"><ele>90.98</ele><time>2026-04-25T09:17:23Z</time></trkpt><trkpt lat="59.0650931094" lon="30.0398466177"><ele>90.98</ele><time>2026-04-25T09:17:32Z</time></trkpt><trkpt lat="59.0649991482" lon="30.0398954004"><ele>90.50</ele><time>2026-04-25T09:17:44Z</time></trkpt><trkpt lat="59.0649874974" lon="30.0397911295"><ele>90.50</ele><time>2026-04-25T09:17:53Z</time></trkpt><trkpt lat="59.0649564844" lon="30.0397361442"><ele>90.50</ele><time>2026-04-25T09:18:02Z</time></trkpt><trkpt lat="59.0649391338" lon="30.0397077296"><ele>90.50</ele><time>2026-04-25T09:18:06Z</time></trkpt><trkpt lat="59.0649083722" lon="30.0395612977"><ele>90.50</ele><time>2026-04-25T09:18:16Z</time></trkpt><trkpt lat="59.0649052709" lon="30.0394724496"><ele>90.50</ele><time>2026-04-25T09:18:27Z</time></trkpt><trkpt lat="59.0648776107" lon="30.0393406861"><ele>90.50</ele><time>2026-04-25T09:18:41Z</time></trkpt><trkpt lat="59.0648649540" lon="30.0393247604"><ele>90.50</ele><time>2026-04-25T09:18:44Z</time></trkpt><trkpt lat="59.0648425743" lon="30.0393164624"><ele>90.50</ele><time>2026-04-25T09:18:47Z</time></trkpt><trkpt lat="59.0647990722" lon="30.0393416081"><ele>90.50</ele><time>2026-04-25T09:18:56Z</time></trkpt><trkpt lat="59.0647558216" lon="30.0393162947"><ele>90.02</ele><time>2026-04-25T09:19:07Z</time></trkpt><trkpt lat="59.0647331066" lon="30.0392781571"><ele>90.02</ele><time>2026-04-25T09:19:13Z</time></trkpt><trkpt lat="59.0646607708" lon="30.0392196514"><ele>90.50</ele><time>2026-04-25T09:19:23Z</time></trkpt><trkpt lat="59.0646409895" lon="30.0391328987"><ele>90.50</ele><time>2026-04-25T09:19:33Z</time></trkpt><trkpt lat="59.0646158438" lon="30.0391080044"><ele>90.50</ele><time>2026-04-25T09:19:46Z</time></trkpt><trkpt lat="59.0645752754" lon="30.0391801726"><ele>90.50</ele><time>2026-04-25T09:19:53Z</time></trkpt><trkpt lat="59.0645216312" lon="30.0392196514"><ele>90.50</ele><time>2026-04-25T09:20:03Z</time></trkpt><trkpt lat="59.0645160992" lon="30.0392183941"><ele>90.50</ele><time>2026-04-25T09:20:05Z</time></trkpt><trkpt lat="59.0644760337" lon="30.0392448809"><ele>90.50</ele><time>2026-04-25T09:20:16Z</time></trkpt><trkpt lat="59.0644326992" lon="30.0393713638"><ele>90.50</ele><time>2026-04-25T09:20:26Z</time></trkpt><trkpt lat="59.0644315258" lon="30.0393986050"><ele>90.50</ele><time>2026-04-25T09:20:28Z</time></trkpt><trkpt lat="59.0644503850" lon="30.0395524129"><ele>90.02</ele><time>2026-04-25T09:20:40Z</time></trkpt><trkpt lat="59.0644622035" lon="30.0396143552"><ele>90.02</ele><time>2026-04-25T09:20:45Z</time></trkpt><trkpt lat="59.0645089746" lon="30.0397948176"><ele>90.02</ele><time>2026-04-25T09:20:56Z</time></trkpt><trkpt lat="59.0645070467" lon="30.0399037823"><ele>90.02</ele><time>2026-04-25T09:21:05Z</time></trkpt><trkpt lat="59.0645503812" lon="30.0399916247"><ele>90.02</ele><time>2026-04-25T09:21:17Z</time></trkpt><trkpt lat="59.0645778738" lon="30.0400863402"><ele>90.02</ele><time>2026-04-25T09:21:27Z</time></trkpt><trkpt lat="59.0645891894" lon="30.0401021820"><ele>90.02</ele><time>2026-04-25T09:21:39Z</time></trkpt><trkpt lat="59.0645893570" lon="30.0401030201"><ele>90.02</ele><time>2026-04-25T09:21:40Z</time></trkpt><trkpt lat="59.0644944739" lon="30.0401300937"><ele>89.54</ele><time>2026-04-25T09:21:51Z</time></trkpt><trkpt lat="59.0643815696" lon="30.0401539821"><ele>89.54</ele><time>2026-04-25T09:22:05Z</time></trkpt><trkpt lat="59.0643754508" lon="30.0401830673"><ele>89.54</ele><time>2026-04-25T09:22:19Z</time></trkpt><trkpt lat="59.0643989202" lon="30.0402378850"><ele>89.54</ele><time>2026-04-25T09:22:32Z</time></trkpt><trkpt lat="59.0644368902" lon="30.0403180998"><ele>89.54</ele><time>2026-04-25T09:22:40Z</time></trkpt><trkpt lat="59.0645244811" lon="30.0403875858"><ele>90.02</ele><time>2026-04-25T09:22:52Z</time></trkpt><trkpt lat="59.0645389818" lon="30.0404631905"><ele>89.54</ele><time>2026-04-25T09:23:03Z</time></trkpt><trkpt lat="59.0645409934" lon="30.0404656213"><ele>89.54</ele><time>2026-04-25T09:23:04Z</time></trkpt><trkpt lat="59.0645441785" lon="30.0404686388"><ele>89.54</ele><time>2026-04-25T09:23:16Z</time></trkpt><trkpt lat="59.0646122396" lon="30.0405386277"><ele>89.54</ele><time>2026-04-25T09:23:24Z</time></trkpt><trkpt lat="59.0646468569" lon="30.0405150745"><ele>89.54</ele><time>2026-04-25T09:23:33Z</time></trkpt><trkpt lat="59.0646669734" lon="30.0405508652"><ele>89.54</ele><time>2026-04-25T09:23:37Z</time></trkpt><trkpt lat="59.0647175163" lon="30.0405076146"><ele>89.54</ele><time>2026-04-25T09:23:44Z</time></trkpt><trkpt lat="59.0648143273" lon="30.0404743385"><ele>89.06</ele><time>2026-04-25T09:23:56Z</time></trkpt><trkpt lat="59.0648679715" lon="30.0404937845"><ele>89.06</ele><time>2026-04-25T09:24:06Z</time></trkpt><trkpt lat="59.0649028402" lon="30.0405479316"><ele>89.06</ele><time>2026-04-25T09:24:15Z</time></trkpt><trkpt lat="59.0650015790" lon="30.0405790284"><ele>89.06</ele><time>2026-04-25T09:24:25Z</time></trkpt><trkpt lat="59.0650211927" lon="30.0405744184"><ele>87.62</ele><time>2026-04-25T09:24:31Z</time></trkpt><trkpt lat="59.0650460031" lon="30.0405287370"><ele>87.62</ele><time>2026-04-25T09:24:34Z</time></trkpt><trkpt lat="59.0651162434" lon="30.0404764339"><ele>87.62</ele><time>2026-04-25T09:24:47Z</time></trkpt><trkpt lat="59.0651801974" lon="30.0404286571"><ele>87.62</ele><time>2026-04-25T09:24:54Z</time></trkpt><trkpt lat="59.0652780142" lon="30.0404335186"><ele>87.62</ele><time>2026-04-25T09:25:05Z</time></trkpt><trkpt lat="59.0653255396" lon="30.0404434931"><ele>87.14</ele><time>2026-04-25T09:25:15Z</time></trkpt><trkpt lat="59.0653948579" lon="30.0403983984"><ele>86.66</ele><time>2026-04-25T09:25:26Z</time></trkpt><trkpt lat="59.0654485021" lon="30.0403952133"><ele>86.66</ele><time>2026-04-25T09:25:37Z</time></trkpt><trkpt lat="59.0654560458" lon="30.0403769407"><ele>86.66</ele><time>2026-04-25T09:25:46Z</time></trkpt><trkpt lat="59.0654904954" lon="30.0403504539"><ele>86.66</ele><time>2026-04-25T09:25:56Z</time></trkpt><trkpt lat="59.0655227657" lon="30.0403059460"><ele>86.18</ele><time>2026-04-25T09:26:06Z</time></trkpt><trkpt lat="59.0655582212" lon="30.0402856618"><ele>86.18</ele><time>2026-04-25T09:26:21Z</time></trkpt><trkpt lat="59.0656349156" lon="30.0402106438"><ele>85.69</ele><time>2026-04-25T09:26:32Z</time></trkpt><trkpt lat="59.0656942595" lon="30.0401974842"><ele>85.69</ele><time>2026-04-25T09:26:40Z</time></trkpt><trkpt lat="59.0657418687" lon="30.0401984062"><ele>85.21</ele><time>2026-04-25T09:27:00Z</time></trkpt><trkpt lat="59.0657564532" lon="30.0402084645"><ele>85.21</ele><time>2026-04-25T09:27:08Z</time></trkpt><trkpt lat="59.0658111032" lon="30.0402611028"><ele>85.21</ele><time>2026-04-25T09:27:20Z</time></trkpt><trkpt lat="59.0658307169" lon="30.0403240509"><ele>85.21</ele><time>2026-04-25T09:27:30Z</time></trkpt><trkpt lat="59.0657888912" lon="30.0404550601"><ele>85.21</ele><time>2026-04-25T09:27:40Z</time></trkpt><trkpt lat="59.0657931659" lon="30.0406029169"><ele>84.73</ele><time>2026-04-25T09:27:49Z</time></trkpt><trkpt lat="59.0657966025" lon="30.0406915136"><ele>84.73</ele><time>2026-04-25T09:28:00Z</time></trkpt><trkpt lat="59.0658128634" lon="30.0408376940"><ele>84.73</ele><time>2026-04-25T09:28:14Z</time></trkpt><trkpt lat="59.0657917410" lon="30.0410030689"><ele>84.73</ele><time>2026-04-25T09:28:27Z</time></trkpt><trkpt lat="59.0657581296" lon="30.0410786737"><ele>84.73</ele><time>2026-04-25T09:28:37Z</time></trkpt><trkpt lat="59.0657668468" lon="30.0411070883"><ele>84.73</ele><time>2026-04-25T09:28:40Z</time></trkpt><trkpt lat="59.0657249372" lon="30.0412919931"><ele>84.73</ele><time>2026-04-25T09:28:51Z</time></trkpt><trkpt lat="59.0656980313" lon="30.0413968507"><ele>85.21</ele><time>2026-04-25T09:28:58Z</time></trkpt><trkpt lat="59.0657625720" lon="30.0415317155"><ele>85.21</ele><time>2026-04-25T09:29:09Z</time></trkpt><trkpt lat="59.0657734685" lon="30.0415959209"><ele>85.21</ele><time>2026-04-25T09:29:21Z</time></trkpt><trkpt lat="59.0657572914" lon="30.0416121818"><ele>85.21</ele><time>2026-04-25T09:29:48Z</time></trkpt><trkpt lat="59.0657618176" lon="30.0416179653"><ele>85.21</ele><time>2026-04-25T09:30:10Z</time></trkpt><trkpt lat="59.0657681879" lon="30.0416334718"><ele>85.21</ele><time>2026-04-25T09:30:32Z</time></trkpt><trkpt lat="59.0657815151" lon="30.0416400097"><ele>85.69</ele><time>2026-04-25T09:30:59Z</time></trkpt><trkpt lat="59.0657851193" lon="30.0415971782"><ele>85.21</ele><time>2026-04-25T09:31:02Z</time></trkpt><trkpt lat="59.0658444632" lon="30.0415732060"><ele>85.21</ele><time>2026-04-25T09:31:15Z</time></trkpt><trkpt lat="59.0658752248" lon="30.0415121857"><ele>85.21</ele><time>2026-04-25T09:31:26Z</time></trkpt><trkpt lat="59.0659385081" lon="30.0414756406"><ele>85.21</ele><time>2026-04-25T09:31:35Z</time></trkpt><trkpt lat="59.0659794118" lon="30.0413434580"><ele>85.21</ele><time>2026-04-25T09:31:45Z</time></trkpt><trkpt lat="59.0660391748" lon="30.0412849523"><ele>84.25</ele><time>2026-04-25T09:31:58Z</time></trkpt><trkpt lat="59.0660586208" lon="30.0412760675"><ele>84.25</ele><time>2026-04-25T09:32:00Z</time></trkpt><trkpt lat="59.0661463793" lon="30.0412051566"><ele>84.25</ele><time>2026-04-25T09:32:10Z</time></trkpt><trkpt lat="59.0661621373" lon="30.0411991216"><ele>84.25</ele><time>2026-04-25T09:32:12Z</time></trkpt><trkpt lat="59.0662796516" lon="30.0411900692"><ele>84.25</ele><time>2026-04-25T09:32:22Z</time></trkpt><trkpt lat="59.0663158614" lon="30.0411370117"><ele>84.25</ele><time>2026-04-25T09:32:31Z</time></trkpt><trkpt lat="59.0663208906" lon="30.0411316473"><ele>84.25</ele><time>2026-04-25T09:32:34Z</time></trkpt><trkpt lat="59.0664156899" lon="30.0411694497"><ele>84.25</ele><time>2026-04-25T09:32:45Z</time></trkpt><trkpt lat="59.0665040351" lon="30.0412935857"><ele>84.25</ele><time>2026-04-25T09:32:57Z</time></trkpt><trkpt lat="59.0665174462" lon="30.0413176417"><ele>83.77</ele><time>2026-04-25T09:33:06Z</time></trkpt><trkpt lat="59.0665463638" lon="30.0413089246"><ele>83.77</ele><time>2026-04-25T09:33:09Z</time></trkpt><trkpt lat="59.0665696654" lon="30.0413221680"><ele>83.77</ele><time>2026-04-25T09:33:22Z</time></trkpt><trkpt lat="59.0666026901" lon="30.0413298793"><ele>83.77</ele><time>2026-04-25T09:33:39Z</time></trkpt><trkpt lat="59.0666044503" lon="30.0413333159"><ele>83.29</ele><time>2026-04-25T09:33:49Z</time></trkpt><trkpt lat="59.0666211303" lon="30.0413163844"><ele>83.29</ele><time>2026-04-25T09:33:52Z</time></trkpt><trkpt lat="59.0666760318" lon="30.0412947591"><ele>83.29</ele><time>2026-04-25T09:34:03Z</time></trkpt><trkpt lat="59.0666989982" lon="30.0412971061"><ele>83.29</ele><time>2026-04-25T09:34:07Z</time></trkpt><trkpt lat="59.0667766985" lon="30.0412660092"><ele>83.29</ele><time>2026-04-25T09:34:18Z</time></trkpt><trkpt lat="59.0668000840" lon="30.0412093475"><ele>83.29</ele><time>2026-04-25T09:34:29Z</time></trkpt><trkpt lat="59.0668300074" lon="30.0411600620"><ele>83.29</ele><time>2026-04-25T09:34:40Z</time></trkpt><trkpt lat="59.0668611880" lon="30.0411075074"><ele>83.29</ele><time>2026-04-25T09:34:43Z</time></trkpt><trkpt lat="59.0669654589" lon="30.0409222674"><ele>83.29</ele><time>2026-04-25T09:34:55Z</time></trkpt><trkpt lat="59.0669848211" lon="30.0409182440"><ele>83.29</ele><time>2026-04-25T09:34:58Z</time></trkpt><trkpt lat="59.0670825541" lon="30.0409420487"><ele>82.81</ele><time>2026-04-25T09:35:11Z</time></trkpt><trkpt lat="59.0671656188" lon="30.0409800187"><ele>82.33</ele><time>2026-04-25T09:35:29Z</time></trkpt><trkpt lat="59.0672321711" lon="30.0409506820"><ele>82.33</ele><time>2026-04-25T09:35:38Z</time></trkpt><trkpt lat="59.0673226956" lon="30.0409173220"><ele>82.33</ele><time>2026-04-25T09:35:53Z</time></trkpt><trkpt lat="59.0673423093" lon="30.0409096107"><ele>82.33</ele><time>2026-04-25T09:36:01Z</time></trkpt><trkpt lat="59.0674236137" lon="30.0408495124"><ele>81.85</ele><time>2026-04-25T09:36:13Z</time></trkpt><trkpt lat="59.0674986318" lon="30.0407410506"><ele>81.85</ele><time>2026-04-25T09:36:23Z</time></trkpt><trkpt lat="59.0675221011" lon="30.0407211017"><ele>81.85</ele><time>2026-04-25T09:36:37Z</time></trkpt><trkpt lat="59.0675484203" lon="30.0407015719"><ele>81.85</ele><time>2026-04-25T09:36:58Z</time></trkpt><trkpt lat="59.0676277969" lon="30.0406900048"><ele>81.85</ele><time>2026-04-25T09:37:09Z</time></trkpt><trkpt lat="59.0676427167" lon="30.0406881608"><ele>81.85</ele><time>2026-04-25T09:37:11Z</time></trkpt><trkpt lat="59.0677111968" lon="30.0407168269"><ele>81.85</ele><time>2026-04-25T09:37:21Z</time></trkpt><trkpt lat="59.0678063314" lon="30.0406485982"><ele>81.85</ele><time>2026-04-25T09:37:32Z</time></trkpt><trkpt lat="59.0678246878" lon="30.0406522863"><ele>81.85</ele><time>2026-04-25T09:37:50Z</time></trkpt><trkpt lat="59.0678289626" lon="30.0406625960"><ele>81.85</ele><time>2026-04-25T09:38:14Z</time></trkpt><trkpt lat="59.0678576287" lon="30.0406924356"><ele>81.85</ele><time>2026-04-25T09:38:32Z</time></trkpt><trkpt lat="59.0678882226" lon="30.0407017395"><ele>81.85</ele><time>2026-04-25T09:38:48Z</time></trkpt><trkpt lat="59.0679086745" lon="30.0406931061"><ele>81.85</ele><time>2026-04-25T09:39:09Z</time></trkpt><trkpt lat="59.0679426212" lon="30.0406886637"><ele>81.85</ele><time>2026-04-25T09:39:22Z</time></trkpt><trkpt lat="59.0679992829" lon="30.0406543817"><ele>81.85</ele><time>2026-04-25T09:39:33Z</time></trkpt><trkpt lat="59.0680270270" lon="30.0405813754"><ele>81.85</ele><time>2026-04-25T09:39:44Z</time></trkpt><trkpt lat="59.0681001171" lon="30.0405033398"><ele>81.85</ele><time>2026-04-25T09:39:55Z</time></trkpt><trkpt lat="59.0681684297" lon="30.0404740870"><ele>81.85</ele><time>2026-04-25T09:40:09Z</time></trkpt><trkpt lat="59.0682371613" lon="30.0405571517"><ele>81.85</ele><time>2026-04-25T09:40:22Z</time></trkpt><trkpt lat="59.0682987683" lon="30.0405536313"><ele>81.85</ele><time>2026-04-25T09:40:34Z</time></trkpt><trkpt lat="59.0683806594" lon="30.0405708142"><ele>81.85</ele><time>2026-04-25T09:40:52Z</time></trkpt><trkpt lat="59.0684723575" lon="30.0406071916"><ele>81.37</ele><time>2026-04-25T09:41:13Z</time></trkpt><trkpt lat="59.0685260855" lon="30.0406113826"><ele>81.37</ele><time>2026-04-25T09:41:28Z</time></trkpt><trkpt lat="59.0685920510" lon="30.0405869074"><ele>81.37</ele><time>2026-04-25T09:41:38Z</time></trkpt><trkpt lat="59.0686088987" lon="30.0405956246"><ele>81.37</ele><time>2026-04-25T09:41:40Z</time></trkpt><trkpt lat="59.0686670691" lon="30.0406103767"><ele>81.37</ele><time>2026-04-25T09:41:49Z</time></trkpt><trkpt lat="59.0687493794" lon="30.0406095386"><ele>80.89</ele><time>2026-04-25T09:41:57Z</time></trkpt><trkpt lat="59.0688439272" lon="30.0404305849"><ele>80.89</ele><time>2026-04-25T09:42:08Z</time></trkpt><trkpt lat="59.0689340327" lon="30.0403510407"><ele>80.89</ele><time>2026-04-25T09:42:21Z</time></trkpt><trkpt lat="59.0690429136" lon="30.0402890146"><ele>80.89</ele><time>2026-04-25T09:42:32Z</time></trkpt><trkpt lat="59.0690963063" lon="30.0402528886"><ele>80.89</ele><time>2026-04-25T09:42:43Z</time></trkpt><trkpt lat="59.0691378806" lon="30.0402176846"><ele>81.37</ele><time>2026-04-25T09:42:49Z</time></trkpt><trkpt lat="59.0691941231" lon="30.0401948858"><ele>81.37</ele><time>2026-04-25T09:43:02Z</time></trkpt><trkpt lat="59.0691992361" lon="30.0401817262"><ele>81.37</ele><time>2026-04-25T09:43:05Z</time></trkpt><trkpt lat="59.0692458395" lon="30.0401733443"><ele>81.37</ele><time>2026-04-25T09:43:15Z</time></trkpt><trkpt lat="59.0692631062" lon="30.0401727576"><ele>81.37</ele><time>2026-04-25T09:43:33Z</time></trkpt><trkpt lat="59.0692516230" lon="30.0401610229"><ele>81.37</ele><time>2026-04-25T09:43:49Z</time></trkpt><trkpt lat="59.0692465100" lon="30.0401451811"><ele>81.37</ele><time>2026-04-25T09:44:09Z</time></trkpt><trkpt lat="59.0692163352" lon="30.0401689857"><ele>81.37</ele><time>2026-04-25T09:44:23Z</time></trkpt><trkpt lat="59.0692109708" lon="30.0401869230"><ele>81.37</ele><time>2026-04-25T09:44:39Z</time></trkpt><trkpt lat="59.0692217834" lon="30.0402185228"><ele>81.37</ele><time>2026-04-25T09:44:52Z</time></trkpt><trkpt lat="59.0692366194" lon="30.0402364600"><ele>81.37</ele><time>2026-04-25T09:45:01Z</time></trkpt><trkpt lat="59.0692465100" lon="30.0402854104"><ele>81.37</ele><time>2026-04-25T09:45:09Z</time></trkpt><trkpt lat="59.0692581609" lon="30.0402968936"><ele>81.37</ele><time>2026-04-25T09:45:25Z</time></trkpt><trkpt lat="59.0692640282" lon="30.0403199438"><ele>81.37</ele><time>2026-04-25T09:45:31Z</time></trkpt><trkpt lat="59.0693065245" lon="30.0403468497"><ele>80.89</ele><time>2026-04-25T09:45:41Z</time></trkpt><trkpt lat="59.0693862364" lon="30.0404335186"><ele>80.89</ele><time>2026-04-25T09:45:53Z</time></trkpt><trkpt lat="59.0694558900" lon="30.0405149069"><ele>80.89</ele><time>2026-04-25T09:46:08Z</time></trkpt><trkpt lat="59.0694761742" lon="30.0404823851"><ele>80.89</ele><time>2026-04-25T09:46:17Z</time></trkpt><trkpt lat="59.0695925988" lon="30.0404106360"><ele>80.89</ele><time>2026-04-25T09:46:29Z</time></trkpt><trkpt lat="59.0697180759" lon="30.0403589197"><ele>80.89</ele><time>2026-04-25T09:46:40Z</time></trkpt><trkpt lat="59.0697590634" lon="30.0402907748"><ele>80.89</ele><time>2026-04-25T09:46:50Z</time></trkpt><trkpt lat="59.0697681159" lon="30.0402817223"><ele>80.89</ele><time>2026-04-25T09:46:52Z</time></trkpt><trkpt lat="59.0698095225" lon="30.0401654653"><ele>80.89</ele><time>2026-04-25T09:47:03Z</time></trkpt><trkpt lat="59.0698284656" lon="30.0401682314"><ele>80.89</ele><time>2026-04-25T09:47:16Z</time></trkpt><trkpt lat="59.0698504262" lon="30.0401696563"><ele>80.89</ele><time>2026-04-25T09:47:26Z</time></trkpt><trkpt lat="59.0698790085" lon="30.0401411578"><ele>80.89</ele><time>2026-04-25T09:47:40Z</time></trkpt><trkpt lat="59.0698847920" lon="30.0401088037"><ele>80.89</ele><time>2026-04-25T09:48:01Z</time></trkpt><trkpt lat="59.0698728897" lon="30.0400668941"><ele>80.89</ele><time>2026-04-25T09:48:17Z</time></trkpt><trkpt lat="59.0698794276" lon="30.0400548242"><ele>80.89</ele><time>2026-04-25T09:48:32Z</time></trkpt><trkpt lat="59.0698879771" lon="30.0400554109"><ele>80.89</ele><time>2026-04-25T09:48:46Z</time></trkpt><trkpt lat="59.0699159727" lon="30.0400674809"><ele>80.89</ele><time>2026-04-25T09:49:03Z</time></trkpt><trkpt lat="59.0699277911" lon="30.0400813948"><ele>80.89</ele><time>2026-04-25T09:49:19Z</time></trkpt><trkpt lat="59.0699338261" lon="30.0400779583"><ele>80.89</ele><time>2026-04-25T09:49:36Z</time></trkpt><trkpt lat="59.0699497517" lon="30.0400637928"><ele>80.89</ele><time>2026-04-25T09:49:50Z</time></trkpt><trkpt lat="59.0699634142" lon="30.0400683191"><ele>80.41</ele><time>2026-04-25T09:50:03Z</time></trkpt><trkpt lat="59.0699787531" lon="30.0400837418"><ele>80.41</ele><time>2026-04-25T09:50:22Z</time></trkpt><trkpt lat="59.0700112749" lon="30.0401011761"><ele>80.41</ele><time>2026-04-25T09:50:36Z</time></trkpt><trkpt lat="59.0700408630" lon="30.0400663912"><ele>80.41</ele><time>2026-04-25T09:50:50Z</time></trkpt><trkpt lat="59.0700707026" lon="30.0400093105"><ele>80.41</ele><time>2026-04-25T09:51:04Z</time></trkpt><trkpt lat="59.0700948425" lon="30.0399617013"><ele>80.41</ele><time>2026-04-25T09:51:25Z</time></trkpt><trkpt lat="59.0701130312" lon="30.0398943108"><ele>80.41</ele><time>2026-04-25T09:51:38Z</time></trkpt><trkpt lat="59.0701711178" lon="30.0399187021"><ele>80.41</ele><time>2026-04-25T09:51:49Z</time></trkpt><trkpt lat="59.0701938327" lon="30.0399092305"><ele>80.41</ele><time>2026-04-25T09:52:00Z</time></trkpt><trkpt lat="59.0702064894" lon="30.0399032794"><ele>80.41</ele><time>2026-04-25T09:52:18Z</time></trkpt><trkpt lat="59.0702577867" lon="30.0399155170"><ele>80.41</ele><time>2026-04-25T09:52:30Z</time></trkpt><trkpt lat="59.0703003667" lon="30.0398881920"><ele>80.41</ele><time>2026-04-25T09:52:47Z</time></trkpt><trkpt lat="59.0703184716" lon="30.0398713443"><ele>80.41</ele><time>2026-04-25T09:53:04Z</time></trkpt><trkpt lat="59.0703224950" lon="30.0398771279"><ele>80.41</ele><time>2026-04-25T09:53:27Z</time></trkpt><trkpt lat="59.0703243390" lon="30.0398583524"><ele>80.41</ele><time>2026-04-25T09:53:39Z</time></trkpt><trkpt lat="59.0703563578" lon="30.0398452766"><ele>80.41</ele><time>2026-04-25T09:53:51Z</time></trkpt><trkpt lat="59.0704218205" lon="30.0398537423"><ele>80.41</ele><time>2026-04-25T09:54:05Z</time></trkpt><trkpt lat="59.0704660770" lon="30.0398372300"><ele>80.41</ele><time>2026-04-25T09:54:19Z</time></trkpt><trkpt lat="59.0704887081" lon="30.0398199633"><ele>80.41</ele><time>2026-04-25T09:54:36Z</time></trkpt><trkpt lat="59.0705073997" lon="30.0397854298"><ele>80.41</ele><time>2026-04-25T09:54:50Z</time></trkpt><trkpt lat="59.0705248341" lon="30.0397466216"><ele>80.41</ele><time>2026-04-25T09:55:01Z</time></trkpt><trkpt lat="59.0705519076" lon="30.0396869425"><ele>80.41</ele><time>2026-04-25T09:55:19Z</time></trkpt><trkpt lat="59.0705861896" lon="30.0396475475"><ele>80.41</ele><time>2026-04-25T09:55:42Z</time></trkpt><trkpt lat="59.0706125926" lon="30.0396312028"><ele>80.41</ele><time>2026-04-25T09:56:02Z</time></trkpt><trkpt lat="59.0706580225" lon="30.0396250002"><ele>80.41</ele><time>2026-04-25T09:56:14Z</time></trkpt><trkpt lat="59.0707205515" lon="30.0396227371"><ele>80.41</ele><time>2026-04-25T09:56:29Z</time></trkpt><trkpt lat="59.0707758721" lon="30.0396032073"><ele>80.41</ele><time>2026-04-25T09:56:43Z</time></trkpt><trkpt lat="59.0708130877" lon="30.0396097451"><ele>81.37</ele><time>2026-04-25T09:56:54Z</time></trkpt><trkpt lat="59.0708401613" lon="30.0395934843"><ele>81.37</ele><time>2026-04-25T09:57:10Z</time></trkpt><trkpt lat="59.0708524827" lon="30.0395624712"><ele>81.37</ele><time>2026-04-25T09:57:33Z</time></trkpt><trkpt lat="59.0709357150" lon="30.0395188853"><ele>81.37</ele><time>2026-04-25T09:57:46Z</time></trkpt><trkpt lat="59.0710279997" lon="30.0394234154"><ele>81.37</ele><time>2026-04-25T09:58:00Z</time></trkpt><trkpt lat="59.0710586775" lon="30.0393637363"><ele>81.37</ele><time>2026-04-25T09:58:14Z</time></trkpt><trkpt lat="59.0710667241" lon="30.0393555220"><ele>81.37</ele><time>2026-04-25T09:58:32Z</time></trkpt><trkpt lat="59.0710872598" lon="30.0393111818"><ele>81.37</ele><time>2026-04-25T09:58:44Z</time></trkpt><trkpt lat="59.0711457655" lon="30.0392217468"><ele>81.37</ele><time>2026-04-25T09:58:56Z</time></trkpt><trkpt lat="59.0711878426" lon="30.0391867943"><ele>81.37</ele><time>2026-04-25T09:59:05Z</time></trkpt><trkpt lat="59.0712517127" lon="30.0391537696"><ele>81.37</ele><time>2026-04-25T09:59:17Z</time></trkpt><trkpt lat="59.0712577477" lon="30.0391514227"><ele>81.37</ele><time>2026-04-25T09:59:20Z</time></trkpt><trkpt lat="59.0713455062" lon="30.0391479861"><ele>81.37</ele><time>2026-04-25T09:59:33Z</time></trkpt><trkpt lat="59.0713470988" lon="30.0391491596"><ele>81.37</ele><time>2026-04-25T09:59:46Z</time></trkpt><trkpt lat="59.0713386331" lon="30.0391515903"><ele>81.37</ele><time>2026-04-25T10:00:04Z</time></trkpt><trkpt lat="59.0713303350" lon="30.0391514227"><ele>81.37</ele><time>2026-04-25T10:00:14Z</time></trkpt><trkpt lat="59.0713407286" lon="30.0392494071"><ele>81.37</ele><time>2026-04-25T10:00:26Z</time></trkpt><trkpt lat="59.0713496134" lon="30.0392733794"><ele>81.37</ele><time>2026-04-25T10:00:39Z</time></trkpt><trkpt lat="59.0713564865" lon="30.0393706094"><ele>81.37</ele><time>2026-04-25T10:00:50Z</time></trkpt><trkpt lat="59.0713636950" lon="30.0393818412"><ele>82.33</ele><time>2026-04-25T10:01:12Z</time></trkpt><trkpt lat="59.0713751782" lon="30.0394385867"><ele>82.33</ele><time>2026-04-25T10:01:23Z</time></trkpt><trkpt lat="59.0713763516" lon="30.0394514110"><ele>80.89</ele><time>2026-04-25T10:01:33Z</time></trkpt><trkpt lat="59.0713730827" lon="30.0394637324"><ele>80.89</ele><time>2026-04-25T10:01:47Z</time></trkpt><trkpt lat="59.0713681374" lon="30.0394667499"><ele>80.41</ele><time>2026-04-25T10:02:04Z</time></trkpt><trkpt lat="59.0713676345" lon="30.0394824240"><ele>80.41</ele><time>2026-04-25T10:02:27Z</time></trkpt><trkpt lat="59.0713735856" lon="30.0394817535"><ele>80.41</ele><time>2026-04-25T10:02:43Z</time></trkpt><trkpt lat="59.0713766869" lon="30.0394745450"><ele>80.41</ele><time>2026-04-25T10:02:44Z</time></trkpt><trkpt lat="59.0714267269" lon="30.0394615531"><ele>80.41</ele><time>2026-04-25T10:02:52Z</time></trkpt><trkpt lat="59.0715128928" lon="30.0394441187"><ele>80.41</ele><time>2026-04-25T10:03:02Z</time></trkpt><trkpt lat="59.0715571493" lon="30.0394588709"><ele>80.41</ele><time>2026-04-25T10:03:13Z</time></trkpt><trkpt lat="59.0715672914" lon="30.0394259300"><ele>80.41</ele><time>2026-04-25T10:03:24Z</time></trkpt><trkpt lat="59.0715753380" lon="30.0393909775"><ele>81.37</ele><time>2026-04-25T10:03:35Z</time></trkpt><trkpt lat="59.0716319997" lon="30.0393840205"><ele>81.37</ele><time>2026-04-25T10:03:49Z</time></trkpt><trkpt lat="59.0716610011" lon="30.0393866189"><ele>81.37</ele><time>2026-04-25T10:04:02Z</time></trkpt><trkpt lat="59.0717925970" lon="30.0393375009"><ele>81.37</ele><time>2026-04-25T10:04:15Z</time></trkpt><trkpt lat="59.0718427207" lon="30.0393250119"><ele>81.37</ele><time>2026-04-25T10:04:29Z</time></trkpt><trkpt lat="59.0718733985" lon="30.0393260177"><ele>81.37</ele><time>2026-04-25T10:04:48Z</time></trkpt><trkpt lat="59.0719340835" lon="30.0392892212"><ele>81.37</ele><time>2026-04-25T10:05:01Z</time></trkpt><trkpt lat="59.0719423816" lon="30.0392837729"><ele>81.37</ele><time>2026-04-25T10:05:03Z</time></trkpt><trkpt lat="59.0720148850" lon="30.0391156320"><ele>81.37</ele><time>2026-04-25T10:05:17Z</time></trkpt><trkpt lat="59.0720482450" lon="30.0390896481"><ele>81.37</ele><time>2026-04-25T10:05:25Z</time></trkpt><trkpt lat="59.0720588062" lon="30.0391023885"><ele>81.37</ele><time>2026-04-25T10:05:40Z</time></trkpt><trkpt lat="59.0720761567" lon="30.0390682742"><ele>81.37</ele><time>2026-04-25T10:05:51Z</time></trkpt><trkpt lat="59.0721226763" lon="30.0390343275"><ele>81.37</ele><time>2026-04-25T10:06:02Z</time></trkpt><trkpt lat="59.0721701179" lon="30.0389407016"><ele>81.37</ele><time>2026-04-25T10:06:14Z</time></trkpt><trkpt lat="59.0721707046" lon="30.0389352534"><ele>81.37</ele><time>2026-04-25T10:06:28Z</time></trkpt><trkpt lat="59.0721750632" lon="30.0389501732"><ele>81.37</ele><time>2026-04-25T10:06:40Z</time></trkpt><trkpt lat="59.0722095128" lon="30.0389863830"><ele>81.37</ele><time>2026-04-25T10:06:51Z</time></trkpt><trkpt lat="59.0722513385" lon="30.0390777458"><ele>81.37</ele><time>2026-04-25T10:07:02Z</time></trkpt><trkpt lat="59.0723054018" lon="30.0391838606"><ele>81.37</ele><time>2026-04-25T10:07:14Z</time></trkpt><trkpt lat="59.0723106824" lon="30.0392007921"><ele>81.37</ele><time>2026-04-25T10:07:36Z</time></trkpt><trkpt lat="59.0723148733" lon="30.0392049830"><ele>80.89</ele><time>2026-04-25T10:07:56Z</time></trkpt><trkpt lat="59.0723732952" lon="30.0391204096"><ele>80.89</ele><time>2026-04-25T10:08:07Z</time></trkpt><trkpt lat="59.0724618081" lon="30.0390926655"><ele>80.89</ele><time>2026-04-25T10:08:21Z</time></trkpt><trkpt lat="59.0725043882" lon="30.0390729681"><ele>80.89</ele><time>2026-04-25T10:08:41Z</time></trkpt><trkpt lat="59.0725758020" lon="30.0390050747"><ele>80.89</ele><time>2026-04-25T10:08:56Z</time></trkpt><trkpt lat="59.0726117603" lon="30.0389438029"><ele>80.89</ele><time>2026-04-25T10:09:13Z</time></trkpt><trkpt lat="59.0726712719" lon="30.0388816092"><ele>80.89</ele><time>2026-04-25T10:09:26Z</time></trkpt><trkpt lat="59.0727468766" lon="30.0387633406"><ele>80.89</ele><time>2026-04-25T10:09:38Z</time></trkpt><trkpt lat="59.0727903787" lon="30.0386687927"><ele>80.89</ele><time>2026-04-25T10:09:50Z</time></trkpt><trkpt lat="59.0728341322" lon="30.0385421421"><ele>80.89</ele><time>2026-04-25T10:10:00Z</time></trkpt><trkpt lat="59.0728826635" lon="30.0385630131"><ele>81.37</ele><time>2026-04-25T10:10:17Z</time></trkpt><trkpt lat="59.0729176998" lon="30.0386190042"><ele>81.37</ele><time>2026-04-25T10:10:28Z</time></trkpt><trkpt lat="59.0729285125" lon="30.0386414677"><ele>81.37</ele><time>2026-04-25T10:10:45Z</time></trkpt><trkpt lat="59.0729377326" lon="30.0386542082"><ele>81.37</ele><time>2026-04-25T10:11:07Z</time></trkpt><trkpt lat="59.0729571786" lon="30.0386693794"><ele>81.37</ele><time>2026-04-25T10:11:13Z</time></trkpt><trkpt lat="59.0729998425" lon="30.0386835448"><ele>80.89</ele><time>2026-04-25T10:11:23Z</time></trkpt><trkpt lat="59.0730387345" lon="30.0387202576"><ele>80.89</ele><time>2026-04-25T10:11:34Z</time></trkpt><trkpt lat="59.0731509682" lon="30.0387671124"><ele>80.89</ele><time>2026-04-25T10:11:45Z</time></trkpt><trkpt lat="59.0732140001" lon="30.0388046633"><ele>80.89</ele><time>2026-04-25T10:11:57Z</time></trkpt><trkpt lat="59.0732554905" lon="30.0387718901"><ele>80.89</ele><time>2026-04-25T10:12:11Z</time></trkpt><trkpt lat="59.0733161755" lon="30.0386700500"><ele>80.89</ele><time>2026-04-25T10:12:23Z</time></trkpt><trkpt lat="59.0733714961" lon="30.0386578124"><ele>80.89</ele><time>2026-04-25T10:12:37Z</time></trkpt><trkpt lat="59.0734393056" lon="30.0386578124"><ele>80.89</ele><time>2026-04-25T10:12:50Z</time></trkpt><trkpt lat="59.0735713206" lon="30.0387044158"><ele>80.89</ele><time>2026-04-25T10:13:02Z</time></trkpt><trkpt lat="59.0737276431" lon="30.0386986323"><ele>80.89</ele><time>2026-04-25T10:13:16Z</time></trkpt><trkpt lat="59.0737598296" lon="30.0386652723"><ele>80.89</ele><time>2026-04-25T10:13:31Z</time></trkpt><trkpt lat="59.0737599973" lon="30.0386733189"><ele>80.89</ele><time>2026-04-25T10:13:56Z</time></trkpt><trkpt lat="59.0737744980" lon="30.0386800244"><ele>80.89</ele><time>2026-04-25T10:14:21Z</time></trkpt><trkpt lat="59.0737961233" lon="30.0387776736"><ele>80.89</ele><time>2026-04-25T10:14:34Z</time></trkpt><trkpt lat="59.0737899207" lon="30.0388755742"><ele>80.89</ele><time>2026-04-25T10:14:41Z</time></trkpt><trkpt lat="59.0737977158" lon="30.0390553661"><ele>80.89</ele><time>2026-04-25T10:14:54Z</time></trkpt><trkpt lat="59.0738058463" lon="30.0391462259"><ele>80.89</ele><time>2026-04-25T10:15:06Z</time></trkpt><trkpt lat="59.0738373622" lon="30.0392794982"><ele>81.37</ele><time>2026-04-25T10:15:21Z</time></trkpt><trkpt lat="59.0738365240" lon="30.0393222459"><ele>81.37</ele><time>2026-04-25T10:15:33Z</time></trkpt><trkpt lat="59.0738424752" lon="30.0393468048"><ele>81.37</ele><time>2026-04-25T10:15:47Z</time></trkpt><trkpt lat="59.0738419723" lon="30.0393665861"><ele>81.37</ele><time>2026-04-25T10:15:58Z</time></trkpt><trkpt lat="59.0738377813" lon="30.0393996108"><ele>81.37</ele><time>2026-04-25T10:16:00Z</time></trkpt><trkpt lat="59.0738544613" lon="30.0395970885"><ele>81.37</ele><time>2026-04-25T10:16:12Z</time></trkpt><trkpt lat="59.0738682076" lon="30.0396931451"><ele>81.37</ele><time>2026-04-25T10:16:23Z</time></trkpt><trkpt lat="59.0738786012" lon="30.0398922991"><ele>81.37</ele><time>2026-04-25T10:16:35Z</time></trkpt><trkpt lat="59.0739126317" lon="30.0400212128"><ele>81.37</ele><time>2026-04-25T10:16:45Z</time></trkpt><trkpt lat="59.0739195049" lon="30.0401655491"><ele>81.37</ele><time>2026-04-25T10:16:56Z</time></trkpt><trkpt lat="59.0739424713" lon="30.0402588397"><ele>81.85</ele><time>2026-04-25T10:17:08Z</time></trkpt><trkpt lat="59.0739398729" lon="30.0402558222"><ele>81.85</ele><time>2026-04-25T10:17:25Z</time></trkpt><trkpt lat="59.0739360172" lon="30.0402414054"><ele>81.85</ele><time>2026-04-25T10:17:41Z</time></trkpt><trkpt lat="59.0739334188" lon="30.0402611028"><ele>81.85</ele><time>2026-04-25T10:17:59Z</time></trkpt><trkpt lat="59.0739682876" lon="30.0404077023"><ele>81.85</ele><time>2026-04-25T10:18:07Z</time></trkpt><trkpt lat="59.0740057547" lon="30.0406383723"><ele>81.85</ele><time>2026-04-25T10:18:20Z</time></trkpt><trkpt lat="59.0740189981" lon="30.0408992171"><ele>81.85</ele><time>2026-04-25T10:18:32Z</time></trkpt><trkpt lat="59.0740247816" lon="30.0410018116"><ele>81.85</ele><time>2026-04-25T10:18:43Z</time></trkpt><trkpt lat="59.0740648471" lon="30.0411305577"><ele>81.85</ele><time>2026-04-25T10:18:57Z</time></trkpt><trkpt lat="59.0740612429" lon="30.0411957689"><ele>81.85</ele><time>2026-04-25T10:19:00Z</time></trkpt><trkpt lat="59.0740593150" lon="30.0413789134"><ele>81.85</ele><time>2026-04-25T10:19:12Z</time></trkpt><trkpt lat="59.0740568843" lon="30.0413815118"><ele>81.85</ele><time>2026-04-25T10:19:22Z</time></trkpt><trkpt lat="59.0740554594" lon="30.0413712021"><ele>81.85</ele><time>2026-04-25T10:19:45Z</time></trkpt><trkpt lat="59.0740595665" lon="30.0413886365"><ele>81.37</ele><time>2026-04-25T10:20:08Z</time></trkpt><trkpt lat="59.0740624163" lon="30.0413923245"><ele>81.37</ele><time>2026-04-25T10:20:30Z</time></trkpt><trkpt lat="59.0740716364" lon="30.0414073281"><ele>81.37</ele><time>2026-04-25T10:20:45Z</time></trkpt><trkpt lat="59.0740730613" lon="30.0414307136"><ele>81.37</ele><time>2026-04-25T10:20:56Z</time></trkpt><trkpt lat="59.0740763303" lon="30.0414722878"><ele>81.37</ele><time>2026-04-25T10:21:23Z</time></trkpt><trkpt lat="59.0740744863" lon="30.0415032171"><ele>81.37</ele><time>2026-04-25T10:21:53Z</time></trkpt><trkpt lat="59.0740854666" lon="30.0414784905"><ele>81.37</ele><time>2026-04-25T10:22:24Z</time></trkpt><trkpt lat="59.0740866400" lon="30.0414864533"><ele>81.37</ele><time>2026-04-25T10:23:03Z</time></trkpt><trkpt lat="59.0740967821" lon="30.0414993614"><ele>81.37</ele><time>2026-04-25T10:23:34Z</time></trkpt><trkpt lat="59.0740937646" lon="30.0414960086"><ele>81.37</ele><time>2026-04-25T10:24:03Z</time></trkpt><trkpt lat="59.0740933456" lon="30.0414742995"><ele>81.37</ele><time>2026-04-25T10:24:35Z</time></trkpt><trkpt lat="59.0740969498" lon="30.0414810050"><ele>81.37</ele><time>2026-04-25T10:25:04Z</time></trkpt><trkpt lat="59.0740989614" lon="30.0414722878"><ele>81.37</ele><time>2026-04-25T10:25:40Z</time></trkpt><trkpt lat="59.0741022304" lon="30.0414736290"><ele>81.37</ele><time>2026-04-25T10:26:08Z</time></trkpt><trkpt lat="59.0741015598" lon="30.0414736290"><ele>81.37</ele><time>2026-04-25T10:26:38Z</time></trkpt><trkpt lat="59.0740998834" lon="30.0414742995"><ele>81.37</ele><time>2026-04-25T10:27:07Z</time></trkpt><trkpt lat="59.0741007216" lon="30.0414713658"><ele>81.37</ele><time>2026-04-25T10:27:36Z</time></trkpt><trkpt lat="59.0741018951" lon="30.0414706115"><ele>81.37</ele><time>2026-04-25T10:28:05Z</time></trkpt><trkpt lat="59.0741004702" lon="30.0414638221"><ele>81.37</ele><time>2026-04-25T10:28:38Z</time></trkpt><trkpt lat="59.0740999673" lon="30.0414598826"><ele>81.37</ele><time>2026-04-25T10:29:11Z</time></trkpt><trkpt lat="59.0741006378" lon="30.0414573681"><ele>81.37</ele><time>2026-04-25T10:29:41Z</time></trkpt><trkpt lat="59.0741018113" lon="30.0414524227"><ele>81.37</ele><time>2026-04-25T10:30:11Z</time></trkpt><trkpt lat="59.0741021466" lon="30.0414578710"><ele>81.37</ele><time>2026-04-25T10:30:45Z</time></trkpt><trkpt lat="59.0741018951" lon="30.0414665882"><ele>81.37</ele><time>2026-04-25T10:31:19Z</time></trkpt><trkpt lat="59.0741027333" lon="30.0414691027"><ele>81.85</ele><time>2026-04-25T10:31:56Z</time></trkpt><trkpt lat="59.0741035715" lon="30.0414653309"><ele>81.85</ele><time>2026-04-25T10:32:31Z</time></trkpt><trkpt lat="59.0740999673" lon="30.0414629839"><ele>81.85</ele><time>2026-04-25T10:33:03Z</time></trkpt><trkpt lat="59.0740973689" lon="30.0414607208"><ele>81.85</ele><time>2026-04-25T10:33:36Z</time></trkpt><trkpt lat="59.0740924235" lon="30.0414710306"><ele>81.85</ele><time>2026-04-25T10:33:58Z</time></trkpt><trkpt lat="59.0740847960" lon="30.0414727908"><ele>81.85</ele><time>2026-04-25T10:34:12Z</time></trkpt><trkpt lat="59.0740584768" lon="30.0414404366"><ele>82.33</ele><time>2026-04-25T10:34:30Z</time></trkpt><trkpt lat="59.0740455687" lon="30.0414423645"><ele>82.33</ele><time>2026-04-25T10:34:41Z</time></trkpt><trkpt lat="59.0740316547" lon="30.0414387602"><ele>82.33</ele><time>2026-04-25T10:34:56Z</time></trkpt><trkpt lat="59.0740060899" lon="30.0414363295"><ele>82.81</ele><time>2026-04-25T10:35:11Z</time></trkpt><trkpt lat="59.0740052518" lon="30.0414362457"><ele>82.81</ele><time>2026-04-25T10:35:13Z</time></trkpt><trkpt lat="59.0739678685" lon="30.0414432026"><ele>82.81</ele><time>2026-04-25T10:35:21Z</time></trkpt><trkpt lat="59.0738888271" lon="30.0413482357"><ele>82.81</ele><time>2026-04-25T10:35:34Z</time></trkpt><trkpt lat="59.0738627594" lon="30.0413164683"><ele>82.81</ele><time>2026-04-25T10:35:54Z</time></trkpt><trkpt lat="59.0737369470" lon="30.0413768180"><ele>82.81</ele><time>2026-04-25T10:36:07Z</time></trkpt><trkpt lat="59.0737025812" lon="30.0413609762"><ele>82.81</ele><time>2026-04-25T10:36:10Z</time></trkpt><trkpt lat="59.0736173373" lon="30.0413598027"><ele>82.81</ele><time>2026-04-25T10:36:22Z</time></trkpt><trkpt lat="59.0735324286" lon="30.0414144527"><ele>82.81</ele><time>2026-04-25T10:36:31Z</time></trkpt><trkpt lat="59.0734442510" lon="30.0414819270"><ele>82.81</ele><time>2026-04-25T10:36:44Z</time></trkpt><trkpt lat="59.0733876731" lon="30.0414878782"><ele>82.33</ele><time>2026-04-25T10:36:53Z</time></trkpt><trkpt lat="59.0732686501" lon="30.0415411871"><ele>82.33</ele><time>2026-04-25T10:37:04Z</time></trkpt><trkpt lat="59.0731602721" lon="30.0415602978"><ele>82.33</ele><time>2026-04-25T10:37:17Z</time></trkpt><trkpt lat="59.0730676521" lon="30.0415735412"><ele>82.33</ele><time>2026-04-25T10:37:24Z</time></trkpt><trkpt lat="59.0730280057" lon="30.0416680053"><ele>82.33</ele><time>2026-04-25T10:37:35Z</time></trkpt><trkpt lat="59.0730127506" lon="30.0416347291"><ele>82.33</ele><time>2026-04-25T10:37:54Z</time></trkpt><trkpt lat="59.0729942266" lon="30.0416522473"><ele>82.33</ele><time>2026-04-25T10:38:01Z</time></trkpt><trkpt lat="59.0729216393" lon="30.0417333003"><ele>82.33</ele><time>2026-04-25T10:38:11Z</time></trkpt><trkpt lat="59.0728021134" lon="30.0417664926"><ele>82.33</ele><time>2026-04-25T10:38:23Z</time></trkpt><trkpt lat="59.0727617126" lon="30.0417714380"><ele>82.33</ele><time>2026-04-25T10:38:29Z</time></trkpt><trkpt lat="59.0726787318" lon="30.0418524910"><ele>82.33</ele><time>2026-04-25T10:38:40Z</time></trkpt><trkpt lat="59.0725806635" lon="30.0418708473"><ele>82.33</ele><time>2026-04-25T10:38:50Z</time></trkpt><trkpt lat="59.0725535061" lon="30.0418796483"><ele>82.33</ele><time>2026-04-25T10:39:02Z</time></trkpt><trkpt lat="59.0725331381" lon="30.0418830849"><ele>82.33</ele><time>2026-04-25T10:39:04Z</time></trkpt><trkpt lat="59.0725080762" lon="30.0418869406"><ele>82.33</ele><time>2026-04-25T10:39:07Z</time></trkpt><trkpt lat="59.0724047273" lon="30.0419353042"><ele>82.33</ele><time>2026-04-25T10:39:19Z</time></trkpt><trkpt lat="59.0723460540" lon="30.0419402495"><ele>82.33</ele><time>2026-04-25T10:39:27Z</time></trkpt><trkpt lat="59.0722887218" lon="30.0418990105"><ele>82.33</ele><time>2026-04-25T10:39:37Z</time></trkpt><trkpt lat="59.0722320601" lon="30.0418566819"><ele>81.85</ele><time>2026-04-25T10:39:52Z</time></trkpt><trkpt lat="59.0722173080" lon="30.0418545026"><ele>81.85</ele><time>2026-04-25T10:40:10Z</time></trkpt><trkpt lat="59.0721887257" lon="30.0418488029"><ele>81.85</ele><time>2026-04-25T10:40:30Z</time></trkpt><trkpt lat="59.0721235983" lon="30.0418330450"><ele>81.85</ele><time>2026-04-25T10:40:41Z</time></trkpt><trkpt lat="59.0720264520" lon="30.0418555085"><ele>81.85</ele><time>2026-04-25T10:40:56Z</time></trkpt><trkpt lat="59.0719469078" lon="30.0418815762"><ele>81.85</ele><time>2026-04-25T10:41:05Z</time></trkpt><trkpt lat="59.0719388612" lon="30.0418925565"><ele>81.85</ele><time>2026-04-25T10:41:06Z</time></trkpt><trkpt lat="59.0718576405" lon="30.0419881102"><ele>81.85</ele><time>2026-04-25T10:41:15Z</time></trkpt><trkpt lat="59.0717810299" lon="30.0420344621"><ele>81.85</ele><time>2026-04-25T10:41:26Z</time></trkpt><trkpt lat="59.0716927685" lon="30.0420778804"><ele>81.85</ele><time>2026-04-25T10:41:37Z</time></trkpt><trkpt lat="59.0716236178" lon="30.0421327818"><ele>81.85</ele><time>2026-04-25T10:41:49Z</time></trkpt><trkpt lat="59.0715739969" lon="30.0421452709"><ele>81.85</ele><time>2026-04-25T10:42:04Z</time></trkpt><trkpt lat="59.0715143178" lon="30.0421852525"><ele>81.85</ele><time>2026-04-25T10:42:10Z</time></trkpt><trkpt lat="59.0714716539" lon="30.0422379747"><ele>81.85</ele><time>2026-04-25T10:42:20Z</time></trkpt><trkpt lat="59.0713908523" lon="30.0422764476"><ele>81.85</ele><time>2026-04-25T10:42:32Z</time></trkpt><trkpt lat="59.0713620186" lon="30.0422776211"><ele>81.85</ele><time>2026-04-25T10:42:47Z</time></trkpt><trkpt lat="59.0713326819" lon="30.0422816444"><ele>81.85</ele><time>2026-04-25T10:43:07Z</time></trkpt><trkpt lat="59.0711922012" lon="30.0422950555"><ele>81.85</ele><time>2026-04-25T10:43:20Z</time></trkpt><trkpt lat="59.0711111482" lon="30.0423053652"><ele>81.85</ele><time>2026-04-25T10:43:30Z</time></trkpt><trkpt lat="59.0711022634" lon="30.0423041917"><ele>81.85</ele><time>2026-04-25T10:43:32Z</time></trkpt><trkpt lat="59.0710243117" lon="30.0422467757"><ele>82.33</ele><time>2026-04-25T10:43:46Z</time></trkpt><trkpt lat="59.0709657222" lon="30.0422805548"><ele>82.33</ele><time>2026-04-25T10:43:56Z</time></trkpt><trkpt lat="59.0709083900" lon="30.0422855839"><ele>82.33</ele><time>2026-04-25T10:44:06Z</time></trkpt><trkpt lat="59.0708414186" lon="30.0423162617"><ele>81.85</ele><time>2026-04-25T10:44:17Z</time></trkpt><trkpt lat="59.0708042029" lon="30.0423353724"><ele>81.85</ele><time>2026-04-25T10:44:28Z</time></trkpt><trkpt lat="59.0707622934" lon="30.0423533935"><ele>81.85</ele><time>2026-04-25T10:44:38Z</time></trkpt><trkpt lat="59.0706951544" lon="30.0423308462"><ele>81.85</ele><time>2026-04-25T10:44:48Z</time></trkpt><trkpt lat="59.0706060547" lon="30.0422616955"><ele>81.85</ele><time>2026-04-25T10:45:01Z</time></trkpt><trkpt lat="59.0705827530" lon="30.0422968995"><ele>81.85</ele><time>2026-04-25T10:45:11Z</time></trkpt><trkpt lat="59.0705368202" lon="30.0423362944"><ele>81.85</ele><time>2026-04-25T10:45:23Z</time></trkpt><trkpt lat="59.0704884566" lon="30.0423523039"><ele>81.85</ele><time>2026-04-25T10:45:32Z</time></trkpt><trkpt lat="59.0704557672" lon="30.0423551537"><ele>81.85</ele><time>2026-04-25T10:45:47Z</time></trkpt><trkpt lat="59.0704360697" lon="30.0423195306"><ele>81.85</ele><time>2026-04-25T10:46:12Z</time></trkpt><trkpt lat="59.0704322979" lon="30.0423206203"><ele>81.85</ele><time>2026-04-25T10:46:24Z</time></trkpt><trkpt lat="59.0704241674" lon="30.0423294213"><ele>81.85</ele><time>2026-04-25T10:46:35Z</time></trkpt><trkpt lat="59.0704079065" lon="30.0423390605"><ele>81.85</ele><time>2026-04-25T10:46:50Z</time></trkpt><trkpt lat="59.0703895502" lon="30.0423549023"><ele>81.85</ele><time>2026-04-25T10:47:05Z</time></trkpt><trkpt lat="59.0703838505" lon="30.0423824787"><ele>81.85</ele><time>2026-04-25T10:47:23Z</time></trkpt><trkpt lat="59.0703777317" lon="30.0423827302"><ele>81.85</ele><time>2026-04-25T10:47:34Z</time></trkpt><trkpt lat="59.0703577828" lon="30.0424315967"><ele>81.85</ele><time>2026-04-25T10:47:45Z</time></trkpt><trkpt lat="59.0703426115" lon="30.0424590055"><ele>82.33</ele><time>2026-04-25T10:48:00Z</time></trkpt><trkpt lat="59.0703236684" lon="30.0424724165"><ele>82.33</ele><time>2026-04-25T10:48:11Z</time></trkpt><trkpt lat="59.0703062341" lon="30.0424729194"><ele>82.33</ele><time>2026-04-25T10:48:27Z</time></trkpt><trkpt lat="59.0703116823" lon="30.0424884260"><ele>82.33</ele><time>2026-04-25T10:48:37Z</time></trkpt><trkpt lat="59.0703001153" lon="30.0424952991"><ele>82.33</ele><time>2026-04-25T10:48:55Z</time></trkpt><trkpt lat="59.0702369157" lon="30.0424997415"><ele>82.33</ele><time>2026-04-25T10:49:09Z</time></trkpt><trkpt lat="59.0701777395" lon="30.0425020047"><ele>82.33</ele><time>2026-04-25T10:49:21Z</time></trkpt><trkpt lat="59.0700770728" lon="30.0425144937"><ele>82.33</ele><time>2026-04-25T10:49:31Z</time></trkpt><trkpt lat="59.0699540265" lon="30.0425341912"><ele>82.33</ele><time>2026-04-25T10:49:42Z</time></trkpt><trkpt lat="59.0698909946" lon="30.0425839797"><ele>82.33</ele><time>2026-04-25T10:49:53Z</time></trkpt><trkpt lat="59.0698210895" lon="30.0427343510"><ele>82.33</ele><time>2026-04-25T10:50:04Z</time></trkpt><trkpt lat="59.0697804373" lon="30.0427403022"><ele>82.33</ele><time>2026-04-25T10:50:14Z</time></trkpt><trkpt lat="59.0697526932" lon="30.0427302439"><ele>82.33</ele><time>2026-04-25T10:50:28Z</time></trkpt><trkpt lat="59.0697042458" lon="30.0427527074"><ele>82.81</ele><time>2026-04-25T10:50:40Z</time></trkpt><trkpt lat="59.0696758311" lon="30.0427414756"><ele>82.81</ele><time>2026-04-25T10:51:06Z</time></trkpt><trkpt lat="59.0696442313" lon="30.0427348539"><ele>83.29</ele><time>2026-04-25T10:51:21Z</time></trkpt><trkpt lat="59.0696076863" lon="30.0427133963"><ele>83.29</ele><time>2026-04-25T10:51:45Z</time></trkpt><trkpt lat="59.0695279744" lon="30.0427572336"><ele>83.29</ele><time>2026-04-25T10:51:55Z</time></trkpt><trkpt lat="59.0694785211" lon="30.0427814573"><ele>83.29</ele><time>2026-04-25T10:52:05Z</time></trkpt><trkpt lat="59.0694097057" lon="30.0428343471"><ele>83.29</ele><time>2026-04-25T10:52:16Z</time></trkpt><trkpt lat="59.0693543013" lon="30.0428769272"><ele>83.29</ele><time>2026-04-25T10:52:25Z</time></trkpt><trkpt lat="59.0692855697" lon="30.0429669488"><ele>83.29</ele><time>2026-04-25T10:52:37Z</time></trkpt><trkpt lat="59.0692600049" lon="30.0429733191"><ele>83.77</ele><time>2026-04-25T10:52:45Z</time></trkpt><trkpt lat="59.0692483541" lon="30.0429630093"><ele>83.77</ele><time>2026-04-25T10:52:47Z</time></trkpt><trkpt lat="59.0691310074" lon="30.0430230238"><ele>83.77</ele><time>2026-04-25T10:52:57Z</time></trkpt><trkpt lat="59.0690719988" lon="30.0430083554"><ele>83.77</ele><time>2026-04-25T10:53:06Z</time></trkpt><trkpt lat="59.0689856652" lon="30.0431017298"><ele>84.25</ele><time>2026-04-25T10:53:17Z</time></trkpt><trkpt lat="59.0689129103" lon="30.0431159791"><ele>84.25</ele><time>2026-04-25T10:53:28Z</time></trkpt><trkpt lat="59.0688954759" lon="30.0430350937"><ele>84.25</ele><time>2026-04-25T10:53:39Z</time></trkpt><trkpt lat="59.0688781254" lon="30.0429113768"><ele>84.25</ele><time>2026-04-25T10:53:52Z</time></trkpt><trkpt lat="59.0688231401" lon="30.0428665336"><ele>84.25</ele><time>2026-04-25T10:54:03Z</time></trkpt><trkpt lat="59.0687010996" lon="30.0428377837"><ele>84.73</ele><time>2026-04-25T10:54:13Z</time></trkpt><trkpt lat="59.0686367266" lon="30.0428693835"><ele>84.73</ele><time>2026-04-25T10:54:24Z</time></trkpt><trkpt lat="59.0686203819" lon="30.0428138953"><ele>84.73</ele><time>2026-04-25T10:54:47Z</time></trkpt><trkpt lat="59.0685730241" lon="30.0428423937"><ele>84.73</ele><time>2026-04-25T10:55:05Z</time></trkpt><trkpt lat="59.0685029514" lon="30.0428809505"><ele>84.73</ele><time>2026-04-25T10:55:16Z</time></trkpt><trkpt lat="59.0684463736" lon="30.0430123787"><ele>84.73</ele><time>2026-04-25T10:55:27Z</time></trkpt><trkpt lat="59.0683949087" lon="30.0431574695"><ele>84.73</ele><time>2026-04-25T10:55:38Z</time></trkpt><trkpt lat="59.0683433600" lon="30.0431837887"><ele>85.21</ele><time>2026-04-25T10:55:54Z</time></trkpt><trkpt lat="59.0683260094" lon="30.0431795139"><ele>85.21</ele><time>2026-04-25T10:55:56Z</time></trkpt><trkpt lat="59.0682252590" lon="30.0432051625"><ele>85.21</ele><time>2026-04-25T10:56:09Z</time></trkpt><trkpt lat="59.0682191402" lon="30.0432013907"><ele>85.21</ele><time>2026-04-25T10:56:11Z</time></trkpt><trkpt lat="59.0681412723" lon="30.0432356726"><ele>85.21</ele><time>2026-04-25T10:56:23Z</time></trkpt><trkpt lat="59.0681275260" lon="30.0432396960"><ele>85.21</ele><time>2026-04-25T10:56:27Z</time></trkpt><trkpt lat="59.0680456348" lon="30.0432458986"><ele>85.21</ele><time>2026-04-25T10:56:38Z</time></trkpt><trkpt lat="59.0679784119" lon="30.0432545319"><ele>85.21</ele><time>2026-04-25T10:56:46Z</time></trkpt><trkpt lat="59.0678824391" lon="30.0433066674"><ele>85.21</ele><time>2026-04-25T10:56:56Z</time></trkpt><trkpt lat="59.0678514261" lon="30.0433202460"><ele>85.21</ele><time>2026-04-25T10:57:16Z</time></trkpt><trkpt lat="59.0678349137" lon="30.0433277059"><ele>85.21</ele><time>2026-04-25T10:57:34Z</time></trkpt><trkpt lat="59.0678214189" lon="30.0433272868"><ele>85.21</ele><time>2026-04-25T10:57:38Z</time></trkpt><trkpt lat="59.0677860472" lon="30.0433772430"><ele>85.69</ele><time>2026-04-25T10:57:48Z</time></trkpt><trkpt lat="59.0677363425" lon="30.0434233434"><ele>85.69</ele><time>2026-04-25T10:57:57Z</time></trkpt><trkpt lat="59.0676473267" lon="30.0434357487"><ele>85.69</ele><time>2026-04-25T10:58:04Z</time></trkpt><trkpt lat="59.0675060917" lon="30.0434044842"><ele>85.69</ele><time>2026-04-25T10:58:16Z</time></trkpt><trkpt lat="59.0674506035" lon="30.0433871336"><ele>85.69</ele><time>2026-04-25T10:58:22Z</time></trkpt><trkpt lat="59.0673687123" lon="30.0433934201"><ele>85.69</ele><time>2026-04-25T10:58:31Z</time></trkpt><trkpt lat="59.0673184209" lon="30.0435211603"><ele>85.69</ele><time>2026-04-25T10:58:42Z</time></trkpt><trkpt lat="59.0672686324" lon="30.0435408577"><ele>85.69</ele><time>2026-04-25T10:58:52Z</time></trkpt><trkpt lat="59.0672524553" lon="30.0435185619"><ele>85.69</ele><time>2026-04-25T10:58:55Z</time></trkpt><trkpt lat="59.0671912674" lon="30.0434811786"><ele>85.69</ele><time>2026-04-25T10:59:07Z</time></trkpt><trkpt lat="59.0671492741" lon="30.0434311386"><ele>86.18</ele><time>2026-04-25T10:59:16Z</time></trkpt><trkpt lat="59.0670895111" lon="30.0434328150"><ele>86.18</ele><time>2026-04-25T10:59:27Z</time></trkpt><trkpt lat="59.0670547262" lon="30.0434580445"><ele>86.18</ele><time>2026-04-25T10:59:36Z</time></trkpt><trkpt lat="59.0670412313" lon="30.0434598885"><ele>86.18</ele><time>2026-04-25T10:59:37Z</time></trkpt><trkpt lat="59.0670093801" lon="30.0434521772"><ele>86.18</ele><time>2026-04-25T10:59:48Z</time></trkpt><trkpt lat="59.0669909399" lon="30.0434625708"><ele>86.18</ele><time>2026-04-25T11:00:02Z</time></trkpt><trkpt lat="59.0669730026" lon="30.0434560329"><ele>86.18</ele><time>2026-04-25T11:00:21Z</time></trkpt><trkpt lat="59.0669167601" lon="30.0435161311"><ele>86.18</ele><time>2026-04-25T11:00:32Z</time></trkpt><trkpt lat="59.0668522194" lon="30.0435552746"><ele>86.18</ele><time>2026-04-25T11:00:41Z</time></trkpt><trkpt lat="59.0668175183" lon="30.0435263570"><ele>86.18</ele><time>2026-04-25T11:00:52Z</time></trkpt><trkpt lat="59.0667806379" lon="30.0435236748"><ele>86.66</ele><time>2026-04-25T11:01:00Z</time></trkpt><trkpt lat="59.0667607728" lon="30.0435243454"><ele>86.66</ele><time>2026-04-25T11:01:02Z</time></trkpt><trkpt lat="59.0666523948" lon="30.0435454678"><ele>86.66</ele><time>2026-04-25T11:01:12Z</time></trkpt><trkpt lat="59.0665307734" lon="30.0435744692"><ele>87.14</ele><time>2026-04-25T11:01:23Z</time></trkpt><trkpt lat="59.0664900374" lon="30.0435732957"><ele>86.66</ele><time>2026-04-25T11:01:38Z</time></trkpt><trkpt lat="59.0664213896" lon="30.0435708649"><ele>87.14</ele><time>2026-04-25T11:01:47Z</time></trkpt><trkpt lat="59.0663854312" lon="30.0435817614"><ele>87.14</ele><time>2026-04-25T11:01:51Z</time></trkpt><trkpt lat="59.0662426874" lon="30.0436843559"><ele>87.14</ele><time>2026-04-25T11:02:04Z</time></trkpt><trkpt lat="59.0661939047" lon="30.0437457953"><ele>87.14</ele><time>2026-04-25T11:02:15Z</time></trkpt><trkpt lat="59.0661207307" lon="30.0438577775"><ele>87.14</ele><time>2026-04-25T11:02:25Z</time></trkpt><trkpt lat="59.0660281945" lon="30.0439011119"><ele>87.14</ele><time>2026-04-25T11:02:39Z</time></trkpt><trkpt lat="59.0659783222" lon="30.0439331308"><ele>87.14</ele><time>2026-04-25T11:02:48Z</time></trkpt><trkpt lat="59.0659557749" lon="30.0439604558"><ele>87.14</ele><time>2026-04-25T11:02:52Z</time></trkpt><trkpt lat="59.0659119375" lon="30.0440550037"><ele>87.14</ele><time>2026-04-25T11:03:01Z</time></trkpt><trkpt lat="59.0658299625" lon="30.0441056304"><ele>86.66</ele><time>2026-04-25T11:03:13Z</time></trkpt><trkpt lat="59.0658134501" lon="30.0441093184"><ele>86.66</ele><time>2026-04-25T11:03:23Z</time></trkpt><trkpt lat="59.0658185631" lon="30.0441068038"><ele>86.66</ele><time>2026-04-25T11:03:46Z</time></trkpt><trkpt lat="59.0658261068" lon="30.0441425107"><ele>86.66</ele><time>2026-04-25T11:04:07Z</time></trkpt><trkpt lat="59.0658297949" lon="30.0441612024"><ele>86.66</ele><time>2026-04-25T11:04:09Z</time></trkpt><trkpt lat="59.0658760630" lon="30.0442477874"><ele>86.18</ele><time>2026-04-25T11:04:20Z</time></trkpt><trkpt lat="59.0658976045" lon="30.0442730170"><ele>86.18</ele><time>2026-04-25T11:04:25Z</time></trkpt><trkpt lat="59.0659454651" lon="30.0443289243"><ele>86.18</ele><time>2026-04-25T11:04:34Z</time></trkpt><trkpt lat="59.0659935772" lon="30.0444476120"><ele>86.66</ele><time>2026-04-25T11:04:45Z</time></trkpt><trkpt lat="59.0659970976" lon="30.0445464347"><ele>86.66</ele><time>2026-04-25T11:04:56Z</time></trkpt><trkpt lat="59.0660043899" lon="30.0446743425"><ele>86.66</ele><time>2026-04-25T11:05:10Z</time></trkpt><trkpt lat="59.0660042223" lon="30.0446824729"><ele>86.66</ele><time>2026-04-25T11:05:11Z</time></trkpt><trkpt lat="59.0659557749" lon="30.0448813755"><ele>86.66</ele><time>2026-04-25T11:05:24Z</time></trkpt><trkpt lat="59.0659798309" lon="30.0450235326"><ele>86.18</ele><time>2026-04-25T11:05:35Z</time></trkpt><trkpt lat="59.0659939125" lon="30.0450922642"><ele>86.18</ele><time>2026-04-25T11:05:46Z</time></trkpt><trkpt lat="59.0660088323" lon="30.0451956131"><ele>86.18</ele><time>2026-04-25T11:05:59Z</time></trkpt><trkpt lat="59.0660054795" lon="30.0452849641"><ele>86.18</ele><time>2026-04-25T11:06:12Z</time></trkpt><trkpt lat="59.0659944154" lon="30.0453334954"><ele>85.69</ele><time>2026-04-25T11:06:35Z</time></trkpt><trkpt lat="59.0659945831" lon="30.0453980360"><ele>85.69</ele><time>2026-04-25T11:06:47Z</time></trkpt><trkpt lat="59.0660110116" lon="30.0455019716"><ele>85.69</ele><time>2026-04-25T11:06:57Z</time></trkpt><trkpt lat="59.0660205670" lon="30.0456473976"><ele>84.73</ele><time>2026-04-25T11:07:08Z</time></trkpt><trkpt lat="59.0660426114" lon="30.0457038078"><ele>84.73</ele><time>2026-04-25T11:07:17Z</time></trkpt><trkpt lat="59.0660892148" lon="30.0458770618"><ele>84.25</ele><time>2026-04-25T11:07:27Z</time></trkpt><trkpt lat="59.0660800785" lon="30.0459851045"><ele>84.25</ele><time>2026-04-25T11:07:36Z</time></trkpt><trkpt lat="59.0660728700" lon="30.0461115874"><ele>84.25</ele><time>2026-04-25T11:07:47Z</time></trkpt><trkpt lat="59.0660825931" lon="30.0462491345"><ele>83.77</ele><time>2026-04-25T11:08:00Z</time></trkpt><trkpt lat="59.0660968423" lon="30.0463013537"><ele>83.77</ele><time>2026-04-25T11:08:15Z</time></trkpt><trkpt lat="59.0661049727" lon="30.0463105738"><ele>83.77</ele><time>2026-04-25T11:08:38Z</time></trkpt><trkpt lat="59.0661163721" lon="30.0462959055"><ele>83.77</ele><time>2026-04-25T11:08:49Z</time></trkpt><trkpt lat="59.0661498997" lon="30.0462461170"><ele>83.77</ele><time>2026-04-25T11:08:59Z</time></trkpt><trkpt lat="59.0661789849" lon="30.0461758766"><ele>83.77</ele><time>2026-04-25T11:09:10Z</time></trkpt><trkpt lat="59.0662102494" lon="30.0460835081"><ele>83.77</ele><time>2026-04-25T11:09:22Z</time></trkpt><trkpt lat="59.0662535839" lon="30.0460052211"><ele>83.77</ele><time>2026-04-25T11:09:33Z</time></trkpt><trkpt lat="59.0663229860" lon="30.0459598750"><ele>83.77</ele><time>2026-04-25T11:09:46Z</time></trkpt><trkpt lat="59.0663364809" lon="30.0459539238"><ele>83.77</ele><time>2026-04-25T11:09:48Z</time></trkpt><trkpt lat="59.0664123371" lon="30.0459932350"><ele>83.77</ele><time>2026-04-25T11:09:58Z</time></trkpt><trkpt lat="59.0664322861" lon="30.0459922291"><ele>83.77</ele><time>2026-04-25T11:10:04Z</time></trkpt><trkpt lat="59.0665202960" lon="30.0460552610"><ele>83.29</ele><time>2026-04-25T11:10:14Z</time></trkpt><trkpt lat="59.0665421728" lon="30.0460775569"><ele>83.29</ele><time>2026-04-25T11:10:17Z</time></trkpt><trkpt lat="59.0666181967" lon="30.0460167043"><ele>83.29</ele><time>2026-04-25T11:10:32Z</time></trkpt><trkpt lat="59.0666558314" lon="30.0459561870"><ele>82.81</ele><time>2026-04-25T11:10:46Z</time></trkpt><trkpt lat="59.0666744392" lon="30.0458711945"><ele>82.81</ele><time>2026-04-25T11:10:56Z</time></trkpt><trkpt lat="59.0667212941" lon="30.0458157063"><ele>82.81</ele><time>2026-04-25T11:11:07Z</time></trkpt><trkpt lat="59.0667540673" lon="30.0457687676"><ele>82.33</ele><time>2026-04-25T11:11:15Z</time></trkpt><trkpt lat="59.0668035205" lon="30.0457162969"><ele>82.33</ele><time>2026-04-25T11:11:26Z</time></trkpt><trkpt lat="59.0668248106" lon="30.0456937496"><ele>82.33</ele><time>2026-04-25T11:11:33Z</time></trkpt><trkpt lat="59.0669124853" lon="30.0457424484"><ele>82.33</ele><time>2026-04-25T11:11:44Z</time></trkpt><trkpt lat="59.0669402294" lon="30.0457476452"><ele>82.33</ele><time>2026-04-25T11:11:56Z</time></trkpt><trkpt lat="59.0669450071" lon="30.0457639899"><ele>81.85</ele><time>2026-04-25T11:12:17Z</time></trkpt><trkpt lat="59.0669723321" lon="30.0457592960"><ele>81.85</ele><time>2026-04-25T11:12:37Z</time></trkpt><trkpt lat="59.0669820551" lon="30.0457603857"><ele>81.85</ele><time>2026-04-25T11:12:39Z</time></trkpt><trkpt lat="59.0670616832" lon="30.0457970984"><ele>81.37</ele><time>2026-04-25T11:12:50Z</time></trkpt><trkpt lat="59.0671128966" lon="30.0458074082"><ele>81.37</ele><time>2026-04-25T11:12:59Z</time></trkpt><trkpt lat="59.0671649482" lon="30.0458399300"><ele>81.37</ele><time>2026-04-25T11:13:14Z</time></trkpt><trkpt lat="59.0671697259" lon="30.0458398461"><ele>81.37</ele><time>2026-04-25T11:13:20Z</time></trkpt><trkpt lat="59.0671899263" lon="30.0458086655"><ele>80.89</ele><time>2026-04-25T11:13:28Z</time></trkpt><trkpt lat="59.0672252141" lon="30.0457020476"><ele>80.89</ele><time>2026-04-25T11:13:37Z</time></trkpt><trkpt lat="59.0672426485" lon="30.0456890557"><ele>80.89</ele><time>2026-04-25T11:13:39Z</time></trkpt><trkpt lat="59.0673620906" lon="30.0456625689"><ele>80.89</ele><time>2026-04-25T11:13:49Z</time></trkpt><trkpt lat="59.0674145613" lon="30.0456649996"><ele>80.89</ele><time>2026-04-25T11:13:54Z</time></trkpt><trkpt lat="59.0674808621" lon="30.0457459688"><ele>80.89</ele><time>2026-04-25T11:13:58Z</time></trkpt><trkpt lat="59.0675145574" lon="30.0458001159"><ele>80.41</ele><time>2026-04-25T11:14:16Z</time></trkpt><trkpt lat="59.0675239451" lon="30.0458030496"><ele>80.41</ele><time>2026-04-25T11:14:27Z</time></trkpt><trkpt lat="59.0675837081" lon="30.0457147043"><ele>80.41</ele><time>2026-04-25T11:14:38Z</time></trkpt><trkpt lat="59.0676728915" lon="30.0456235930"><ele>80.41</ele><time>2026-04-25T11:14:49Z</time></trkpt><trkpt lat="59.0677100234" lon="30.0455615669"><ele>80.41</ele><time>2026-04-25T11:14:56Z</time></trkpt><trkpt lat="59.0678121988" lon="30.0455147121"><ele>79.93</ele><time>2026-04-25T11:15:08Z</time></trkpt><trkpt lat="59.0679222532" lon="30.0455146283"><ele>79.93</ele><time>2026-04-25T11:15:20Z</time></trkpt><trkpt lat="59.0679365862" lon="30.0455127005"><ele>79.93</ele><time>2026-04-25T11:15:21Z</time></trkpt><trkpt lat="59.0680233389" lon="30.0454885606"><ele>79.93</ele><time>2026-04-25T11:15:29Z</time></trkpt><trkpt lat="59.0681018773" lon="30.0454565417"><ele>79.93</ele><time>2026-04-25T11:15:40Z</time></trkpt><trkpt lat="59.0681447089" lon="30.0454565417"><ele>80.89</ele><time>2026-04-25T11:15:55Z</time></trkpt><trkpt lat="59.0681841876" lon="30.0454587210"><ele>80.89</ele><time>2026-04-25T11:16:20Z</time></trkpt><trkpt lat="59.0682153683" lon="30.0454763230"><ele>80.89</ele><time>2026-04-25T11:16:30Z</time></trkpt><trkpt lat="59.0682680067" lon="30.0455321465"><ele>80.89</ele><time>2026-04-25T11:16:44Z</time></trkpt><trkpt lat="59.0682809986" lon="30.0455306377"><ele>80.89</ele><time>2026-04-25T11:16:45Z</time></trkpt><trkpt lat="59.0683468804" lon="30.0455239322"><ele>80.41</ele><time>2026-04-25T11:16:51Z</time></trkpt><trkpt lat="59.0683647338" lon="30.0454947632"><ele>80.41</ele><time>2026-04-25T11:16:54Z</time></trkpt><trkpt lat="59.0685282648" lon="30.0454378501"><ele>80.41</ele><time>2026-04-25T11:17:04Z</time></trkpt><trkpt lat="59.0685947333" lon="30.0454301387"><ele>80.41</ele><time>2026-04-25T11:17:12Z</time></trkpt><trkpt lat="59.0686570946" lon="30.0454182364"><ele>80.41</ele><time>2026-04-25T11:17:22Z</time></trkpt><trkpt lat="59.0687209647" lon="30.0454812683"><ele>80.41</ele><time>2026-04-25T11:17:32Z</time></trkpt><trkpt lat="59.0687692445" lon="30.0454596430"><ele>80.41</ele><time>2026-04-25T11:17:43Z</time></trkpt><trkpt lat="59.0688014310" lon="30.0454234332"><ele>80.41</ele><time>2026-04-25T11:17:49Z</time></trkpt><trkpt lat="59.0688456036" lon="30.0453744829"><ele>80.41</ele><time>2026-04-25T11:18:00Z</time></trkpt><trkpt lat="59.0688888542" lon="30.0453407038"><ele>80.41</ele><time>2026-04-25T11:18:12Z</time></trkpt><trkpt lat="59.0689214598" lon="30.0452972017"><ele>80.41</ele><time>2026-04-25T11:18:24Z</time></trkpt><trkpt lat="59.0689508803" lon="30.0452430546"><ele>80.41</ele><time>2026-04-25T11:18:34Z</time></trkpt><trkpt lat="59.0689736791" lon="30.0451360177"><ele>79.93</ele><time>2026-04-25T11:18:46Z</time></trkpt><trkpt lat="59.0690262336" lon="30.0451178290"><ele>79.93</ele><time>2026-04-25T11:18:56Z</time></trkpt><trkpt lat="59.0691921953" lon="30.0451641809"><ele>79.93</ele><time>2026-04-25T11:19:08Z</time></trkpt><trkpt lat="59.0692268964" lon="30.0451728981"><ele>79.93</ele><time>2026-04-25T11:19:25Z</time></trkpt><trkpt lat="59.0692854859" lon="30.0451495126"><ele>79.93</ele><time>2026-04-25T11:19:42Z</time></trkpt><trkpt lat="59.0693013277" lon="30.0451563019"><ele>79.93</ele><time>2026-04-25T11:19:44Z</time></trkpt><trkpt lat="59.0693412255" lon="30.0452113710"><ele>79.93</ele><time>2026-04-25T11:19:50Z</time></trkpt><trkpt lat="59.0693589114" lon="30.0452548731"><ele>79.93</ele><time>2026-04-25T11:19:56Z</time></trkpt><trkpt lat="59.0694047604" lon="30.0452184118"><ele>79.93</ele><time>2026-04-25T11:20:02Z</time></trkpt><trkpt lat="59.0694361925" lon="30.0451060105"><ele>79.93</ele><time>2026-04-25T11:20:13Z</time></trkpt><trkpt lat="59.0694524534" lon="30.0450438168"><ele>79.93</ele><time>2026-04-25T11:20:16Z</time></trkpt><trkpt lat="59.0695617534" lon="30.0449064374"><ele>79.93</ele><time>2026-04-25T11:20:30Z</time></trkpt><trkpt lat="59.0696232766" lon="30.0449760072"><ele>79.93</ele><time>2026-04-25T11:20:37Z</time></trkpt><trkpt lat="59.0696872305" lon="30.0450479239"><ele>78.97</ele><time>2026-04-25T11:20:49Z</time></trkpt><trkpt lat="59.0696951095" lon="30.0450692978"><ele>78.97</ele><time>2026-04-25T11:20:55Z</time></trkpt><trkpt lat="59.0697345044" lon="30.0450623408"><ele>78.97</ele><time>2026-04-25T11:21:03Z</time></trkpt><trkpt lat="59.0697977878" lon="30.0450750813"><ele>78.97</ele><time>2026-04-25T11:21:13Z</time></trkpt><trkpt lat="59.0698334947" lon="30.0450884923"><ele>78.48</ele><time>2026-04-25T11:21:23Z</time></trkpt><trkpt lat="59.0698924195" lon="30.0451007299"><ele>78.48</ele><time>2026-04-25T11:21:34Z</time></trkpt><trkpt lat="59.0698976163" lon="30.0450927671"><ele>78.48</ele><time>2026-04-25T11:21:36Z</time></trkpt><trkpt lat="59.0699719638" lon="30.0450097024"><ele>78.48</ele><time>2026-04-25T11:21:47Z</time></trkpt><trkpt lat="59.0701114386" lon="30.0450583175"><ele>78.48</ele><time>2026-04-25T11:21:57Z</time></trkpt><trkpt lat="59.0701735485" lon="30.0450623408"><ele>78.00</ele><time>2026-04-25T11:22:18Z</time></trkpt><trkpt lat="59.0702107642" lon="30.0450561382"><ele>78.00</ele><time>2026-04-25T11:22:33Z</time></trkpt><trkpt lat="59.0702276118" lon="30.0450328365"><ele>78.00</ele><time>2026-04-25T11:22:48Z</time></trkpt><trkpt lat="59.0702322219" lon="30.0450169109"><ele>77.04</ele><time>2026-04-25T11:23:13Z</time></trkpt><trkpt lat="59.0702362452" lon="30.0450018235"><ele>77.04</ele><time>2026-04-25T11:23:39Z</time></trkpt><trkpt lat="59.0702348202" lon="30.0449906755"><ele>77.04</ele><time>2026-04-25T11:24:06Z</time></trkpt><trkpt lat="59.0702383406" lon="30.0449853111"><ele>77.04</ele><time>2026-04-25T11:24:32Z</time></trkpt><trkpt lat="59.0702418610" lon="30.0449681282"><ele>77.04</ele><time>2026-04-25T11:24:59Z</time></trkpt><trkpt lat="59.0702459682" lon="30.0449571479"><ele>77.04</ele><time>2026-04-25T11:25:26Z</time></trkpt><trkpt lat="59.0702417772" lon="30.0449625123"><ele>77.04</ele><time>2026-04-25T11:25:55Z</time></trkpt><trkpt lat="59.0702426992" lon="30.0449544657"><ele>77.04</ele><time>2026-04-25T11:26:25Z</time></trkpt><trkpt lat="59.0702489857" lon="30.0449686311"><ele>77.04</ele><time>2026-04-25T11:26:57Z</time></trkpt><trkpt lat="59.0702478960" lon="30.0449594110"><ele>77.04</ele><time>2026-04-25T11:27:33Z</time></trkpt><trkpt lat="59.0702504944" lon="30.0449475087"><ele>77.04</ele><time>2026-04-25T11:28:00Z</time></trkpt><trkpt lat="59.0702605527" lon="30.0449348520"><ele>77.04</ele><time>2026-04-25T11:28:27Z</time></trkpt><trkpt lat="59.0702640731" lon="30.0449292362"><ele>77.04</ele><time>2026-04-25T11:28:56Z</time></trkpt><trkpt lat="59.0702789929" lon="30.0449265540"><ele>77.04</ele><time>2026-04-25T11:29:25Z</time></trkpt><trkpt lat="59.0702881292" lon="30.0449320022"><ele>77.04</ele><time>2026-04-25T11:29:54Z</time></trkpt><trkpt lat="59.0703053959" lon="30.0449460000"><ele>77.04</ele><time>2026-04-25T11:30:22Z</time></trkpt><trkpt lat="59.0703000315" lon="30.0449749175"><ele>77.04</ele><time>2026-04-25T11:30:46Z</time></trkpt><trkpt lat="59.0703103412" lon="30.0450388715"><ele>78.48</ele><time>2026-04-25T11:30:58Z</time></trkpt><trkpt lat="59.0703198127" lon="30.0450686272"><ele>78.48</ele><time>2026-04-25T11:31:15Z</time></trkpt><trkpt lat="59.0703253448" lon="30.0450825412"><ele>78.48</ele><time>2026-04-25T11:31:27Z</time></trkpt><trkpt lat="59.0703325532" lon="30.0450522825"><ele>78.48</ele><time>2026-04-25T11:31:46Z</time></trkpt><trkpt lat="59.0703304578" lon="30.0450268853"><ele>78.48</ele><time>2026-04-25T11:31:58Z</time></trkpt><trkpt lat="59.0703292843" lon="30.0450237840"><ele>78.48</ele><time>2026-04-25T11:32:04Z</time></trkpt><trkpt lat="59.0703180525" lon="30.0449221954"><ele>78.48</ele><time>2026-04-25T11:32:15Z</time></trkpt><trkpt lat="59.0703349002" lon="30.0448180083"><ele>78.48</ele><time>2026-04-25T11:32:28Z</time></trkpt><trkpt lat="59.0703217406" lon="30.0447902642"><ele>79.45</ele><time>2026-04-25T11:32:41Z</time></trkpt><trkpt lat="59.0703309607" lon="30.0447712373"><ele>79.45</ele><time>2026-04-25T11:32:57Z</time></trkpt><trkpt lat="59.0703490656" lon="30.0447655376"><ele>79.45</ele><time>2026-04-25T11:33:09Z</time></trkpt><trkpt lat="59.0703697689" lon="30.0447749253"><ele>79.45</ele><time>2026-04-25T11:33:19Z</time></trkpt><trkpt lat="59.0703866165" lon="30.0447524618"><ele>79.93</ele><time>2026-04-25T11:33:37Z</time></trkpt><trkpt lat="59.0703955013" lon="30.0447119772"><ele>79.93</ele><time>2026-04-25T11:33:51Z</time></trkpt><trkpt lat="59.0704223234" lon="30.0446782820"><ele>79.93</ele><time>2026-04-25T11:34:08Z</time></trkpt><trkpt lat="59.0704387520" lon="30.0446429104"><ele>79.93</ele><time>2026-04-25T11:34:25Z</time></trkpt><trkpt lat="59.0704530012" lon="30.0446339417"><ele>79.93</ele><time>2026-04-25T11:34:39Z</time></trkpt><trkpt lat="59.0704681724" lon="30.0446248893"><ele>79.93</ele><time>2026-04-25T11:34:54Z</time></trkpt><trkpt lat="59.0704887919" lon="30.0445909426"><ele>79.93</ele><time>2026-04-25T11:35:06Z</time></trkpt><trkpt lat="59.0705027897" lon="30.0445431657"><ele>79.93</ele><time>2026-04-25T11:35:17Z</time></trkpt><trkpt lat="59.0705165360" lon="30.0445112307"><ele>79.93</ele><time>2026-04-25T11:35:29Z</time></trkpt><trkpt lat="59.0705222357" lon="30.0444639567"><ele>79.93</ele><time>2026-04-25T11:35:43Z</time></trkpt><trkpt lat="59.0705313720" lon="30.0444192812"><ele>79.45</ele><time>2026-04-25T11:35:54Z</time></trkpt><trkpt lat="59.0705348086" lon="30.0444171857"><ele>79.45</ele><time>2026-04-25T11:36:08Z</time></trkpt><trkpt lat="59.0705612116" lon="30.0444007572"><ele>79.45</ele><time>2026-04-25T11:36:18Z</time></trkpt><trkpt lat="59.0706033725" lon="30.0444185268"><ele>79.45</ele><time>2026-04-25T11:36:28Z</time></trkpt><trkpt lat="59.0706283506" lon="30.0444323570"><ele>79.45</ele><time>2026-04-25T11:36:40Z</time></trkpt><trkpt lat="59.0706460364" lon="30.0444730092"><ele>79.45</ele><time>2026-04-25T11:36:50Z</time></trkpt><trkpt lat="59.0706596151" lon="30.0445046928"><ele>79.45</ele><time>2026-04-25T11:37:01Z</time></trkpt><trkpt lat="59.0706954058" lon="30.0445204508"><ele>79.45</ele><time>2026-04-25T11:37:09Z</time></trkpt><trkpt lat="59.0707663167" lon="30.0445705745"><ele>79.45</ele><time>2026-04-25T11:37:20Z</time></trkpt><trkpt lat="59.0707877744" lon="30.0446005818"><ele>79.45</ele><time>2026-04-25T11:37:32Z</time></trkpt><trkpt lat="59.0707830805" lon="30.0446060300"><ele>79.45</ele><time>2026-04-25T11:37:36Z</time></trkpt><trkpt lat="59.0707747824" lon="30.0446295831"><ele>79.45</ele><time>2026-04-25T11:37:42Z</time></trkpt><trkpt lat="59.0707883611" lon="30.0446572434"><ele>78.97</ele><time>2026-04-25T11:37:52Z</time></trkpt><trkpt lat="59.0708208829" lon="30.0446710736"><ele>78.97</ele><time>2026-04-25T11:38:05Z</time></trkpt><trkpt lat="59.0708637144" lon="30.0446861610"><ele>78.97</ele><time>2026-04-25T11:38:24Z</time></trkpt><trkpt lat="59.0708725993" lon="30.0446992368"><ele>78.97</ele><time>2026-04-25T11:38:42Z</time></trkpt><trkpt lat="59.0708751976" lon="30.0447112229"><ele>78.97</ele><time>2026-04-25T11:38:55Z</time></trkpt><trkpt lat="59.0708829928" lon="30.0447123125"><ele>78.97</ele><time>2026-04-25T11:39:10Z</time></trkpt><trkpt lat="59.0709100664" lon="30.0447117258"><ele>78.97</ele><time>2026-04-25T11:39:20Z</time></trkpt><trkpt lat="59.0709502157" lon="30.0447076187"><ele>78.48</ele><time>2026-04-25T11:39:32Z</time></trkpt><trkpt lat="59.0709859226" lon="30.0446980633"><ele>78.48</ele><time>2026-04-25T11:39:43Z</time></trkpt><trkpt lat="59.0709971543" lon="30.0446935371"><ele>79.45</ele><time>2026-04-25T11:40:04Z</time></trkpt><trkpt lat="59.0710162651" lon="30.0446806289"><ele>78.97</ele><time>2026-04-25T11:40:18Z</time></trkpt><trkpt lat="59.0710367169" lon="30.0446687266"><ele>78.97</ele><time>2026-04-25T11:40:24Z</time></trkpt><trkpt lat="59.0711037721" lon="30.0445506256"><ele>78.97</ele><time>2026-04-25T11:40:34Z</time></trkpt><trkpt lat="59.0711455978" lon="30.0445357058"><ele>79.45</ele><time>2026-04-25T11:40:50Z</time></trkpt><trkpt lat="59.0711637866" lon="30.0445742626"><ele>79.45</ele><time>2026-04-25T11:41:14Z</time></trkpt><trkpt lat="59.0711875074" lon="30.0445523020"><ele>79.45</ele><time>2026-04-25T11:41:27Z</time></trkpt><trkpt lat="59.0712245554" lon="30.0445284136"><ele>78.97</ele><time>2026-04-25T11:41:38Z</time></trkpt><trkpt lat="59.0712844860" lon="30.0445398130"><ele>78.97</ele><time>2026-04-25T11:41:50Z</time></trkpt><trkpt lat="59.0712809656" lon="30.0445419922"><ele>78.97</ele><time>2026-04-25T11:42:00Z</time></trkpt><trkpt lat="59.0713429917" lon="30.0445408188"><ele>78.97</ele><time>2026-04-25T11:42:10Z</time></trkpt><trkpt lat="59.0713572409" lon="30.0445319340"><ele>78.97</ele><time>2026-04-25T11:42:12Z</time></trkpt><trkpt lat="59.0714246314" lon="30.0445139129"><ele>78.97</ele><time>2026-04-25T11:42:20Z</time></trkpt><trkpt lat="59.0715336800" lon="30.0444254000"><ele>78.48</ele><time>2026-04-25T11:42:34Z</time></trkpt><trkpt lat="59.0715831332" lon="30.0443805568"><ele>78.48</ele><time>2026-04-25T11:42:43Z</time></trkpt><trkpt lat="59.0716033336" lon="30.0443855021"><ele>78.48</ele><time>2026-04-25T11:43:02Z</time></trkpt><trkpt lat="59.0716453269" lon="30.0444003381"><ele>78.48</ele><time>2026-04-25T11:43:11Z</time></trkpt><trkpt lat="59.0716527030" lon="30.0443910342"><ele>78.48</ele><time>2026-04-25T11:43:12Z</time></trkpt><trkpt lat="59.0717760846" lon="30.0443845801"><ele>78.48</ele><time>2026-04-25T11:43:26Z</time></trkpt><trkpt lat="59.0718328301" lon="30.0443639606"><ele>78.00</ele><time>2026-04-25T11:43:39Z</time></trkpt><trkpt lat="59.0718717221" lon="30.0443377253"><ele>78.00</ele><time>2026-04-25T11:43:44Z</time></trkpt><trkpt lat="59.0719184093" lon="30.0443170220"><ele>78.00</ele><time>2026-04-25T11:43:56Z</time></trkpt><trkpt lat="59.0719250310" lon="30.0443260744"><ele>78.00</ele><time>2026-04-25T11:44:00Z</time></trkpt><trkpt lat="59.0719769150" lon="30.0442953967"><ele>78.00</ele><time>2026-04-25T11:44:08Z</time></trkpt><trkpt lat="59.0720419586" lon="30.0442440156"><ele>78.00</ele><time>2026-04-25T11:44:17Z</time></trkpt><trkpt lat="59.0720819402" lon="30.0442642998"><ele>78.00</ele><time>2026-04-25T11:44:31Z</time></trkpt><trkpt lat="59.0720996261" lon="30.0442557503"><ele>78.48</ele><time>2026-04-25T11:44:47Z</time></trkpt><trkpt lat="59.0721379314" lon="30.0442038663"><ele>78.48</ele><time>2026-04-25T11:44:58Z</time></trkpt><trkpt lat="59.0721924137" lon="30.0441920478"><ele>78.48</ele><time>2026-04-25T11:45:07Z</time></trkpt><trkpt lat="59.0723486524" lon="30.0441608671"><ele>78.00</ele><time>2026-04-25T11:45:18Z</time></trkpt><trkpt lat="59.0724064037" lon="30.0441194605"><ele>78.00</ele><time>2026-04-25T11:45:30Z</time></trkpt><trkpt lat="59.0724523365" lon="30.0441293512"><ele>78.00</ele><time>2026-04-25T11:45:36Z</time></trkpt><trkpt lat="59.0724981856" lon="30.0441081449"><ele>78.00</ele><time>2026-04-25T11:45:43Z</time></trkpt><trkpt lat="59.0725934040" lon="30.0440718513"><ele>78.00</ele><time>2026-04-25T11:45:55Z</time></trkpt><trkpt lat="59.0726413485" lon="30.0440252479"><ele>78.00</ele><time>2026-04-25T11:46:09Z</time></trkpt><trkpt lat="59.0727039613" lon="30.0440322049"><ele>78.00</ele><time>2026-04-25T11:46:23Z</time></trkpt><trkpt lat="59.0727706812" lon="30.0439964980"><ele>78.00</ele><time>2026-04-25T11:46:33Z</time></trkpt><trkpt lat="59.0728574339" lon="30.0438920595"><ele>78.00</ele><time>2026-04-25T11:46:45Z</time></trkpt><trkpt lat="59.0729369782" lon="30.0439097453"><ele>77.52</ele><time>2026-04-25T11:46:56Z</time></trkpt><trkpt lat="59.0730053745" lon="30.0438735355"><ele>77.52</ele><time>2026-04-25T11:47:05Z</time></trkpt><trkpt lat="59.0730209649" lon="30.0438390858"><ele>77.52</ele><time>2026-04-25T11:47:08Z</time></trkpt><trkpt lat="59.0730839130" lon="30.0437687617"><ele>77.52</ele><time>2026-04-25T11:47:13Z</time></trkpt><trkpt lat="59.0731461067" lon="30.0437820889"><ele>77.52</ele><time>2026-04-25T11:47:18Z</time></trkpt><trkpt lat="59.0732710809" lon="30.0437218230"><ele>78.00</ele><time>2026-04-25T11:47:29Z</time></trkpt><trkpt lat="59.0733005852" lon="30.0436770637"><ele>78.00</ele><time>2026-04-25T11:47:41Z</time></trkpt><trkpt lat="59.0732819773" lon="30.0436511636"><ele>78.00</ele><time>2026-04-25T11:48:06Z</time></trkpt><trkpt lat="59.0733141638" lon="30.0436608028"><ele>78.00</ele><time>2026-04-25T11:48:24Z</time></trkpt><trkpt lat="59.0733877569" lon="30.0436411891"><ele>78.00</ele><time>2026-04-25T11:48:31Z</time></trkpt><trkpt lat="59.0734535549" lon="30.0437100045"><ele>78.00</ele><time>2026-04-25T11:48:38Z</time></trkpt><trkpt lat="59.0735030081" lon="30.0438155327"><ele>78.00</ele><time>2026-04-25T11:48:49Z</time></trkpt><trkpt lat="59.0735167544" lon="30.0438307039"><ele>78.00</ele><time>2026-04-25T11:48:51Z</time></trkpt><trkpt lat="59.0736131463" lon="30.0438997708"><ele>77.52</ele><time>2026-04-25T11:49:03Z</time></trkpt><trkpt lat="59.0736781899" lon="30.0438783132"><ele>77.52</ele><time>2026-04-25T11:49:14Z</time></trkpt><trkpt lat="59.0736963786" lon="30.0438643992"><ele>77.52</ele><time>2026-04-25T11:49:16Z</time></trkpt><trkpt lat="59.0737247933" lon="30.0438544247"><ele>77.52</ele><time>2026-04-25T11:49:18Z</time></trkpt><trkpt lat="59.0738330036" lon="30.0437970925"><ele>77.52</ele><time>2026-04-25T11:49:29Z</time></trkpt><trkpt lat="59.0738711413" lon="30.0437772274"><ele>77.52</ele><time>2026-04-25T11:49:34Z</time></trkpt><trkpt lat="59.0739465784" lon="30.0437409338"><ele>78.00</ele><time>2026-04-25T11:49:48Z</time></trkpt><trkpt lat="59.0739754960" lon="30.0437518302"><ele>78.00</ele><time>2026-04-25T11:49:51Z</time></trkpt><trkpt lat="59.0740658529" lon="30.0437149499"><ele>78.00</ele><time>2026-04-25T11:50:01Z</time></trkpt><trkpt lat="59.0741997119" lon="30.0436452962"><ele>78.00</ele><time>2026-04-25T11:50:13Z</time></trkpt><trkpt lat="59.0742363408" lon="30.0436385907"><ele>78.00</ele><time>2026-04-25T11:50:22Z</time></trkpt><trkpt lat="59.0742493328" lon="30.0436116010"><ele>78.00</ele><time>2026-04-25T11:50:34Z</time></trkpt><trkpt lat="59.0742539428" lon="30.0436130259"><ele>78.00</ele><time>2026-04-25T11:50:56Z</time></trkpt><trkpt lat="59.0742515121" lon="30.0436400156"><ele>78.00</ele><time>2026-04-25T11:51:06Z</time></trkpt><trkpt lat="59.0742470697" lon="30.0437176321"><ele>78.48</ele><time>2026-04-25T11:51:10Z</time></trkpt><trkpt lat="59.0742731374" lon="30.0438495632"><ele>78.48</ele><time>2026-04-25T11:51:19Z</time></trkpt><trkpt lat="59.0742673539" lon="30.0439990964"><ele>78.48</ele><time>2026-04-25T11:51:28Z</time></trkpt><trkpt lat="59.0742794238" lon="30.0441165268"><ele>78.48</ele><time>2026-04-25T11:51:37Z</time></trkpt><trkpt lat="59.0743093472" lon="30.0442563370"><ele>78.48</ele><time>2026-04-25T11:51:47Z</time></trkpt><trkpt lat="59.0743080061" lon="30.0444148388"><ele>78.48</ele><time>2026-04-25T11:51:58Z</time></trkpt><trkpt lat="59.0743215848" lon="30.0445496198"><ele>78.48</ele><time>2026-04-25T11:52:11Z</time></trkpt><trkpt lat="59.0743186511" lon="30.0445657969"><ele>78.48</ele><time>2026-04-25T11:52:12Z</time></trkpt><trkpt lat="59.0743181482" lon="30.0448074471"><ele>78.48</ele><time>2026-04-25T11:52:25Z</time></trkpt><trkpt lat="59.0743238479" lon="30.0450489298"><ele>78.48</ele><time>2026-04-25T11:52:36Z</time></trkpt><trkpt lat="59.0743085928" lon="30.0450669508"><ele>78.48</ele><time>2026-04-25T11:52:41Z</time></trkpt><trkpt lat="59.0743415337" lon="30.0451625045"><ele>78.48</ele><time>2026-04-25T11:52:52Z</time></trkpt><trkpt lat="59.0743458923" lon="30.0452152267"><ele>78.97</ele><time>2026-04-25T11:53:10Z</time></trkpt><trkpt lat="59.0743520949" lon="30.0452363491"><ele>78.97</ele><time>2026-04-25T11:53:15Z</time></trkpt><trkpt lat="59.0743577946" lon="30.0454220083"><ele>78.97</ele><time>2026-04-25T11:53:27Z</time></trkpt><trkpt lat="59.0743468981" lon="30.0455452222"><ele>78.97</ele><time>2026-04-25T11:53:35Z</time></trkpt><trkpt lat="59.0743785817" lon="30.0456634909"><ele>78.97</ele><time>2026-04-25T11:53:44Z</time></trkpt><trkpt lat="59.0743960161" lon="30.0457074121"><ele>78.48</ele><time>2026-04-25T11:53:47Z</time></trkpt><trkpt lat="59.0743936691" lon="30.0458358228"><ele>78.48</ele><time>2026-04-25T11:53:58Z</time></trkpt><trkpt lat="59.0743750613" lon="30.0459890440"><ele>78.48</ele><time>2026-04-25T11:54:08Z</time></trkpt><trkpt lat="59.0743893944" lon="30.0460358988"><ele>78.48</ele><time>2026-04-25T11:54:13Z</time></trkpt><trkpt lat="59.0744014643" lon="30.0460688397"><ele>78.97</ele><time>2026-04-25T11:54:16Z</time></trkpt><trkpt lat="59.0744234249" lon="30.0460830890"><ele>78.97</ele><time>2026-04-25T11:54:22Z</time></trkpt><trkpt lat="59.0744354110" lon="30.0463115796"><ele>78.97</ele><time>2026-04-25T11:54:32Z</time></trkpt><trkpt lat="59.0744411107" lon="30.0463902857"><ele>78.97</ele><time>2026-04-25T11:54:45Z</time></trkpt><trkpt lat="59.0744426195" lon="30.0464276690"><ele>78.97</ele><time>2026-04-25T11:54:50Z</time></trkpt><trkpt lat="59.0744754765" lon="30.0465453509"><ele>78.97</ele><time>2026-04-25T11:54:57Z</time></trkpt><trkpt lat="59.0744748060" lon="30.0467278250"><ele>78.97</ele><time>2026-04-25T11:55:11Z</time></trkpt><trkpt lat="59.0744705312" lon="30.0468217861"><ele>79.45</ele><time>2026-04-25T11:55:22Z</time></trkpt><trkpt lat="59.0744801704" lon="30.0469447486"><ele>79.45</ele><time>2026-04-25T11:55:31Z</time></trkpt><trkpt lat="59.0744768176" lon="30.0469983090"><ele>79.45</ele><time>2026-04-25T11:55:33Z</time></trkpt><trkpt lat="59.0744664241" lon="30.0470698904"><ele>79.45</ele><time>2026-04-25T11:55:37Z</time></trkpt><trkpt lat="59.0744702797" lon="30.0471545476"><ele>79.45</ele><time>2026-04-25T11:55:43Z</time></trkpt><trkpt lat="59.0744798351" lon="30.0474281330"><ele>79.93</ele><time>2026-04-25T11:55:55Z</time></trkpt><trkpt lat="59.0744613111" lon="30.0476479903"><ele>80.41</ele><time>2026-04-25T11:56:08Z</time></trkpt><trkpt lat="59.0744774044" lon="30.0476927496"><ele>80.41</ele><time>2026-04-25T11:56:18Z</time></trkpt><trkpt lat="59.0744862892" lon="30.0477334857"><ele>80.41</ele><time>2026-04-25T11:56:20Z</time></trkpt><trkpt lat="59.0744948387" lon="30.0477706175"><ele>80.41</ele><time>2026-04-25T11:56:22Z</time></trkpt><trkpt lat="59.0745187271" lon="30.0480136927"><ele>80.41</ele><time>2026-04-25T11:56:34Z</time></trkpt><trkpt lat="59.0745196491" lon="30.0480507407"><ele>80.41</ele><time>2026-04-25T11:56:36Z</time></trkpt><trkpt lat="59.0745427832" lon="30.0483004376"><ele>80.41</ele><time>2026-04-25T11:56:48Z</time></trkpt><trkpt lat="59.0745742992" lon="30.0483774673"><ele>80.41</ele><time>2026-04-25T11:56:53Z</time></trkpt><trkpt lat="59.0745873749" lon="30.0484655611"><ele>80.41</ele><time>2026-04-25T11:57:05Z</time></trkpt><trkpt lat="59.0745991096" lon="30.0485294312"><ele>80.41</ele><time>2026-04-25T11:57:17Z</time></trkpt><trkpt lat="59.0746219922" lon="30.0486098975"><ele>78.97</ele><time>2026-04-25T11:57:20Z</time></trkpt><trkpt lat="59.0746504068" lon="30.0486821495"><ele>78.97</ele><time>2026-04-25T11:57:34Z</time></trkpt><trkpt lat="59.0746449586" lon="30.0487232208"><ele>78.97</ele><time>2026-04-25T11:57:51Z</time></trkpt><trkpt lat="59.0746266022" lon="30.0487221312"><ele>78.97</ele><time>2026-04-25T11:57:54Z</time></trkpt><trkpt lat="59.0745387599" lon="30.0487399846"><ele>78.97</ele><time>2026-04-25T11:58:05Z</time></trkpt><trkpt lat="59.0745024662" lon="30.0487223826"><ele>78.97</ele><time>2026-04-25T11:58:11Z</time></trkpt><trkpt lat="59.0744403563" lon="30.0488021784"><ele>78.97</ele><time>2026-04-25T11:58:21Z</time></trkpt><trkpt lat="59.0743880533" lon="30.0488357898"><ele>78.97</ele><time>2026-04-25T11:58:29Z</time></trkpt><trkpt lat="59.0743207466" lon="30.0488648750"><ele>78.97</ele><time>2026-04-25T11:58:39Z</time></trkpt><trkpt lat="59.0742952656" lon="30.0488662161"><ele>78.97</ele><time>2026-04-25T11:58:48Z</time></trkpt><trkpt lat="59.0742517635" lon="30.0488771964"><ele>78.97</ele><time>2026-04-25T11:58:52Z</time></trkpt><trkpt lat="59.0742093511" lon="30.0488460995"><ele>78.97</ele><time>2026-04-25T11:58:58Z</time></trkpt><trkpt lat="59.0741280466" lon="30.0488897692"><ele>78.97</ele><time>2026-04-25T11:59:06Z</time></trkpt><trkpt lat="59.0739954449" lon="30.0489028450"><ele>78.97</ele><time>2026-04-25T11:59:18Z</time></trkpt><trkpt lat="59.0739291441" lon="30.0488928705"><ele>79.93</ele><time>2026-04-25T11:59:24Z</time></trkpt><trkpt lat="59.0738347638" lon="30.0489169266"><ele>79.93</ele><time>2026-04-25T11:59:34Z</time></trkpt><trkpt lat="59.0738095343" lon="30.0489145797"><ele>79.93</ele><time>2026-04-25T11:59:36Z</time></trkpt><trkpt lat="59.0737050958" lon="30.0490165874"><ele>79.93</ele><time>2026-04-25T11:59:46Z</time></trkpt><trkpt lat="59.0736983065" lon="30.0490638614"><ele>79.93</ele><time>2026-04-25T11:59:59Z</time></trkpt><trkpt lat="59.0736895893" lon="30.0490804575"><ele>79.93</ele><time>2026-04-25T12:00:14Z</time></trkpt><trkpt lat="59.0736380406" lon="30.0491757598"><ele>79.93</ele><time>2026-04-25T12:00:32Z</time></trkpt><trkpt lat="59.0735791996" lon="30.0492196810"><ele>79.93</ele><time>2026-04-25T12:00:45Z</time></trkpt><trkpt lat="59.0735300817" lon="30.0492446590"><ele>79.93</ele><time>2026-04-25T12:00:55Z</time></trkpt><trkpt lat="59.0735273156" lon="30.0493079424"><ele>79.93</ele><time>2026-04-25T12:00:57Z</time></trkpt><trkpt lat="59.0734729171" lon="30.0493573118"><ele>79.93</ele><time>2026-04-25T12:01:07Z</time></trkpt><trkpt lat="59.0734017547" lon="30.0493297353"><ele>79.93</ele><time>2026-04-25T12:01:18Z</time></trkpt><trkpt lat="59.0733430814" lon="30.0494186673"><ele>79.93</ele><time>2026-04-25T12:01:27Z</time></trkpt><trkpt lat="59.0732386429" lon="30.0493655261"><ele>79.93</ele><time>2026-04-25T12:01:36Z</time></trkpt><trkpt lat="59.0731735993" lon="30.0492976326"><ele>79.93</ele><time>2026-04-25T12:01:47Z</time></trkpt><trkpt lat="59.0731575061" lon="30.0492351875"><ele>79.93</ele><time>2026-04-25T12:01:53Z</time></trkpt><trkpt lat="59.0731036104" lon="30.0492199324"><ele>79.93</ele><time>2026-04-25T12:02:00Z</time></trkpt><trkpt lat="59.0730753634" lon="30.0491349399"><ele>79.93</ele><time>2026-04-25T12:02:12Z</time></trkpt><trkpt lat="59.0730495472" lon="30.0491374545"><ele>79.93</ele><time>2026-04-25T12:02:21Z</time></trkpt><trkpt lat="59.0730237309" lon="30.0492064375"><ele>80.41</ele><time>2026-04-25T12:02:31Z</time></trkpt><trkpt lat="59.0730187017" lon="30.0492257159"><ele>80.41</ele><time>2026-04-25T12:02:36Z</time></trkpt><trkpt lat="59.0729612857" lon="30.0492115505"><ele>80.41</ele><time>2026-04-25T12:02:46Z</time></trkpt><trkpt lat="59.0729109105" lon="30.0492289010"><ele>80.41</ele><time>2026-04-25T12:02:49Z</time></trkpt><trkpt lat="59.0727846790" lon="30.0493137259"><ele>80.41</ele><time>2026-04-25T12:03:00Z</time></trkpt><trkpt lat="59.0727499779" lon="30.0493475050"><ele>78.97</ele><time>2026-04-25T12:03:12Z</time></trkpt><trkpt lat="59.0727117565" lon="30.0493723154"><ele>78.97</ele><time>2026-04-25T12:03:22Z</time></trkpt><trkpt lat="59.0726921428" lon="30.0494034123"><ele>78.97</ele><time>2026-04-25T12:03:31Z</time></trkpt><trkpt lat="59.0726628900" lon="30.0494572241"><ele>78.97</ele><time>2026-04-25T12:03:47Z</time></trkpt><trkpt lat="59.0726654045" lon="30.0495266262"><ele>78.97</ele><time>2026-04-25T12:03:58Z</time></trkpt><trkpt lat="59.0726474673" lon="30.0495661888"><ele>78.97</ele><time>2026-04-25T12:04:11Z</time></trkpt><trkpt lat="59.0725940745" lon="30.0496126246"><ele>78.97</ele><time>2026-04-25T12:04:26Z</time></trkpt><trkpt lat="59.0725830104" lon="30.0496462360"><ele>78.97</ele><time>2026-04-25T12:04:38Z</time></trkpt><trkpt lat="59.0725844353" lon="30.0496629998"><ele>78.97</ele><time>2026-04-25T12:04:49Z</time></trkpt><trkpt lat="59.0725669172" lon="30.0496640895"><ele>78.97</ele><time>2026-04-25T12:05:01Z</time></trkpt><trkpt lat="59.0725458786" lon="30.0496852957"><ele>78.97</ele><time>2026-04-25T12:05:12Z</time></trkpt><trkpt lat="59.0725450404" lon="30.0497148000"><ele>78.97</ele><time>2026-04-25T12:05:28Z</time></trkpt><trkpt lat="59.0725241695" lon="30.0497536920"><ele>78.97</ele><time>2026-04-25T12:05:38Z</time></trkpt><trkpt lat="59.0725205652" lon="30.0497363415"><ele>78.97</ele><time>2026-04-25T12:05:48Z</time></trkpt><trkpt lat="59.0725066513" lon="30.0497377664"><ele>78.97</ele><time>2026-04-25T12:06:03Z</time></trkpt><trkpt lat="59.0725052264" lon="30.0497328211"><ele>78.97</ele><time>2026-04-25T12:06:05Z</time></trkpt><trkpt lat="59.0725017060" lon="30.0497293845"><ele>78.97</ele><time>2026-04-25T12:06:07Z</time></trkpt><trkpt lat="59.0724978503" lon="30.0496241078"><ele>78.97</ele><time>2026-04-25T12:06:18Z</time></trkpt><trkpt lat="59.0724798292" lon="30.0494977925"><ele>78.97</ele><time>2026-04-25T12:06:30Z</time></trkpt><trkpt lat="59.0724782366" lon="30.0495117065"><ele>78.97</ele><time>2026-04-25T12:06:42Z</time></trkpt><trkpt lat="59.0724499896" lon="30.0495072640"><ele>78.97</ele><time>2026-04-25T12:06:47Z</time></trkpt><trkpt lat="59.0724581201" lon="30.0495274644"><ele>78.97</ele><time>2026-04-25T12:07:03Z</time></trkpt><trkpt lat="59.0724607185" lon="30.0495259557"><ele>78.97</ele><time>2026-04-25T12:07:12Z</time></trkpt><trkpt lat="59.0724486485" lon="30.0495467428"><ele>78.97</ele><time>2026-04-25T12:07:29Z</time></trkpt><trkpt lat="59.0724318847" lon="30.0495604053"><ele>78.97</ele><time>2026-04-25T12:07:37Z</time></trkpt><trkpt lat="59.0723410249" lon="30.0496246945"><ele>78.97</ele><time>2026-04-25T12:07:47Z</time></trkpt><trkpt lat="59.0722743049" lon="30.0496524386"><ele>78.97</ele><time>2026-04-25T12:07:58Z</time></trkpt><trkpt lat="59.0722348262" lon="30.0496486668"><ele>78.97</ele><time>2026-04-25T12:08:06Z</time></trkpt><trkpt lat="59.0722104348" lon="30.0496794283"><ele>79.93</ele><time>2026-04-25T12:08:16Z</time></trkpt><trkpt lat="59.0721728001" lon="30.0496664364"><ele>79.93</ele><time>2026-04-25T12:08:20Z</time></trkpt><trkpt lat="59.0721014701" lon="30.0497046579"><ele>79.93</ele><time>2026-04-25T12:08:29Z</time></trkpt><trkpt lat="59.0720705409" lon="30.0497363415"><ele>79.93</ele><time>2026-04-25T12:08:38Z</time></trkpt><trkpt lat="59.0720434673" lon="30.0497396942"><ele>79.93</ele><time>2026-04-25T12:08:41Z</time></trkpt><trkpt lat="59.0719862189" lon="30.0497522671"><ele>80.41</ele><time>2026-04-25T12:08:49Z</time></trkpt><trkpt lat="59.0719527751" lon="30.0497439690"><ele>80.41</ele><time>2026-04-25T12:08:58Z</time></trkpt><trkpt lat="59.0719188284" lon="30.0497072563"><ele>80.41</ele><time>2026-04-25T12:09:02Z</time></trkpt><trkpt lat="59.0718212631" lon="30.0497199968"><ele>80.41</ele><time>2026-04-25T12:09:12Z</time></trkpt><trkpt lat="59.0717637632" lon="30.0497524347"><ele>80.41</ele><time>2026-04-25T12:09:21Z</time></trkpt><trkpt lat="59.0717577282" lon="30.0497524347"><ele>80.41</ele><time>2026-04-25T12:09:22Z</time></trkpt><trkpt lat="59.0717008151" lon="30.0497403648"><ele>80.41</ele><time>2026-04-25T12:09:33Z</time></trkpt><trkpt lat="59.0716256294" lon="30.0497796759"><ele>80.41</ele><time>2026-04-25T12:09:44Z</time></trkpt><trkpt lat="59.0715056844" lon="30.0498007145"><ele>80.89</ele><time>2026-04-25T12:09:55Z</time></trkpt><trkpt lat="59.0713820513" lon="30.0498578791"><ele>81.37</ele><time>2026-04-25T12:10:07Z</time></trkpt><trkpt lat="59.0713133197" lon="30.0499415305"><ele>81.37</ele><time>2026-04-25T12:10:18Z</time></trkpt><trkpt lat="59.0712269023" lon="30.0500808377"><ele>81.37</ele><time>2026-04-25T12:10:30Z</time></trkpt><trkpt lat="59.0712131560" lon="30.0501183048"><ele>82.33</ele><time>2026-04-25T12:10:47Z</time></trkpt><trkpt lat="59.0712228790" lon="30.0501357391"><ele>82.33</ele><time>2026-04-25T12:11:09Z</time></trkpt><trkpt lat="59.0711973142" lon="30.0501540117"><ele>82.33</ele><time>2026-04-25T12:11:20Z</time></trkpt><trkpt lat="59.0711954702" lon="30.0501585379"><ele>82.33</ele><time>2026-04-25T12:11:23Z</time></trkpt><trkpt lat="59.0711204521" lon="30.0502161216"><ele>82.33</ele><time>2026-04-25T12:11:33Z</time></trkpt><trkpt lat="59.0710446797" lon="30.0502163731"><ele>82.33</ele><time>2026-04-25T12:11:42Z</time></trkpt><trkpt lat="59.0709952265" lon="30.0502584502"><ele>82.33</ele><time>2026-04-25T12:11:54Z</time></trkpt><trkpt lat="59.0709539875" lon="30.0502560195"><ele>82.33</ele><time>2026-04-25T12:11:59Z</time></trkpt><trkpt lat="59.0709239803" lon="30.0502473861"><ele>82.33</ele><time>2026-04-25T12:12:01Z</time></trkpt><trkpt lat="59.0708011016" lon="30.0503094122"><ele>82.33</ele><time>2026-04-25T12:12:12Z</time></trkpt><trkpt lat="59.0707306098" lon="30.0503265951"><ele>82.33</ele><time>2026-04-25T12:12:22Z</time></trkpt><trkpt lat="59.0706980880" lon="30.0503475498"><ele>82.33</ele><time>2026-04-25T12:12:26Z</time></trkpt><trkpt lat="59.0706719365" lon="30.0503644813"><ele>82.33</ele><time>2026-04-25T12:12:32Z</time></trkpt><trkpt lat="59.0706004389" lon="30.0503686722"><ele>82.33</ele><time>2026-04-25T12:12:40Z</time></trkpt><trkpt lat="59.0705199726" lon="30.0504047982"><ele>82.33</ele><time>2026-04-25T12:12:48Z</time></trkpt><trkpt lat="59.0704467986" lon="30.0504329614"><ele>82.33</ele><time>2026-04-25T12:13:00Z</time></trkpt><trkpt lat="59.0703613870" lon="30.0503840111"><ele>82.33</ele><time>2026-04-25T12:13:19Z</time></trkpt><trkpt lat="59.0703136101" lon="30.0503961649"><ele>82.33</ele><time>2026-04-25T12:13:33Z</time></trkpt><trkpt lat="59.0702943318" lon="30.0504132640"><ele>82.33</ele><time>2026-04-25T12:13:41Z</time></trkpt><trkpt lat="59.0702095069" lon="30.0503612123"><ele>82.81</ele><time>2026-04-25T12:13:51Z</time></trkpt><trkpt lat="59.0701577906" lon="30.0504118390"><ele>82.81</ele><time>2026-04-25T12:14:01Z</time></trkpt><trkpt lat="59.0701587126" lon="30.0504208915"><ele>82.81</ele><time>2026-04-25T12:14:04Z</time></trkpt><trkpt lat="59.0700696968" lon="30.0504654832"><ele>82.81</ele><time>2026-04-25T12:14:13Z</time></trkpt><trkpt lat="59.0699691139" lon="30.0505899545"><ele>82.81</ele><time>2026-04-25T12:14:23Z</time></trkpt><trkpt lat="59.0699146315" lon="30.0506471191"><ele>82.81</ele><time>2026-04-25T12:14:33Z</time></trkpt><trkpt lat="59.0698956884" lon="30.0506900344"><ele>82.81</ele><time>2026-04-25T12:14:41Z</time></trkpt><trkpt lat="59.0698609035" lon="30.0507399905"><ele>82.81</ele><time>2026-04-25T12:14:51Z</time></trkpt><trkpt lat="59.0698293038" lon="30.0508390646"><ele>82.81</ele><time>2026-04-25T12:14:59Z</time></trkpt><trkpt lat="59.0697957762" lon="30.0508756936"><ele>82.81</ele><time>2026-04-25T12:15:06Z</time></trkpt><trkpt lat="59.0696714725" lon="30.0509293377"><ele>82.81</ele><time>2026-04-25T12:15:13Z</time></trkpt><trkpt lat="59.0696223546" lon="30.0510322675"><ele>83.29</ele><time>2026-04-25T12:15:22Z</time></trkpt><trkpt lat="59.0695806127" lon="30.0512097962"><ele>83.29</ele><time>2026-04-25T12:15:32Z</time></trkpt><trkpt lat="59.0695221070" lon="30.0512450840"><ele>83.29</ele><time>2026-04-25T12:15:43Z</time></trkpt><trkpt lat="59.0695100371" lon="30.0512568187"><ele>83.29</ele><time>2026-04-25T12:15:49Z</time></trkpt><trkpt lat="59.0694796946" lon="30.0512558967"><ele>83.29</ele><time>2026-04-25T12:15:57Z</time></trkpt><trkpt lat="59.0693690535" lon="30.0511962175"><ele>83.29</ele><time>2026-04-25T12:16:09Z</time></trkpt><trkpt lat="59.0693278145" lon="30.0511824712"><ele>83.29</ele><time>2026-04-25T12:16:15Z</time></trkpt><trkpt lat="59.0693275630" lon="30.0511606783"><ele>83.29</ele><time>2026-04-25T12:16:25Z</time></trkpt><trkpt lat="59.0693054348" lon="30.0511444174"><ele>83.29</ele><time>2026-04-25T12:16:41Z</time></trkpt><trkpt lat="59.0693014953" lon="30.0511230435"><ele>83.29</ele><time>2026-04-25T12:16:54Z</time></trkpt><trkpt lat="59.0693038423" lon="30.0511231273"><ele>83.29</ele><time>2026-04-25T12:16:55Z</time></trkpt><trkpt lat="59.0692768525" lon="30.0511091296"><ele>83.29</ele><time>2026-04-25T12:17:00Z</time></trkpt><trkpt lat="59.0691925306" lon="30.0510294177"><ele>83.29</ele><time>2026-04-25T12:17:10Z</time></trkpt><trkpt lat="59.0691337734" lon="30.0509961415"><ele>83.29</ele><time>2026-04-25T12:17:21Z</time></trkpt><trkpt lat="59.0691139922" lon="30.0510041043"><ele>83.29</ele><time>2026-04-25T12:17:29Z</time></trkpt><trkpt lat="59.0690429136" lon="30.0510305911"><ele>83.29</ele><time>2026-04-25T12:17:42Z</time></trkpt><trkpt lat="59.0690174326" lon="30.0510601792"><ele>83.29</ele><time>2026-04-25T12:17:46Z</time></trkpt><trkpt lat="59.0689239744" lon="30.0511077885"><ele>83.29</ele><time>2026-04-25T12:17:54Z</time></trkpt><trkpt lat="59.0688877646" lon="30.0511205290"><ele>83.29</ele><time>2026-04-25T12:18:06Z</time></trkpt><trkpt lat="59.0688056219" lon="30.0511512067"><ele>83.29</ele><time>2026-04-25T12:18:18Z</time></trkpt><trkpt lat="59.0687819850" lon="30.0511479378"><ele>83.29</ele><time>2026-04-25T12:18:21Z</time></trkpt><trkpt lat="59.0687251557" lon="30.0511611812"><ele>83.29</ele><time>2026-04-25T12:18:27Z</time></trkpt><trkpt lat="59.0686239861" lon="30.0511937868"><ele>83.29</ele><time>2026-04-25T12:18:37Z</time></trkpt><trkpt lat="59.0685818251" lon="30.0512711518"><ele>83.29</ele><time>2026-04-25T12:18:48Z</time></trkpt><trkpt lat="59.0685117524" lon="30.0513260532"><ele>83.29</ele><time>2026-04-25T12:19:00Z</time></trkpt><trkpt lat="59.0684924740" lon="30.0513273943"><ele>83.29</ele><time>2026-04-25T12:19:03Z</time></trkpt><trkpt lat="59.0684398357" lon="30.0513635203"><ele>83.29</ele><time>2026-04-25T12:19:13Z</time></trkpt><trkpt lat="59.0683948249" lon="30.0513354409"><ele>83.29</ele><time>2026-04-25T12:19:20Z</time></trkpt><trkpt lat="59.0683805756" lon="30.0513445772"><ele>83.29</ele><time>2026-04-25T12:19:22Z</time></trkpt><trkpt lat="59.0683635604" lon="30.0513574015"><ele>83.29</ele><time>2026-04-25T12:19:24Z</time></trkpt><trkpt lat="59.0683317930" lon="30.0513434876"><ele>83.29</ele><time>2026-04-25T12:19:28Z</time></trkpt><trkpt lat="59.0682727844" lon="30.0513454154"><ele>83.29</ele><time>2026-04-25T12:19:33Z</time></trkpt><trkpt lat="59.0681799129" lon="30.0514342636"><ele>83.29</ele><time>2026-04-25T12:19:42Z</time></trkpt><trkpt lat="59.0681359079" lon="30.0514372811"><ele>83.77</ele><time>2026-04-25T12:19:57Z</time></trkpt><trkpt lat="59.0681238379" lon="30.0514418911"><ele>83.77</ele><time>2026-04-25T12:20:13Z</time></trkpt><trkpt lat="59.0680750553" lon="30.0514292344"><ele>83.77</ele><time>2026-04-25T12:20:33Z</time></trkpt><trkpt lat="59.0680568665" lon="30.0514502730"><ele>83.77</ele><time>2026-04-25T12:20:36Z</time></trkpt><trkpt lat="59.0680123586" lon="30.0515122991"><ele>83.77</ele><time>2026-04-25T12:20:46Z</time></trkpt><trkpt lat="59.0678808466" lon="30.0515330024"><ele>83.77</ele><time>2026-04-25T12:20:56Z</time></trkpt><trkpt lat="59.0678241011" lon="30.0515658595"><ele>83.77</ele><time>2026-04-25T12:21:05Z</time></trkpt><trkpt lat="59.0677888133" lon="30.0515622552"><ele>83.77</ele><time>2026-04-25T12:21:08Z</time></trkpt><trkpt lat="59.0677345823" lon="30.0515956990"><ele>83.77</ele><time>2026-04-25T12:21:13Z</time></trkpt><trkpt lat="59.0676643420" lon="30.0517209247"><ele>83.77</ele><time>2026-04-25T12:21:22Z</time></trkpt><trkpt lat="59.0676469076" lon="30.0517295580"><ele>83.77</ele><time>2026-04-25T12:21:24Z</time></trkpt><trkpt lat="59.0676054172" lon="30.0516723096"><ele>84.25</ele><time>2026-04-25T12:21:33Z</time></trkpt><trkpt lat="59.0675829537" lon="30.0516516902"><ele>84.25</ele><time>2026-04-25T12:21:42Z</time></trkpt><trkpt lat="59.0675041638" lon="30.0516545400"><ele>84.25</ele><time>2026-04-25T12:21:56Z</time></trkpt><trkpt lat="59.0674932674" lon="30.0516689569"><ele>84.25</ele><time>2026-04-25T12:22:00Z</time></trkpt><trkpt lat="59.0673701372" lon="30.0517395325"><ele>84.25</ele><time>2026-04-25T12:22:10Z</time></trkpt><trkpt lat="59.0673369449" lon="30.0517718028"><ele>84.25</ele><time>2026-04-25T12:22:14Z</time></trkpt><trkpt lat="59.0672719013" lon="30.0518401992"><ele>84.25</ele><time>2026-04-25T12:22:23Z</time></trkpt><trkpt lat="59.0672261361" lon="30.0518871378"><ele>84.25</ele><time>2026-04-25T12:22:34Z</time></trkpt><trkpt lat="59.0672099590" lon="30.0518875569"><ele>84.25</ele><time>2026-04-25T12:22:45Z</time></trkpt><trkpt lat="59.0671592485" lon="30.0519040693"><ele>84.25</ele><time>2026-04-25T12:23:03Z</time></trkpt><trkpt lat="59.0671548061" lon="30.0519041531"><ele>84.25</ele><time>2026-04-25T12:23:04Z</time></trkpt><trkpt lat="59.0670978092" lon="30.0519883074"><ele>84.25</ele><time>2026-04-25T12:23:11Z</time></trkpt><trkpt lat="59.0670260601" lon="30.0519774947"><ele>84.25</ele><time>2026-04-25T12:23:21Z</time></trkpt><trkpt lat="59.0670203604" lon="30.0519751478"><ele>84.25</ele><time>2026-04-25T12:23:22Z</time></trkpt><trkpt lat="59.0669328533" lon="30.0519770756"><ele>83.77</ele><time>2026-04-25T12:23:33Z</time></trkpt><trkpt lat="59.0668731742" lon="30.0519476552"><ele>83.77</ele><time>2026-04-25T12:23:41Z</time></trkpt><trkpt lat="59.0668576676" lon="30.0519525167"><ele>83.77</ele><time>2026-04-25T12:23:45Z</time></trkpt><trkpt lat="59.0667801350" lon="30.0519566238"><ele>83.77</ele><time>2026-04-25T12:23:55Z</time></trkpt><trkpt lat="59.0667614434" lon="30.0519821886"><ele>83.77</ele><time>2026-04-25T12:24:02Z</time></trkpt><trkpt lat="59.0667075478" lon="30.0520432927"><ele>83.77</ele><time>2026-04-25T12:24:11Z</time></trkpt><trkpt lat="59.0666514728" lon="30.0521103479"><ele>83.77</ele><time>2026-04-25T12:24:22Z</time></trkpt><trkpt lat="59.0666325297" lon="30.0521178078"><ele>83.77</ele><time>2026-04-25T12:24:31Z</time></trkpt><trkpt lat="59.0666013490" lon="30.0520999543"><ele>83.77</ele><time>2026-04-25T12:24:40Z</time></trkpt><trkpt lat="59.0665800590" lon="30.0520514231"><ele>83.77</ele><time>2026-04-25T12:24:51Z</time></trkpt><trkpt lat="59.0665798914" lon="30.0520577934"><ele>83.29</ele><time>2026-04-25T12:25:12Z</time></trkpt><trkpt lat="59.0665732697" lon="30.0520593859"><ele>83.29</ele><time>2026-04-25T12:25:15Z</time></trkpt><trkpt lat="59.0665230621" lon="30.0520354975"><ele>83.29</ele><time>2026-04-25T12:25:24Z</time></trkpt><trkpt lat="59.0665003471" lon="30.0520357490"><ele>83.29</ele><time>2026-04-25T12:25:27Z</time></trkpt><trkpt lat="59.0664651431" lon="30.0520824362"><ele>83.77</ele><time>2026-04-25T12:25:37Z</time></trkpt><trkpt lat="59.0664085653" lon="30.0521147065"><ele>83.77</ele><time>2026-04-25T12:25:48Z</time></trkpt><trkpt lat="59.0663779713" lon="30.0521457195"><ele>83.77</ele><time>2026-04-25T12:25:55Z</time></trkpt><trkpt lat="59.0663119219" lon="30.0522149540"><ele>83.77</ele><time>2026-04-25T12:26:02Z</time></trkpt><trkpt lat="59.0662939008" lon="30.0522493199"><ele>83.77</ele><time>2026-04-25T12:26:05Z</time></trkpt><trkpt lat="59.0662151948" lon="30.0523441192"><ele>83.77</ele><time>2026-04-25T12:26:17Z</time></trkpt><trkpt lat="59.0661337227" lon="30.0524327997"><ele>83.77</ele><time>2026-04-25T12:26:28Z</time></trkpt><trkpt lat="59.0661044698" lon="30.0524372421"><ele>83.77</ele><time>2026-04-25T12:26:36Z</time></trkpt><trkpt lat="59.0660421085" lon="30.0523435324"><ele>83.77</ele><time>2026-04-25T12:26:47Z</time></trkpt><trkpt lat="59.0660025459" lon="30.0522600487"><ele>83.77</ele><time>2026-04-25T12:26:55Z</time></trkpt><trkpt lat="59.0659949183" lon="30.0522529241"><ele>83.77</ele><time>2026-04-25T12:26:56Z</time></trkpt><trkpt lat="59.0658708662" lon="30.0522443745"><ele>83.77</ele><time>2026-04-25T12:27:09Z</time></trkpt><trkpt lat="59.0658183955" lon="30.0522780698"><ele>83.77</ele><time>2026-04-25T12:27:19Z</time></trkpt><trkpt lat="59.0657587163" lon="30.0523891300"><ele>83.29</ele><time>2026-04-25T12:27:29Z</time></trkpt><trkpt lat="59.0657284576" lon="30.0524015352"><ele>83.29</ele><time>2026-04-25T12:27:38Z</time></trkpt><trkpt lat="59.0657284576" lon="30.0524385832"><ele>83.29</ele><time>2026-04-25T12:27:50Z</time></trkpt><trkpt lat="59.0657232609" lon="30.0524301175"><ele>83.29</ele><time>2026-04-25T12:27:54Z</time></trkpt><trkpt lat="59.0657178126" lon="30.0524188019"><ele>83.29</ele><time>2026-04-25T12:27:57Z</time></trkpt><trkpt lat="59.0655991249" lon="30.0523750484"><ele>83.29</ele><time>2026-04-25T12:28:09Z</time></trkpt><trkpt lat="59.0655884799" lon="30.0523592904"><ele>83.29</ele><time>2026-04-25T12:28:16Z</time></trkpt><trkpt lat="59.0655934252" lon="30.0523487292"><ele>83.29</ele><time>2026-04-25T12:28:29Z</time></trkpt><trkpt lat="59.0655739792" lon="30.0523507409"><ele>83.29</ele><time>2026-04-25T12:28:40Z</time></trkpt><trkpt lat="59.0655088518" lon="30.0523439515"><ele>83.29</ele><time>2026-04-25T12:28:51Z</time></trkpt><trkpt lat="59.0654703788" lon="30.0523136090"><ele>83.29</ele><time>2026-04-25T12:29:01Z</time></trkpt><trkpt lat="59.0654545370" lon="30.0523080770"><ele>82.81</ele><time>2026-04-25T12:29:19Z</time></trkpt><trkpt lat="59.0654411260" lon="30.0522964261"><ele>82.81</ele><time>2026-04-25T12:29:50Z</time></trkpt><trkpt lat="59.0654390305" lon="30.0522971805"><ele>82.81</ele><time>2026-04-25T12:30:12Z</time></trkpt><trkpt lat="59.0654269606" lon="30.0522403512"><ele>82.81</ele><time>2026-04-25T12:30:26Z</time></trkpt><trkpt lat="59.0654390305" lon="30.0521511678"><ele>82.81</ele><time>2026-04-25T12:30:39Z</time></trkpt><trkpt lat="59.0654686186" lon="30.0519966893"><ele>82.81</ele><time>2026-04-25T12:30:50Z</time></trkpt><trkpt lat="59.0654349234" lon="30.0518708769"><ele>82.33</ele><time>2026-04-25T12:31:00Z</time></trkpt><trkpt lat="59.0653725620" lon="30.0517779216"><ele>82.33</ele><time>2026-04-25T12:31:08Z</time></trkpt><trkpt lat="59.0653625038" lon="30.0516902469"><ele>82.33</ele><time>2026-04-25T12:31:20Z</time></trkpt><trkpt lat="59.0653573908" lon="30.0516106188"><ele>82.33</ele><time>2026-04-25T12:31:29Z</time></trkpt><trkpt lat="59.0653902479" lon="30.0514115486"><ele>82.81</ele><time>2026-04-25T12:31:40Z</time></trkpt><trkpt lat="59.0654019825" lon="30.0512003247"><ele>83.29</ele><time>2026-04-25T12:31:49Z</time></trkpt><trkpt lat="59.0654153097" lon="30.0511257257"><ele>83.29</ele><time>2026-04-25T12:31:52Z</time></trkpt><trkpt lat="59.0654219314" lon="30.0510765240"><ele>83.29</ele><time>2026-04-25T12:31:54Z</time></trkpt><trkpt lat="59.0653967857" lon="30.0508820638"><ele>83.29</ele><time>2026-04-25T12:32:06Z</time></trkpt><trkpt lat="59.0653820336" lon="30.0507600233"><ele>83.29</ele><time>2026-04-25T12:32:13Z</time></trkpt><trkpt lat="59.0653642640" lon="30.0505866855"><ele>83.29</ele><time>2026-04-25T12:32:21Z</time></trkpt><trkpt lat="59.0653535351" lon="30.0504582748"><ele>82.81</ele><time>2026-04-25T12:32:27Z</time></trkpt><trkpt lat="59.0653260425" lon="30.0501710270"><ele>82.81</ele><time>2026-04-25T12:32:40Z</time></trkpt><trkpt lat="59.0653114580" lon="30.0500157103"><ele>82.81</ele><time>2026-04-25T12:32:48Z</time></trkpt><trkpt lat="59.0652575623" lon="30.0496894866"><ele>83.29</ele><time>2026-04-25T12:33:02Z</time></trkpt><trkpt lat="59.0652292315" lon="30.0494392868"><ele>83.77</ele><time>2026-04-25T12:33:14Z</time></trkpt><trkpt lat="59.0652213525" lon="30.0494001433"><ele>83.77</ele><time>2026-04-25T12:33:16Z</time></trkpt><trkpt lat="59.0652113780" lon="30.0492463354"><ele>83.77</ele><time>2026-04-25T12:33:23Z</time></trkpt><trkpt lat="59.0651740786" lon="30.0490188506"><ele>83.77</ele><time>2026-04-25T12:33:35Z</time></trkpt><trkpt lat="59.0651594941" lon="30.0489385519"><ele>83.77</ele><time>2026-04-25T12:33:39Z</time></trkpt><trkpt lat="59.0651279781" lon="30.0487143360"><ele>84.25</ele><time>2026-04-25T12:33:50Z</time></trkpt><trkpt lat="59.0651201829" lon="30.0486545730"><ele>84.25</ele><time>2026-04-25T12:33:52Z</time></trkpt><trkpt lat="59.0650899243" lon="30.0485741906"><ele>84.25</ele><time>2026-04-25T12:33:57Z</time></trkpt><trkpt lat="59.0650788601" lon="30.0484402478"><ele>84.25</ele><time>2026-04-25T12:34:03Z</time></trkpt><trkpt lat="59.0650483500" lon="30.0482612941"><ele>84.73</ele><time>2026-04-25T12:34:12Z</time></trkpt><trkpt lat="59.0650174208" lon="30.0481157843"><ele>84.73</ele><time>2026-04-25T12:34:18Z</time></trkpt><trkpt lat="59.0649768524" lon="30.0477792509"><ele>85.21</ele><time>2026-04-25T12:34:32Z</time></trkpt><trkpt lat="59.0649781097" lon="30.0477569550"><ele>85.21</ele><time>2026-04-25T12:34:33Z</time></trkpt><trkpt lat="59.0649369545" lon="30.0475020614"><ele>85.69</ele><time>2026-04-25T12:34:48Z</time></trkpt><trkpt lat="59.0649272315" lon="30.0475184899"><ele>85.69</ele><time>2026-04-25T12:35:01Z</time></trkpt><trkpt lat="59.0649289917" lon="30.0475196633"><ele>85.69</ele><time>2026-04-25T12:35:17Z</time></trkpt><trkpt lat="59.0649268962" lon="30.0475147180"><ele>85.69</ele><time>2026-04-25T12:35:23Z</time></trkpt><trkpt lat="59.0649581607" lon="30.0474599842"><ele>85.69</ele><time>2026-04-25T12:35:34Z</time></trkpt><trkpt lat="59.0649641119" lon="30.0474395324"><ele>85.69</ele><time>2026-04-25T12:35:36Z</time></trkpt><trkpt lat="59.0651260503" lon="30.0466014259"><ele>87.14</ele><time>2026-04-25T12:35:52Z</time></trkpt><trkpt lat="59.0652445704" lon="30.0457727071"><ele>88.58</ele><time>2026-04-25T12:36:03Z</time></trkpt><trkpt lat="59.0651536267" lon="30.0448849797"><ele>89.06</ele><time>2026-04-25T12:36:09Z</time></trkpt><trkpt lat="59.0651058499" lon="30.0447036792"><ele>89.06</ele><time>2026-04-25T12:36:10Z</time></trkpt><trkpt lat="59.0650452487" lon="30.0445077103"><ele>89.06</ele><time>2026-04-25T12:36:11Z</time></trkpt><trkpt lat="59.0642072260" lon="30.0415217411"><ele>89.54</ele><time>2026-04-25T12:36:24Z</time></trkpt><trkpt lat="59.0635282919" lon="30.0389979500"><ele>89.54</ele><time>2026-04-25T12:36:34Z</time></trkpt><trkpt lat="59.0634097718" lon="30.0386019051"><ele>87.62</ele><time>2026-04-25T12:36:36Z</time></trkpt><trkpt lat="59.0640284400" lon="30.0380101427"><ele>83.77</ele><time>2026-04-25T12:36:43Z</time></trkpt><trkpt lat="59.0641122591" lon="30.0380865857"><ele>84.25</ele><time>2026-04-25T12:36:44Z</time></trkpt><trkpt lat="59.0641199704" lon="30.0380642898"><ele>84.25</ele><time>2026-04-25T12:36:55Z</time></trkpt><trkpt lat="59.0641189646" lon="30.0380673911"><ele>84.25</ele><time>2026-04-25T12:37:20Z</time></trkpt><trkpt lat="59.0641220659" lon="30.0380694028"><ele>85.21</ele><time>2026-04-25T12:37:30Z</time></trkpt><trkpt lat="59.0641079843" lon="30.0380634516"><ele>85.21</ele><time>2026-04-25T12:38:06Z</time></trkpt><trkpt lat="59.0640877001" lon="30.0380886812"><ele>85.21</ele><time>2026-04-25T12:38:35Z</time></trkpt><trkpt lat="59.0640866943" lon="30.0380971469"><ele>85.21</ele><time>2026-04-25T12:39:11Z</time></trkpt><trkpt lat="59.0640830901" lon="30.0380995777"><ele>84.73</ele><time>2026-04-25T12:39:41Z</time></trkpt><trkpt lat="59.0640915558" lon="30.0381148327"><ele>84.73</ele><time>2026-04-25T12:40:11Z</time></trkpt><trkpt lat="59.0641001891" lon="30.0381227955"><ele>84.73</ele><time>2026-04-25T12:40:36Z</time></trkpt><trkpt lat="59.0641074814" lon="30.0381051097"><ele>84.25</ele><time>2026-04-25T12:41:09Z</time></trkpt><trkpt lat="59.0641063079" lon="30.0381104741"><ele>84.25</ele><time>2026-04-25T12:41:41Z</time></trkpt><trkpt lat="59.0641204733" lon="30.0381158385"><ele>84.25</ele><time>2026-04-25T12:42:12Z</time></trkpt><trkpt lat="59.0641361475" lon="30.0381198619"><ele>83.77</ele><time>2026-04-25T12:42:47Z</time></trkpt><trkpt lat="59.0641389973" lon="30.0381145813"><ele>83.77</ele><time>2026-04-25T12:43:21Z</time></trkpt><trkpt lat="59.0641384944" lon="30.0381042715"><ele>84.25</ele><time>2026-04-25T12:43:49Z</time></trkpt><trkpt lat="59.0641519893" lon="30.0381371286"><ele>84.25</ele><time>2026-04-25T12:44:15Z</time></trkpt><trkpt lat="59.0641519055" lon="30.0381559879"><ele>83.77</ele><time>2026-04-25T12:44:45Z</time></trkpt><trkpt lat="59.0641481336" lon="30.0381750986"><ele>83.77</ele><time>2026-04-25T12:45:19Z</time></trkpt><trkpt lat="59.0641589463" lon="30.0381520484"><ele>83.77</ele><time>2026-04-25T12:45:54Z</time></trkpt><trkpt lat="59.0641534142" lon="30.0381459296"><ele>83.77</ele><time>2026-04-25T12:46:26Z</time></trkpt><trkpt lat="59.0641428530" lon="30.0381291658"><ele>83.29</ele><time>2026-04-25T12:47:01Z</time></trkpt><trkpt lat="59.0641144384" lon="30.0381574966"><ele>83.77</ele><time>2026-04-25T12:47:35Z</time></trkpt><trkpt lat="59.0641195513" lon="30.0381652080"><ele>83.77</ele><time>2026-04-25T12:48:06Z</time></trkpt><trkpt lat="59.0640881192" lon="30.0381296687"><ele>83.77</ele><time>2026-04-25T12:48:36Z</time></trkpt><trkpt lat="59.0640839282" lon="30.0381074566"><ele>83.77</ele><time>2026-04-25T12:48:48Z</time></trkpt><trkpt lat="59.0640851855" lon="30.0380785391"><ele>83.77</ele><time>2026-04-25T12:49:01Z</time></trkpt><trkpt lat="59.0640926454" lon="30.0381227955"><ele>83.77</ele><time>2026-04-25T12:49:03Z</time></trkpt><trkpt lat="59.0641029552" lon="30.0381352846"><ele>83.77</ele><time>2026-04-25T12:49:04Z</time></trkpt><trkpt lat="59.0640734509" lon="30.0380331930"><ele>83.77</ele><time>2026-04-25T12:49:16Z</time></trkpt><trkpt lat="59.0640790667" lon="30.0380466040"><ele>83.77</ele><time>2026-04-25T12:49:30Z</time></trkpt><trkpt lat="59.0640840121" lon="30.0380342826"><ele>83.77</ele><time>2026-04-25T12:49:47Z</time></trkpt><trkpt lat="59.0641244128" lon="30.0380575005"><ele>83.29</ele><time>2026-04-25T12:50:02Z</time></trkpt></trkseg></trk></gpx>